     2.11           OBSERVATION DATA    G (GPS)             RINEX VERSION / TYPE
teqc 2010Oct21 OPUS Account 20111030 16:31:58UTC            PGM / RUN BY / DATE
C 1524                                                      MARKER NAME
1207                                                        MARKER NUMBER
CSMIDDLETON NGS                                             OBSERVER / AGENCY
0220316069 TRIMBLE 5700 1.30                                REC # / TYPE / VERS
12469273 TRM41249.00 NONE                                   ANT # / TYPE
  -755280.4730 -5524619.3194  3086358.1268                  APPROX POSITION XYZ
        2.0000        0.0000        0.0000                  ANTENNA: DELTA H/E/N
     1     1                                                WAVELENGTH FACT L1/2
     5    L1    L2    C1    P1    P2                        # / TYPES OF OBSERV
    15                                                      LEAP SECONDS
  2011     9    27    17    39    0.0000000     GPS         TIME OF FIRST OBS
                                                            END OF HEADER
 11  9 27 17 39  0.0000000  0  8G04G07G08G11G17G24G26G28
  -1027570.43057   -765860.68654  23506762.4774                   23506768.2194
     38565.27757     23924.71155  22633355.4844                   22633357.8484
   -192043.45358   -147640.03156  20531260.0634                   20531260.1564
     -9888.35956    -11981.16954  23284405.5474                   23284406.1134
   -594233.54358   -445404.20256  20805277.4774                   20805277.0904
   -164456.56657   -127826.66954  22771796.1254                   22771798.4884
   -229145.21157   -174102.99454  23211276.5314                   23211279.6254
   -587532.19158   -440041.73156  21296144.0704                   21296142.8054
 11  9 27 17 39 30.0000000  0  8G04G07G08G11G17G24G26G28
  -1234991.23047   -927487.08244  23467291.8364                   23467296.9454
     44671.44547     28682.57645  22634517.6414                   22634520.5044
   -228144.32848   -175770.66546  20524390.3984                   20524390.2544
    -12750.99646    -14211.90344  23283860.6724                   23283861.6024
   -706221.44948   -532667.48146  20783967.1024                   20783966.6954
   -195989.30947   -152397.66844  22765795.7114                   22765798.2974
   -272602.16047   -207965.69044  23203006.4534                   23203009.8244
   -698943.14548   -526855.48646  21274943.1414                   21274942.2344
 11  9 27 17 40  0.0000000  0  8G04G07G08G11G17G24G26G28
  -1442850.07847  -1089454.80644  23427736.8834                   23427742.4884
     50547.89847     33261.44644  22635635.7424                   22635638.5944
   -264201.76248   -203867.44046  20517528.8834                   20517528.9494
    -15814.58246    -16599.20843  23283277.3204                   23283279.0234
   -818376.61748   -620061.12346  20762624.7034                   20762624.1294
   -227559.43447   -176997.79744  22759788.2584                   22759790.9064
   -316156.43047   -241904.17544  23194718.5164                   23194722.2074
   -810770.39148   -613993.60046  21253663.4454                   21253662.2464
 11  9 27 17 40 30.0000000  0  8G04G07G08G11G17G24G26G28
  -1651129.46947  -1251750.24944  23388102.4614                   23388108.1564
     56207.23047     37671.09344  22636712.8444                   22636715.5044
   -300202.48448   -231920.01946  20510678.1024                   20510678.4414
    -19067.13746    -19133.71444  23282658.7504                   23282659.5474
   -930685.03148   -707574.16546  20741253.0634                   20741252.5234
   -259153.91047   -201616.91344  22753776.2664                   22753778.3014
   -359795.58247   -275908.83444  23186414.6884                   23186417.9774
   -922998.09448   -701443.76046  21232307.0234                   21232305.8134
 11  9 27 17 41  0.0000000  0  8G04G07G08G11G17G24G26G28
  -1859782.36747  -1414336.73844  23348397.3054                   23348402.0984
     61690.88347     41943.88045  22637756.6174                   22637759.3364
   -336103.77748   -259895.11946  20503846.0164                   20503846.6174
    -22467.16047    -21783.17644  23282012.3914                   23282012.6294
  -1043103.72748   -795173.14346  20719860.4144                   20719859.6454
   -290730.91847   -226222.43544  22747767.3284                   22747769.2034
   -403478.89147   -309947.87144  23178102.1564                   23178105.1334
  -1035581.41448   -789171.02746  21210882.9844                   21210882.0274
 11  9 27 17 41 30.0000000  0  8G04G07G08G11G17G24G26G28
  -2068784.33246  -1577195.21744  23308624.7114                   23308630.1804
     67018.21547     46094.82745  22638770.4144                   22638773.5904
   -371885.24248   -287776.85846  20497037.0314                   20497037.4494
    -25995.30547    -24532.44944  23281340.6644                   23281341.8714
  -1155611.78148   -882841.74646  20698451.3054                   20698450.2934
   -322270.62147   -250798.86844  22741765.0164                   22741767.4454
   -447187.04747   -344006.29244  23169784.2814                   23169787.9654
  -1148497.55948   -877157.64446  21189395.7274                   21189394.5904
 11  9 27 17 42  0.0000000  0  8G04G07G08G11G17G24G26G28
  -2278105.07446  -1740302.10243  23268792.3364                   23268797.6884
     72214.51247     50143.70444  22639759.3364                   22639762.0944
   -407521.16448   -315545.17946  20490256.0554                   20490256.1024
    -29627.15647    -27362.55444  23280649.5314                   23280650.7194
  -1268182.84848   -970559.46046  20677029.1254                   20677028.7894
   -353747.82447   -275326.61644  22735775.4454                   22735777.6334
   -490896.04747   -378065.37044  23161466.7584                   23161470.6214
  -1261718.04348   -965381.40246  21167850.6724                   21167849.7114
 11  9 27 17 42 30.0000000  0  8G04G07G08G11G17G24G26G28
   -912270.50447   -676015.25244  23528701.8204                   23528707.2624
   1652741.12947   1281722.67045  22940523.6414                   22940526.7344
   1132452.78548    884434.45746  20783303.0704                   20783303.5944
   1542099.02046   1197359.10944  23579739.3914                   23579739.9654
    194650.46948    169310.66646  20955397.2344                   20955396.6994
   1190300.57847    927827.95344  23029598.1954                   23029600.1094
   1040857.13346    815508.39444  23452949.5554                   23452953.5634
    200226.28948    173795.99846  21446049.3914                   21446047.9614
 11  9 27 17 43  0.0000000  0  8G04G07G08G11G17G24G26G28
  -1122099.49247   -839518.12644  23488773.5314                   23488777.9924
   1657788.51647   1285655.47045  22941484.5394                   22941487.6564
   1097225.26648    856984.35746  20776599.6954                   20776600.2934
   1538372.45746   1194455.25243  23579029.8914                   23579030.8594
     82071.41848     81586.74646  20933973.9384                   20933973.7034
   1159062.92247    903486.88144  23023653.7424                   23023656.0634
    997259.08247    781535.79044  23444654.3754                   23444657.0784
     86521.19947     85194.62346  21424412.4144                   21424410.5394
 11  9 27 17 43 30.0000000  0  8G04G07G08G11G17G24G26G28
  -1332132.36347  -1003179.97044  23448804.4384                   23448809.2584
   1662803.97347   1289563.41445  22942438.7664                   22942442.4774
   1062245.50048    829727.33646  20769943.6414                   20769944.2304
   1534640.78147   1191547.40243  23578320.1414                   23578320.7384
    -30466.97347     -6105.50846  20912558.5084                   20912558.0744
   1127987.91847    879272.54044  23017740.6414                   23017742.9574
    953757.97347    747638.73444  23436375.9774                   23436378.6374
    -27378.66847     -3558.51246  21402737.9384                   21402736.1094
 11  9 27 17 44  0.0000000  0  8G04G07G08G11G17G24G26G28
  -1542347.68746  -1166983.90944  23408802.2814                   23408807.0784
   1667803.61347   1293459.01345  22943391.0164                   22943393.4964
   1027530.48447    802676.60446  20763337.5394                   20763338.1334
   1530919.99646   1188647.98943  23577611.6804                   23577613.1524
   -142947.43747    -93752.60846  20891154.4694                   20891153.6334
   1097092.14847    855197.88744  23011861.2664                   23011863.4734
    910369.62547    713829.53644  23428119.6414                   23428122.4144
   -141453.58647    -92448.06646  21381029.9304                   21381028.5004
 11  9 27 17 44 30.0000000  0  8G04G07G08G11G17G24G26G28
  -1752724.04347  -1330913.36944  23368768.6954                   23368773.7544
   1672803.29747   1297354.65045  22944342.3594                   22944345.6334
    993097.25848    775845.43146  20756785.2974                   20756785.5354
   1527225.88746   1185769.41743  23576909.0554                   23576909.6254
   -255352.31648   -181340.82646  20869764.5314                   20869764.3054
   1066391.87947    831275.53344  23006019.5474                   23006021.3204
    867109.41047    680120.16344  23419887.8594                   23419890.6334
   -255684.27048   -181458.97846  21359292.5634                   21359291.1994
 11  9 27 17 45  0.0000000  0  8G04G07G08G11G17G24G26G28
  -1963247.93047  -1494957.74044  23328707.0394                   23328711.9144
   1677811.41447   1301256.84745  22945295.1174                   22945298.8164
    958955.10248    749241.09246  20750288.2424                   20750288.6134
   1523566.31346   1182917.73343  23576212.8754                   23576213.3284
   -367671.78948   -268862.48146  20848390.9924                   20848390.1914
   1035895.75447    807512.26844  23000216.1724                   23000217.8244
    823985.30547    646516.85144  23411681.1334                   23411684.2504
   -370058.89148   -270582.07046  21337527.7734                   21337526.3134
 11  9 27 17 45 30.0000000  0  8G04G07G08G11G17G24G26G28
  -2173905.05147  -1659105.96444  23288620.1644                   23288624.8554
   1682837.26647   1305172.87645  22946252.3594                   22946255.1334
    925114.00448    722871.33646  20743848.3524                   20743848.9304
   1519950.20346   1180099.90543  23575524.3594                   23575525.3284
   -479895.27748   -356309.33246  20827035.5784                   20827034.8754
   1005613.19947    783915.43544  22994453.6564                   22994455.5314
    781005.61347    613026.09644  23403502.7424                   23403505.5784
   -484564.62148   -359807.31246  21315738.2344                   21315736.8714
 11  9 27 17 46  0.0000000  0  8G04G07G08G11G17G24G26G28
  -2384682.88746  -1823348.24344  23248509.4064                   23248514.8484
   1687887.70347   1309108.05045  22947213.7034                   22947216.8594
    891581.85248    696742.31646  20737467.3914                   20737468.0354
   1516384.17646   1177321.10143  23574845.5864                   23574847.5044
   -592014.23048   -443674.74046  20805700.0864                   20805699.1454
    975551.39547    760490.61944  22988732.8054                   22988735.0704
    738176.91047    579652.98144  23395353.0554                   23395355.6214
   -599191.06648   -449126.62746  21293925.4144                   21293923.6994
 11  9 27 17 46 30.0000000  0  8G04G07G08G11G17G24G26G28
  -2595567.40646  -1987673.62044  23208380.1724                   23208384.4844
   1692971.55147   1313069.29245  22948180.9534                   22948184.4804
    858368.20748    670861.48646  20731147.2974                   20731147.9224
   1512876.71146   1174587.96143  23574178.6414                   23574179.6094
   -704018.50048   -530950.78246  20784386.1564                   20784385.6954
    945719.18847    737244.67844  22983056.0164                   22983058.5124
    695507.44147    546403.96444  23387233.4064                   23387235.7344
   -713925.85948   -538530.35646  21272092.2974                   21272090.7894
 11  9 27 17 47  0.0000000  0  8G04G07G08G11G17G24G26G28
  -2806547.53546  -2152073.50644  23168231.7274                   23168236.8484
   1698094.46147   1317060.97044  22949156.0164                   22949159.0634
    825479.60548    645233.93246  20724889.1414                   20724889.4574
   1509433.70346   1171905.00143  23573523.1884                   23573524.3914
   -815901.23448   -618132.10746  20763095.5314                   20763095.0204
    916122.87147    714182.61344  22977424.5004                   22977426.1094
    653002.39547    513283.02744  23379145.0004                   23379148.0704
   -828759.64848   -628011.23446  21250240.0004                   21250238.6054
 11  9 27 17 47 30.0000000  0  8G04G07G08G11G17G24G26G28
  -3017615.15247  -2316541.56744  23128066.5944                   23128071.4144
   1703259.30147   1321085.31644  22950138.7584                   22950142.4494
    792919.73448    619862.53746  20718692.8914                   20718693.5234
   1506057.83246   1169274.35243  23572881.1564                   23572882.6724
   -927657.82048   -705215.14646  20741829.0474                   20741828.7154
    886765.77747    691306.87744  22971837.8674                   22971839.6914
    610664.10247    480292.03644  23371087.7114                   23371091.0904
   -943686.00448   -717564.23246  21228370.1804                   21228368.9384
 11  9 27 17 48  0.0000000  0  8G04G07G08G11G17G24G26G28
  -3228757.78947  -2481068.06044  23087887.8284                   23087892.2424
   1708473.16847   1325147.85244  22951130.6884                   22951134.2624
    760696.10248    594753.14246  20712561.1024                   20712561.6954
   1502755.59846   1166701.08043  23572253.0864                   23572254.4104
  -1039280.09048   -792193.52046  20720587.9384                   20720587.3244
    857654.88747    668623.01744  22966298.0234                   22966300.6564
    568498.99647    447436.02944  23363064.1484                   23363067.6484
  -1058694.35248   -807181.12046  21206485.0474                   21206483.2304
 11  9 27 17 48 30.0000000  0  8G04G07G08G11G17G24G26G28
  -3439964.76647  -2645644.75144  23047696.3914                   23047700.3554
   1713741.77047   1329253.04044  22952133.3134                   22952136.7384
    728815.24648    569910.84446  20706494.4924                   20706495.3324
   1499532.40646   1164189.44343  23571640.0164                   23571641.2544
  -1150760.78948   -879061.57646  20699373.9774                   20699373.3404
    828796.23447    646135.71044  22960806.4694                   22960809.0274
    526512.14547    414718.87344  23355074.1954                   23355077.6724
  -1173775.60548   -896854.82546  21184585.1724                   21184584.2974
 11  9 27 17 49  0.0000000  0  8G04G07G08G11G17G24G26G28
  -3651230.12547  -2810266.89944  23007493.5864                   23007498.4224
   1719065.05147   1333400.85644  22953146.9224                   22953149.9964
    697278.13348    545336.39346  20700493.0704                   20700493.7154
   1496388.49646   1161739.50644  23571041.6884                   23571042.8524
  -1262098.28148   -965818.03946  20678187.1094                   20678186.3054
    800190.23447    623845.25844  22955363.2114                   22955365.3834
    484703.08647    382140.28444  23347118.9064                   23347122.3364
  -1288925.71948   -986582.17346  21162673.3444                   21162671.6884
 11  9 27 17 49 30.0000000  0  8G04G07G08G11G17G24G26G28
  -3862545.42647  -2974927.94344  22967281.4534                   22967285.5824
   1724446.40647   1337593.87744  22954170.8834                   22954174.6374
    666088.68448    521032.86046  20694557.6954                   20694558.8244
   1493326.95346   1159353.80844  23570458.6094                   23570460.4844
  -1373287.97748  -1052459.34246  20657028.5164                   20657027.5084
    771840.23447    601754.30844  22949968.2814                   22949970.4694
    443074.74247    349702.50444  23339197.1094                   23339200.8284
  -1404138.01248  -1076357.99646  21140749.1644                   21140747.6254
 11  9 27 17 50  0.0000000  0  8G04G07G08G11G17G24G26G28
  -4073903.16447  -3139622.06744  22927061.0234                   22927065.5554
   1729888.03147   1341833.88144  22955206.7814                   22955210.1914
    635250.14848    497002.75546  20688689.6644                   20688690.2504
   1490349.55547   1157033.68944  23569892.8364                   23569893.5234
  -1484326.17648  -1138982.60246  20635898.5234                   20635897.6994
    743748.58247    579864.65744  22944622.5004                   22944624.9964
    401628.62547    317406.71644  23331310.4064                   23331313.9454
  -1519406.49248  -1166177.58946  21118814.1484                   21118813.0394
 11  9 27 17 50 30.0000000  0  8G04G07G08G11G17G24G26G28
  -2709868.00447  -2076737.32444  23186628.2664                   23186632.9414
   3310812.60547   2573722.94844  23256047.4454                   23256050.8054
   2180187.12148   1700849.68746  20982681.7894                   20982682.2974
   3062879.19547   2382381.39744  23869134.9304                   23869136.2034
    -19785.06248      2218.28546  20914591.4774                   20914590.9774
   2291339.66847   1785779.71744  23239119.3754                   23239121.7584
   1935788.48446   1512855.83644  23623250.9304                   23623255.0314
    -59301.02748    -28433.06746  21396663.1644                   21396661.6954
 11  9 27 17 51  0.0000000  0  8G04G07G08G11G17G24G26G28
  -2921288.35547  -2241480.24844  23146396.5164                   23146400.6174
   3316380.85947   2578061.63345  23257106.4774                   23257110.8164
   2150058.56348   1677372.80246  20976948.3984                   20976948.6954
   3060076.01247   2380197.01944  23868601.4694                   23868602.6374
   -130510.23448    -84061.04646  20893521.0164                   20893520.3984
   2263771.87947   1764298.26944  23233873.1094                   23233875.5004
   1894711.12946   1480847.36844  23615434.6334                   23615438.5514
   -174665.09448   -118327.14246  21374710.1884                   21374708.6414
 11  9 27 17 51 30.0000000  0  8G04G07G08G11G17G24G26G28
  -3132728.89847  -2406238.92744  23106160.2894                   23106164.5664
   3322015.30947   2582451.87745  23258179.5234                   23258182.9144
   2120288.57048   1654175.33446  20971283.3204                   20971284.0234
   3057362.56347   2378082.57643  23868085.3054                   23868086.5164
   -241073.75448   -170214.41646  20872481.3914                   20872480.6804
   2236469.25447   1743023.43644  23228678.1484                   23228680.4884
   1853820.11747   1448984.11844  23607653.5944                   23607656.7704
   -290068.57848   -208251.93146  21352749.5004                   21352747.7074
 11  9 27 17 52  0.0000000  0  8G04G07G08G11G17G24G26G28
  -3344182.50847  -2571007.77344  23065921.6414                   23065926.2704
   3327717.76647   2586895.10944  23259264.3524                   23259268.7464
   2090880.06348   1631259.53146  20965687.0944                   20965688.1564
   3054740.56647   2376039.37943  23867586.1484                   23867587.3754
   -351472.13748   -256239.09846  20851473.2424                   20851472.5704
   2209434.02046   1721956.95844  23223533.4144                   23223535.7114
   1813116.79746   1417267.14144  23599907.9384                   23599911.5594
   -405505.94548   -298203.11646  21330782.3054                   21330780.9734
 11  9 27 17 52 30.0000000  0  8G04G07G08G11G17G24G26G28
  -3555642.44147  -2735781.56344  23025682.2584                   23025685.8754
   3333489.43447   2591392.26744  23260363.0394                   23260367.0984
   2061834.73848   1608626.72846  20960159.9454                   20960160.3204
   3052211.28546   2374068.43143  23867105.4614                   23867106.5234
   -461703.37548   -342133.55546  20830497.2344                   20830496.4494
   2182667.23846   1701099.66844  23218439.7274                   23218442.5354
   1772601.81646   1385696.89744  23592197.6644                   23592201.6764
   -520972.48048   -388177.02046  21308810.0554                   21308808.2774
 11  9 27 17 53  0.0000000  0  8G04G07G08G11G17G24G26G28
  -3767104.35247  -2900556.90644  22985442.0164                   22985446.0864
   3339329.68447   2595942.84744  23261474.5944                   23261478.5274
   2033152.36748   1586276.74946  20954702.0864                   20954702.8014
   3049773.66446   2372168.89343  23866640.7504                   23866642.4104
   -571766.33648   -427896.88846  20809552.4694                   20809552.0744
   2156168.54746   1680451.26144  23213397.2504                   23213399.9414
   1732273.84846   1354272.39044  23584524.6414                   23584528.1094
   -636464.84048   -478171.04846  21286832.5394                   21286831.1374
 11  9 27 17 53 30.0000000  0  8G04G07G08G11G17G24G26G28
  -3978560.40647  -3065327.69744  22945203.1884                   22945207.1484
   3345240.60246   2600548.50044  23262599.2344                   23262603.7814
   2004835.75848   1564211.77346  20949313.3754                   20949314.3484
   3047429.38346   2370342.16343  23866194.1954                   23866195.9144
   -681657.56648   -513526.39546  20788641.0164                   20788640.4774
   2129940.30947   1660013.63644  23208406.2424                   23208408.1644
   1692134.38747   1322994.74644  23576886.6174                   23576889.8204
   -751977.24648   -568180.71446  21264851.0234                   21264849.6684
 11  9 27 17 54  0.0000000  0  8G04G07G08G11G17G24G26G28
  -4190004.34847  -3230089.03744  22904966.8914                   22904970.4924
   3351222.97346   2605209.79744  23263737.8524                   23263742.1954
   1976886.35548   1542432.93946  20943995.1334                   20943995.5514
   3045179.66446   2368589.06642  23865766.4694                   23865768.1914
   -791374.64848   -599020.21446  20767762.7194                   20767761.9024
   2103983.48046   1639787.46044  23203466.6644                   23203468.8324
   1652183.62547   1291864.16744  23569284.1804                   23569288.1454
   -867505.15248   -658202.44646  21242866.8364                   21242865.5314
 11  9 27 17 54 30.0000000  0  8G04G07G08G11G17G24G26G28
  -4401431.94947  -3394837.65244  22864733.1954                   22864736.8984
   3357275.79347   2609926.02744  23264890.0554                   23264893.9734
   1949303.93048   1520940.05546  20938746.0864                   20938747.1524
   3043022.92646   2366908.42243  23865356.6484                   23865357.4734
   -900917.60248   -684378.34546  20746917.4844                   20746916.9494
   2078297.11747   1619772.04644  23198578.8524                   23198581.0824
   1612419.72747   1260879.18444  23561717.2274                   23561720.3164
   -983045.97748   -748234.23746  21220880.0944                   21220878.4924
 11  9 27 17 55  0.0000000  0  8G04G07G08G11G17G24G26G28
  -4612832.98847  -3559565.56644  22824504.2974                   22824508.7974
   3363403.82846   2614700.85744  23266056.9064                   23266060.0084
   1922093.48047   1499737.02146  20933568.7734                   20933569.3134
   3040963.83646   2365303.83743  23864964.6254                   23864965.9534
  -1010280.34448   -769596.04246  20726106.2734                   20726105.5704
   2052886.18846   1599971.24444  23193743.5394                   23193745.7234
   1572847.04347   1230043.23844  23554187.4384                   23554190.1134
  -1098591.39547   -838269.61946  21198892.7114                   21198891.1884
 11  9 27 17 55 30.0000000  0  8G04G07G08G11G17G24G26G28
  -4824201.84047  -3724268.39644  22784282.4064                   22784286.6644
   3369606.87546   2619534.14244  23267236.8134                   23267240.9964
   1895255.71947   1478824.37646  20928460.9774                   20928461.8914
   3039002.25846   2363775.22643  23864591.8594                   23864592.7584
  -1119461.21948   -854672.03946  20705329.8834                   20705329.0394
   2027750.80146   1580385.18344  23188960.7034                   23188963.0554
   1533464.82047   1199355.68644  23546692.3984                   23546696.0234
  -1214137.37547   -928305.43746  21176904.6484                   21176903.6454
 11  9 27 17 56  0.0000000  0  8G04G07G08G11G17G24G26G28
  -5035534.18047  -3888942.79544  22744067.1644                   22744070.9304
   3375884.23847   2624425.32344  23268432.1644                   23268435.7464
   1868790.02048   1458201.67246  20923424.8054                   20923425.3484
   3037137.37946   2362322.01443  23864237.2194                   23864238.3954
  -1228459.83248   -939606.01046  20684587.9534                   20684587.6134
   2002890.29747   1561013.30644  23184229.6954                   23184232.1954
   1494271.87147   1168815.61344  23539234.4454                   23539237.9614
  -1329681.16048  -1018339.54546  21154917.8134                   21154916.3204
 11  9 27 17 56 30.0000000  0  8G04G07G08G11G17G24G26G28
  -5246823.14147  -4053583.36944  22703860.1804                   22703863.9184
   3382237.29347   2629375.47644  23269641.3674                   23269645.3484
   1842698.00848   1437870.14146  20918459.9144                   20918460.5004
   3035370.18447   2360944.87243  23863900.7504                   23863902.0354
  -1337273.23848  -1024395.65446  20663881.5704                   20663880.9574
   1978306.02346   1541856.67944  23179551.6884                   23179553.7734
   1455268.73447   1138423.42044  23531813.0314                   23531816.5164
  -1445217.68048  -1108367.99746  21132932.0394                   21132930.5204
 11  9 27 17 57  0.0000000  0  8G04G07G08G11G17G24G26G28
  -5458059.33647  -4218182.83844  22663663.0864                   22663667.1454
   3388669.87947   2634387.56844  23270865.2034                   23270870.2304
   1816984.41448   1417833.47746  20913566.9534                   20913567.9304
   3033704.81347   2359647.13544  23863583.5554                   23863585.3714
  -1445896.37948  -1109037.05446  20643210.9924                   20643210.3404
   1954001.96947   1522918.40944  23174926.8754                   23174928.9304
   1416458.60547   1108181.68944  23524427.2894                   23524430.6564
  -1560739.44948  -1198384.94946  21110948.7734                   21110947.4224
 11  9 27 17 57 30.0000000  0  8G04G07G08G11G17G24G26G28
  -5669239.69147  -4382738.78844  22623476.6564                   22623480.6604
   3395179.78547   2639459.95644  23272104.3284                   23272108.9494
   1791647.64548   1398090.45946  20908745.4924                   20908746.3984
   3032138.64547   2358426.67744  23863285.7344                   23863287.7584
  -1554330.05148  -1193530.80046  20622576.9384                   20622576.2974
   1929976.27347   1504197.02244  23170354.7424                   23170357.8634
   1377838.75847   1078088.13343  23517078.8674                   23517081.8324
  -1676244.47748  -1288388.85446  21088968.6644                   21088967.5984
 11  9 27 17 58  0.0000000  0  8G04G07G08G11G17G24G26G28
  -4304930.84447  -3319640.82244  22883095.6414                   22883099.4654
   4977187.30547   3872192.80544  23573150.4774                   23573155.3954
   3342109.82847   2606242.70346  21203788.8364                   21203789.2934
   4606092.35547   3584884.00344  24162799.7584                   24162801.4304
    -87148.72748    -50272.62646  20901772.4064                   20901771.3634
   3481650.37146   2713293.66344  23465628.9694                   23465631.2504
   2914830.57846   2275744.02444  23809557.9144                   23809562.0634
   -216304.75448   -150773.48846  21366786.0704                   21366784.7194
 11  9 27 17 58 30.0000000  0  8G04G07G08G11G17G24G26G28
  -4515984.19547  -3484097.81744  22842933.5634                   22842937.4804
   4983850.24646   3877384.43544  23574418.1564                   23574423.7974
   3317526.65647   2587086.90546  21199111.0784                   21199111.9184
   4604723.21947   3583817.06644  24162539.0474                   24162540.7234
   -195200.77048   -134469.00246  20881210.6564                   20881209.9884
   3458180.04746   2695005.05644  23461162.0554                   23461165.2814
   2876587.84446   2245944.36543  23802281.0554                   23802285.0704
   -331766.66847   -240743.80646  21344814.6724                   21344813.3754
 11  9 27 17 59  0.0000000  0  8G04G07G08G11G17G24G26G28
  -4726967.86747  -3648500.49944  22802784.8054                   22802788.2894
   4990588.00447   3882634.30144  23575701.1884                   23575706.0984
   3293318.87147   2568223.59246  21194504.5394                   21194505.3984
   4603450.40647   3582825.17344  24162296.2734                   24162298.3484
   -303061.81648   -218516.56246  20860685.2034                   20860684.3164
   3434985.53546   2676931.30344  23456748.2974                   23456751.4144
   2838530.83647   2216289.45444  23795038.3834                   23795042.9884
   -447203.48047   -330694.56146  21322847.6484                   21322846.4104
 11  9 27 17 59 30.0000000  0  8G04G07G08G11G17G24G26G28
  -4937875.14847  -3812843.67244  22762650.3594                   22762654.1094
   4997401.65646   3887943.31744  23576998.1804                   23577002.7114
   3269488.08647   2549654.05346  21189969.7114                   21189970.5594
   4602275.28946   3581909.40643  24162073.3284                   24162074.4574
   -410729.20348   -302413.20446  20840196.7814                   20840196.1134
   3412068.29746   2659073.64044  23452387.7344                   23452390.2664
   2800660.13347   2186779.66544  23787832.3054                   23787836.5554
   -562609.97348   -420621.67846  21300886.4534                   21300884.9614
 11  9 27 18  0  0.0000000  0  8G04G07G08G11G17G24G26G28
  -5148702.53147  -3977124.57544  22722531.0164                   22722534.7624
   5004289.12946   3893309.88744  23578308.4064                   23578314.1454
   3246032.85948   2531377.15746  21185506.5164                   21185507.4184
   4601195.71546   3581068.09743  24161867.9384                   24161869.0784
   -518203.57048   -386159.45146  20819745.4144                   20819744.6724
   3389426.57447   2641430.68644  23448078.9144                   23448081.8914
   2762973.14846   2157413.05944  23780660.1804                   23780664.7384
   -677984.09448   -510523.58046  21278931.7274                   21278930.2424
 11  9 27 18  0 30.0000000  0  8G04G07G08G11G17G24G26G28
  -5359447.42247  -4141341.22544  22682427.0164                   22682431.0394
   5011247.62546   3898731.70844  23579633.4384                   23579638.7504
   3222950.57448   2513390.86746  21181114.1724                   21181115.1604
   4600208.84646   3580298.95943  24161679.8524                   24161681.5354
   -625486.58648   -469756.59246  20799329.9614                   20799329.2974
   3367057.59447   2624000.25744  23443822.2584                   23443825.4104
   2725466.35547   2128186.80544  23773523.2664                   23773527.4384
   -793324.93048   -600399.54446  21256982.7814                   21256981.3914
 11  9 27 18  1  0.0000000  0  8G04G07G08G11G17G24G26G28
  -5570102.45347  -4305487.83844  22642340.8914                   22642345.1134
   5018279.12946   3904210.49944  23580971.4694                   23580977.1094
   3200243.62548   2495697.05446  21176793.3754                   21176794.0864
   4599316.33246   3579603.43842  24161510.3364                   24161512.1684
   -732574.63348   -553201.81046  20778951.8594                   20778951.0744
   3344963.32846   2606783.87143  23439618.1724                   23439620.6134
   2688140.96547   2099101.95744  23766421.4064                   23766425.6524
   -908627.14548   -690245.41846  21235041.6024                   21235040.4224
 11  9 27 18  1 30.0000000  0  8G04G07G08G11G17G24G26G28
  -5780660.84847  -4469559.16644  22602272.9924                   22602276.4774
   5025384.46546   3909746.80044  23582323.8204                   23582329.8204
   3177913.48448   2478296.85146  21172543.8984                   21172544.8874
   4598519.44146   3578982.37942  24161359.3674                   24161360.4964
   -839465.38348   -636493.28946  20758611.3134                   20758610.1994
   3323144.68846   2589782.24843  23435466.2194                   23435469.3164
   2650997.47647   2070158.81844  23759352.5474                   23759357.0944
  -1023885.32848   -780056.97946  21213108.4694                   21213107.1484
 11  9 27 18  2  0.0000000  0  8G04G07G08G11G17G24G26G28
  -5991118.82047  -4633552.21745  22562224.2424                   22562227.7034
   5032562.64547   3915339.86244  23583690.0864                   23583695.6884
   3155959.31348   2461189.59946  21168366.4924                   21168367.4224
   4597816.66046   3578434.68042  24161223.9304                   24161225.8634
   -946158.75848   -719630.95346  20738308.3284                   20738307.1374
   3301600.59046   2572994.60244  23431366.9694                   23431369.5274
   2614034.03947   2041356.03744  23752319.5314                   23752323.3284
  -1139096.93748   -869832.24346  21191184.6094                   21191183.2034
 11  9 27 18  2 30.0000000  0  8G04G07G08G11G17G24G26G28
  -6201474.55547  -4797465.64544  22522194.2814                   22522198.0634
   5039809.50847   3920986.46644  23585069.3364                   23585074.6644
   3134377.18848   2444372.26346  21164259.2664                   21164260.6454
   4597203.88346   3577957.08242  24161108.0554                   24161109.5944
  -1052657.51648   -802616.98246  20718042.1564                   20718041.1524
   3280327.14846   2556417.82644  23427318.6094                   23427321.2584
   2577245.93847   2012689.82644  23745319.1334                   23745323.4844
  -1254262.43748   -959571.60546  21169269.1884                   21169267.7304
 11  9 27 18  3  0.0000000  0  8G04G07G08G11G17G24G26G28
  -6411723.35547  -4961295.72745  22482185.5314                   22482188.6174
   5047124.54747   3926686.15244  23586461.5164                   23586466.7774
   3113166.91448   2427844.67446  21160223.4844                   21160224.3594
   4596680.50046   3577549.18042  24161008.8364                   24161010.3284
  -1158961.14848   -885450.94846  20697813.0004                   20697812.3714
   3259323.87546   2540051.57144  23423321.8364                   23423324.5394
   2540631.66047   1984159.09244  23738351.6644                   23738356.0394
  -1369378.54748  -1049272.45446  21147363.3594                   21147361.8674
 11  9 27 18  3 30.0000000  0  8G04G07G08G11G17G24G26G28
  -6621859.24647  -5125037.83544  22442197.4844                   22442201.1174
   5054507.96947   3932439.13444  23587866.7894                   23587872.8014
   3092329.17648   2411607.37046  21156257.8984                   21156259.1884
   4596247.06646   3577211.35343  24160926.4694                   24160928.1644
  -1265067.62548   -968131.30946  20677621.6484                   20677620.6524
   3238591.09447   2523896.08644  23419376.5474                   23419379.6374
   2504191.08647   1955763.67444  23731417.2814                   23731421.8984
  -1484440.76648  -1138931.33846  21125467.7424                   21125466.3954
 11  9 27 18  4  0.0000000  0  8G04G07G08G11G17G24G26G28
  -6831877.55147  -5288688.28945  22402232.3984                   22402235.8364
   5061959.16447   3938244.93044  23589284.9534                   23589290.6564
   3071863.23848   2395659.79846  21152363.7114                   21152364.9024
   4595902.84846   3576943.18143  24160861.3914                   24160863.0824
  -1370976.10948  -1050657.38046  20657467.7974                   20657466.9344
   3218128.07447   2507950.78744  23415483.0944                   23415485.5044
   2467923.01247   1927502.66844  23724515.9304                   23724520.5744
  -1599445.78548  -1228545.62746  21103582.8204                   21103581.6604
 11  9 27 18  4 30.0000000  0  8G04G07G08G11G17G24G26G28
  -7041776.92647  -5452246.12145  22362289.8594                   22362293.4494
   5069474.21947   3944100.50944  23590715.5784                   23590721.0744
   3051765.62548   2379999.22646  21148539.1804                   21148540.4884
   4595643.56346   3576741.02243  24160812.2894                   24160814.2384
  -1476689.65648  -1133031.54946  20637351.3364                   20637350.3794
   3197930.97747   2492212.74343  23411638.9694                   23411642.1094
   2431822.44947   1899372.20544  23717646.0634                   23717650.9304
  -1714394.16848  -1318115.78646  21081709.0474                   21081707.7544
 11  9 27 18  5  0.0000000  0  8G04G07G08G11G17G24G26G28
  -7251552.03547  -5615707.08345  22322370.8984                   22322374.1914
   5077052.34446   3950005.19044  23592157.1174                   23592163.8674
   3032035.89548   2364625.31146  21144785.0474                   21144786.3164
   4595468.96546   3576604.85143  24160779.1094                   24160780.7544
  -1582207.30148  -1215253.07646  20617271.8594                   20617270.8094
   3177999.46947   2476681.68544  23407847.1334                   23407849.3364
   2395888.58247   1871371.63444  23710808.1954                   23710812.4104
  -1829282.24248  -1407638.96346  21059846.5784                   21059844.9654
 11  9 27 18  5 30.0000000  0  8G04G07G08G11G17G24G26G28
  -5885774.80947  -4551464.93745  22582269.3914                   22582272.7664
   6660109.26647   5183555.66844  23893404.0704                   23893409.4734
   4588091.10548   3577135.75946  21440892.0394                   21440893.6484
   6170794.66047   4804131.31243  24460553.4224                   24460554.9654
   -112108.11348    -69721.22646  20897022.4144                   20897021.6804
   4733749.93047   3688954.68844  23703896.0164                   23703898.7034
   3935537.76647   3071098.13844  24003794.5164                   24003798.1764
   -368686.50048   -269512.41046  21337788.6254                   21337787.0704
 11  9 27 18  6  0.0000000  0  8G04G07G08G11G17G24G26G28
  -6095292.33647  -4714725.18445  22542399.4454                   22542402.5784
   6667807.05546   5189553.59044  23894868.5394                   23894874.0634
   4569091.14848   3562330.49745  21437276.8914                   21437278.5704
   6170782.15246   4804121.51143  24460551.0164                   24460552.9574
   -217236.59848   -151639.51546  20877017.0314                   20877016.6884
   4714342.42647   3673831.92743  23700203.4224                   23700205.7424
   3899928.03147   3043350.15744  23997017.8284                   23997021.7274
   -483449.35548   -358937.99646  21315950.1884                   21315948.8874
 11  9 27 18  6 30.0000000  0  8G04G07G08G11G17G24G26G28
  -6304674.14847  -4877879.68945  22502555.1804                   22502558.4494
   6675563.06346   5195596.86944  23896344.7504                   23896351.1294
   4550455.01648   3547808.71745  21433730.6484                   21433732.1254
   6170849.34446   4804173.78143  24460563.6884                   24460565.8594
   -322170.28548   -233406.01446  20857048.9774                   20857048.0594
   4695195.62947   3658912.27143  23696559.2034                   23696562.6024
   3864478.06347   3015726.62243  23990271.8754                   23990276.3094
   -598145.14148   -448311.32646  21294124.1414                   21294122.6884
 11  9 27 18  7  0.0000000  0  8G04G07G08G11G17G24G26G28
  -6513915.73847  -5040924.94445  22462737.8284                   22462740.9884
   6683376.42247   5201684.85244  23897832.1804                   23897838.0554
   4532182.25448   3533570.09545  21430253.0784                   21430254.8714
   6170995.53146   4804287.60943  24460590.8284                   24460593.7504
   -426908.39848   -315020.11446  20837117.9224                   20837116.6804
   4676308.69547   3644195.09744  23692965.7974                   23692967.8954
   3829186.21147   2988226.35143  23983555.6094                   23983560.6764
   -712770.78148   -537629.99946  21272311.7974                   21272309.9494
 11  9 27 18  7 30.0000000  0  8G04G07G08G11G17G24G26G28
  -6723013.32447  -5203857.97345  22422947.8204                   22422950.7894
   6691245.54347   5207816.22044  23899329.6644                   23899336.0784
   4514271.21547   3519613.32545  21426845.0084                   21426846.4884
   6171218.62145   4804461.39843  24460633.8914                   24460635.8984
   -531451.37948   -396482.15646  20817223.9064                   20817223.3984
   4657679.82047   3629679.08143  23689420.2894                   23689423.2624
   3794050.10946   2960847.42643  23976869.9064                   23976874.6094
   -827324.11348   -626892.33446  21250512.8284                   21250511.4844
 11  9 27 18  8  0.0000000  0  8G04G07G08G11G17G24G26G28
  -6931964.91047  -5366677.23145  22383185.6644                   22383188.7814
   6699167.09447   5213988.44644  23900837.3204                   23900844.1524
   4496718.40648   3505935.68945  21423505.1254                   21423506.5784
   6171515.29746   4804692.43443  24460690.1414                   24460692.0474
   -635801.12548   -477793.64346  20797366.9064                   20797366.1484
   4639305.52746   3615361.38343  23685924.5864                   23685926.5354
   3759065.57446   2933586.59843  23970211.8134                   23970216.7234
   -941804.45748   -716097.79346  21228728.0944                   21228726.5704
 11  9 27 18  8 30.0000000  0  8G04G07G08G11G17G24G26G28
  -7140765.39147  -5529378.78145  22343451.7424                   22343454.6254
   6707140.35547   5220201.02144  23902355.5554                   23902361.6994
   4479523.73847   3492537.12245  21420233.0944                   21420234.6604
   6171885.30546   4804980.68743  24460760.5864                   24460762.7894
   -739956.90648   -558953.97746  20777546.7664                   20777545.6884
   4621185.59846   3601241.90443  23682475.6254                   23682478.1684
   3724231.84046   2906443.23743  23963583.3054                   23963586.8714
  -1056208.30148   -805243.62946  21206957.5314                   21206956.2584
 11  9 27 18  9  0.0000000  0  8G04G07G08G11G17G24G26G28
  -7349407.23047  -5691956.67645  22303748.9064                   22303751.2934
   6715167.50047   5226455.53844  23903882.7504                   23903889.3594
   4462689.21147   3479419.18845  21417029.6484                   21417031.2234
   6172330.87945   4805327.77843  24460845.1094                   24460847.8984
   -843915.19548   -639960.42946  20757764.2344                   20757763.0984
   4603322.05946   3587322.18143  23679076.5784                   23679079.1294
   3689549.87546   2879418.21643  23956984.4064                   23956989.1644
  -1170530.07448   -894325.53746  21185202.8134                   21185201.6214
 11  9 27 18  9 30.0000000  0  8G04G07G08G11G17G24G26G28
  -7557886.41447  -5854407.83345  22264076.5004                   22264079.4024
   6723247.08647   5232750.88844  23905420.7114                   23905426.8324
   4446213.50047   3466580.85545  21413894.5704                   21413895.9694
   6172850.26645   4805732.43043  24460945.8054                   24460946.7854
   -947676.44148   -720813.33046  20738018.7734                   20738018.2544
   4585713.32046   3573601.03843  23675725.9304                   23675728.3014
   3655017.69146   2852509.84043  23950412.6254                   23950417.8164
  -1284767.04748   -983341.34646  21163464.4774                   21163462.8714
 11  9 27 18 10  0.0000000  0  8G04G07G08G11G17G24G26G28
  -7766196.96147  -6016727.58645  22224436.0314                   22224438.9264
   6731379.57447   5239087.54244  23906968.9304                   23906974.7974
   4430097.30947   3454022.64045  21410828.0474                   21410829.3164
   6173444.19546   4806195.12543  24461057.4774                   24461059.6414
  -1051238.58248   -801511.09646  20718311.5704                   20718310.9384
   4568359.89846   3560078.80743  23672422.9304                   23672426.1414
   3620634.90246   2825717.84643  23943870.0634                   23943874.9454
  -1398914.61748  -1072287.50546  21141742.7814                   21141741.3444
 11  9 27 18 10 30.0000000  0  8G04G07G08G17G24G26G28G20
  -7974333.78147  -6178911.98545  22184828.5704                   22184831.5234
   6739564.62946   5245465.08244  23908526.1334                   23908532.9104
   4414340.39548   3441744.39445  21407829.8284                   21407831.2974
  -1154600.43048   -882052.79746  20698642.7274                   20698641.8674
   4551261.55146   3546755.36943  23669169.8524                   23669173.0474
   3586401.08247   2799041.98443  23937356.2814                   23937360.3594
  -1512968.95348  -1161161.00446  21120038.6414                   21120037.5124
   6145085.89556   4797143.76652  24561343.5554                   24561346.5474
 11  9 27 18 11  0.0000000  0  8G04G07G08G17G24G26G28G20
  -8182295.60547  -6340960.00945  22145254.3984                   22145257.4454
   6747797.90246   5251880.19843  23910093.4454                   23910100.3634
   4398938.54748   3429742.82345  21404898.8754                   21404900.5984
  -1257765.56648   -962441.19846  20679010.8914                   20679010.1054
   4534413.92246   3533627.27643  23665963.9304                   23665967.1024
   3552310.77047   2772477.89343  23930869.5234                   23930873.5234
  -1626930.97748  -1249962.56846  21098352.6644                   21098351.2074
   5997541.04346   4682173.85443  24533267.8914                   24533270.2194
 11  9 27 18 11 30.0000000  0  8G04G07G08G17G24G26G28G20
  -8390080.38347  -6502870.07745  22105714.3364                   22105717.4064
   6756076.14546   5258330.37443  23911669.1644                   23911675.6484
   4383888.37547   3418015.28645  21402035.2114                   21402036.4964
  -1360735.56247  -1042677.55746  20659416.3134                   20659415.4534
   4517813.82846   3520691.99843  23662804.6094                   23662808.4224
   3518359.99647   2746022.59544  23924408.9924                   23924413.4494
  -1740799.71948  -1338691.46046  21076684.3284                   21076682.7274
   5850181.64846   4567348.59243  24505224.5004                   24505228.7734
 11  9 27 18 12  0.0000000  0  8G04G07G08G17G24G26G28G20
  -8597675.91047  -6664632.68045  22066210.1414                   22066213.1644
   6764406.12146   5264820.85943  23913254.4384                   23913261.4144
   4369196.62547   3406567.03545  21399239.4144                   21399241.1254
  -1463502.74648  -1122755.88146  20639860.4774                   20639859.6174
   4501467.59046   3507954.61443  23659694.4144                   23659697.5434
   3484554.85547   2719680.79244  23917976.5704                   23917981.8674
  -1854564.74248  -1427339.52946  21055035.5164                   21055033.7154
   5703019.52346   4452676.84443  24477220.7344                   24477224.6484
 11  9 27 18 12 30.0000000  0  8G04G07G08G17G24G26G28G20
  -8805074.87147  -6826242.09645  22026743.2194                   22026746.1684
   6772789.52746   5271352.96343  23914850.4304                   23914857.1334
   4354865.46547   3395399.77445  21396512.1564                   21396513.8754
  -1566063.35948  -1202673.22746  20620343.7114                   20620343.0784
   4485377.26246   3495416.61744  23656632.4454                   23656636.0664
   3450896.70747   2693453.46844  23911570.9844                   23911576.2504
  -1968220.05548  -1515902.10446  21033407.4774                   21033405.9414
   5556061.82446   4338164.49642  24449256.3284                   24449260.1844
 11  9 27 18 13  0.0000000  0  8G04G07G08G17G24G26G28G20
  -7436845.15247  -5760088.94945  22287108.7664                   22287111.3554
   8356645.66446   6505526.13043  24216248.5234                   24216255.6374
   5916314.74247   4612113.36945  21693646.2814                   21693647.9024
    -92993.56648    -54826.63446  20900659.5164                   20900658.9144
   6044962.92246   4710678.10444  23953411.9454                   23953415.1644
   4992805.39147   3894940.55744  24204987.3054                   24204991.9774
   -506338.19948   -376773.37646  21311594.4614                   21311592.9654
   6984738.25046   5451418.98842  24721124.3594                   24721127.7544
 11  9 27 18 13 30.0000000  0  8G04G07G08G17G24G26G28G20
  -7643835.96547  -5921380.35445  22247719.6484                   22247722.2384
   8365134.38346   6512140.28943  24217863.4534                   24217871.4534
   5902702.95347   4601506.66945  21691056.0784                   21691058.0704
   -195139.50447   -134420.86946  20881221.9454                   20881221.1764
   6029382.63746   4698537.50744  23950447.4304                   23950450.4104
   4959437.35947   3868939.33244  24198637.3914                   24198642.6804
   -619763.60548   -465156.80746  21290010.1884                   21290008.8444
   6838203.20346   5337235.89643  24693239.0784                   24693242.4654
 11  9 27 18 14  0.0000000  0  8G04G07G08G17G24G26G28G20
  -7850620.53147  -6082511.04045  22208369.3204                   22208371.9694
   8373670.04746   6518791.04943  24219488.5394                   24219496.4924
   5889445.07447   4591175.70845  21688533.5084                   21688535.1484
   -297081.93048   -213856.52046  20861822.8054                   20861822.0784
   6014051.38747   4686591.02744  23947530.1724                   23947533.0234
   4926207.57847   3843045.75644  24192314.6644                   24192320.0314
   -733074.06248   -553450.67746  21268448.0164                   21268446.3324
   6691881.47346   5223219.14842  24665395.0944                   24665398.3714
 11  9 27 18 14 30.0000000  0  8G04G07G08G17G24G26G28G20
  -8057196.81647  -6243479.44245  22169059.4694                   22169061.9304
   8382248.97746   6525475.50744  24221121.9454                   24221128.8094
   5876537.46147   4581117.70645  21686077.3134                   21686079.3324
   -398822.98048   -293135.26246  20842462.3674                   20842461.5394
   5998965.66847   4674835.87344  23944659.7894                   23944662.8874
   4893111.50047   3817256.42444  24186016.1804                   24186022.2114
   -846269.03148   -641654.54546  21246907.7274                   21246906.4264
   6545774.52746   5109369.72243  24637592.1954                   24637595.2464
 11  9 27 18 15  0.0000000  0  8G04G07G08G17G24G26G28G20
  -8263556.48447  -6404279.03645  22129790.7734                   22129792.9304
   8390874.22346   6532195.99144  24222762.9924                   24222770.5164
   5863983.19147   4571335.03345  21683688.4304                   21683690.0354
   -500358.19548   -372253.60146  20823141.1024                   20823139.7274
   5984128.69147   4663274.50444  23941836.2504                   23941839.0594
   4860152.01647   3791573.50944  24179743.9614                   24179749.9844
   -959341.52348   -729762.98446  21225391.0554                   21225389.3954
   6399890.69146   4995694.06943  24609830.3674                   24609834.5434
 11  9 27 18 15 30.0000000  0  8G04G07G08G17G24G26G28G20
  -8469699.12147  -6564909.52545  22090562.8444                   22090564.8204
   8399540.44946   6538948.42144  24224412.2584                   24224420.2664
   5851776.95347   4561823.54645  21681365.4384                   21681367.8094
   -601691.93048   -451214.94846  20803857.7114                   20803856.6054
   5969534.79346   4651902.58644  23939059.0554                   23939061.7664
   4827322.63747   3765991.94444  24173497.3524                   24173502.7584
  -1072292.70748   -817776.89146  21203896.7034                   21203894.9964
   6254229.74646   4882192.14943  24582112.2114                   24582116.1134
 11  9 27 18 16  0.0000000  0  8G04G07G08G17G24G26G28G20
  -8675621.90647  -6725368.71145  22051377.0314                   22051379.1804
   8408245.18046   6545730.88644  24226069.6024                   24226076.8284
   5839915.85947   4552581.01645  21679108.4694                   21679110.4844
   -702825.04348   -530019.97246  20784612.8134                   20784611.9924
   5955181.84847   4640718.43943  23936328.1174                   23936330.5744
   4794620.55146   3740509.61543  24167274.7504                   24167279.9574
  -1185121.00048   -905695.06246  21182426.6644                   21182424.9304
   6108794.40246   4768866.04343  24554436.7114                   24554441.1094
 11  9 27 18 16 30.0000000  0  8G04G07G08G17G24G26G28G20
  -8881321.92247  -6885654.29645  22012233.1334                   22012235.7464
   8416985.96546   6552541.40544  24227733.0864                   24227741.9574
   5828397.68847   4543605.69445  21676916.7734                   21676919.1374
   -803758.96948   -608669.79046  20765405.4844                   20765404.9384
   5941067.11346   4629719.87543  23933642.3984                   23933645.0234
   4762042.48846   3715123.88443  24161074.4384                   24161081.0124
  -1297825.30148   -993516.59946  21160979.3754                   21160977.6604
   5963587.33246   4655717.77743  24526805.3834                   24526808.2704
 11  9 27 18 17  0.0000000  0  8G04G07G08G17G24G26G28G20
  -9086796.55147  -7045764.25345  21973133.0704                   21973134.9414
   8425760.52346   6559378.26643  24229403.3284                   24229411.0204
   5817219.66447   4534895.40745  21674789.4844                   21674791.8984
   -904494.99648   -687165.38946  20746235.8754                   20746235.0594
   5927187.69546   4618904.65643  23931000.9304                   23931003.4924
   4729584.92246   3689832.06343  24154898.3524                   24154904.9694
  -1410403.69148  -1081240.04446  21139556.3984                   21139555.2234
   5818610.72745   4542749.07442  24499216.7504                   24499219.7934
 11  9 27 18 17 30.0000000  0  8G04G07G08G17G24G26G28G20
  -9292041.50047  -7205695.27045  21934075.7424                   21934077.8794
   8434566.62946   6566239.71543  24231079.4454                   24231087.5434
   5806380.22747   4526448.97145  21672727.0004                   21672729.4574
  -1005033.30548   -765506.92946  20727104.4384                   20727103.3014
   5913541.98446   4608271.64443  23928404.1884                   23928407.0744
   4697245.96146   3664632.66643  24148744.6644                   24148750.9574
  -1522854.45748  -1168864.03146  21118157.7584                   21118156.2934
   5673868.43045   4429963.00443  24471673.6804                   24471676.1764
 11  9 27 18 18  0.0000000  0  8G04G07G08G17G24G26G28G20
  -9497052.48048  -7365443.95345  21895063.2034                   21895065.5474
   8443403.50446   6573125.16343  24232760.1484                   24232769.8484
   5795878.54747   4518265.72145  21670729.1334                   21670731.2734
  -1105373.64848   -843694.19946  20708009.9694                   20708009.3674
   5900129.09846   4597819.94443  23925851.0474                   23925854.9024
   4665023.73446   3639524.20943  24142613.8284                   24142619.3244
  -1635173.97748  -1256385.74246  21096784.3524                   21096782.3954
   5529364.27346   4317362.49043  24444174.7034                   24444178.4694
 11  9 27 18 18 30.0000000  0  8G04G07G08G17G24G26G28G20
  -9701829.58648  -7525010.38545  21856095.4064                   21856097.6254
   8452265.90646   6580030.36543  24234447.1174                   24234456.4024
   5785708.77347   4510341.09045  21668793.8284                   21668796.0354
  -1205520.10248   -921730.38746  20688952.7424                   20688952.0394
   5886943.35946   4587545.22843  23923342.7274                   23923344.8524
   4632912.27346   3614502.10743  24136503.0314                   24136508.2154
  -1747363.91048  -1343806.48146  21075435.2664                   21075433.6054
   5385098.15645   4204947.41043  24416721.7734                   24416725.4884
 11  9 27 18 19  0.0000000  0  8G04G07G08G17G24G26G28G20
  -9906365.56247  -7684388.94145  21817173.7734                   21817175.7664
   8461155.93046   6586957.23143  24236140.1334                   24236149.3594
   5775872.30947   4502676.17245  21666922.3284                   21666924.3794
  -1305469.29748   -999612.86846  20669933.1414                   20669932.2734
   5873986.65646   4577449.01843  23920877.3524                   23920879.6604
   4600912.81346   3589567.20943  24130414.0474                   24130419.3444
  -1859418.39548  -1431121.67246  21054111.8594                   21054110.3444
   5241077.15645   4092723.45243  24389314.9534                   24389318.9574
 11  9 27 18 19 30.0000000  0  8G04G07G08G17G24G26G28G20
 -10110657.20748  -7843577.11945  21778298.0634                   21778299.8324
   8470070.72346   6593903.39943  24237836.2424                   24237845.2934
   5766367.04347   4495269.33545  21665113.2814                   21665115.8284
  -1405222.49248  -1077342.62446  20650950.6254                   20650949.8204
   5861256.75046   4567529.48843  23918455.1094                   23918457.6484
   4569022.05947   3564717.12143  24124345.6024                   24124350.9844
  -1971335.58248  -1518329.87546  21032814.9614                   21032813.2774
   5097303.84846   3980692.36043  24361956.0394                   24361958.9494
 11  9 27 18 20  0.0000000  0  8G04G07G08G17G24G26G28G20
 -10314699.64847  -8002571.10845  21739469.6334                   21739472.0944
   8479010.08246   6600868.64143  24239538.9774                   24239547.3634
   5757192.41447   4488120.14345  21663367.7664                   21663369.7814
  -1504779.00048  -1154919.11446  20632005.5554                   20632005.1884
   5848753.35246   4557786.48843  23916075.2344                   23916079.0784
   4537239.20347   3539951.05043  24118298.3524                   24118303.2934
  -2083111.87548  -1605428.28946  21011544.5314                   21011542.7344
   4953782.98845   3868858.00543  24334644.8524                   24334648.3594
 11  9 27 18 20 30.0000000  0  8G04G07G08G17G24G26G28G20
  -8943061.98447  -6933762.40045  22000483.6644                   22000485.8054
  10063392.31646   7835451.75643  24541037.1484                   24541045.6214
   7323767.02347   5708827.50045  21961476.7194                   21961479.3094
    -28715.39848     -4739.68246  20912891.0554                   20912890.2234
   7411895.14146   5775819.04043  24213531.1414                   24213534.7194
   6080982.95746   4742868.04943  24412062.2034                   24412067.6684
   -619321.12148   -464812.11146  21290094.5704                   21290093.0354
   6385942.99646   4984826.97243  24607176.0394                   24607179.2894
 11  9 27 18 21  0.0000000  0  8G04G07G08G17G24G26G28G20
  -9146593.60947  -7092358.32845  21961752.9224                   21961755.1414
  10072376.98246   7842452.36043  24542746.8134                   24542755.3594
   7315249.07847   5702190.00245  21959856.2894                   21959858.7854
   -127878.16848    -82009.35846  20894021.1804                   20894020.1134
   7399840.08246   5766425.38243  24211237.6564                   24211240.6994
   6049409.67647   4718265.27043  24406054.7814                   24406060.3204
   -730807.68048   -551684.75546  21268879.4064                   21268877.9144
   6242938.01246   4873394.58943  24579962.4694                   24579966.6644
 11  9 27 18 21 30.0000000  0  8G04G07G08G17G24G26G28G20
  -9349862.37947  -7250749.45045  21923072.1024                   21923074.3794
  10081383.64146   7849470.03643  24544460.6094                   24544469.9184
   7307058.71147   5695807.75845  21958297.8524                   21958299.9454
   -226842.60548   -159124.50546  20875189.0164                   20875188.0394
   7388008.43047   5757205.82844  24208986.1644                   24208989.3404
   6017939.73446   4693743.01943  24400066.1414                   24400071.9104
   -842143.93748   -638440.28546  21247692.8914                   21247691.0394
   6100198.02345   4762168.65343  24552799.5234                   24552803.2464
 11  9 27 18 22  0.0000000  0  8G04G07G08G17G24G26G28G20
  -9552864.70347  -7408932.95945  21884441.8134                   21884444.0234
  10090410.39546   7856503.46743  24546179.0004                   24546188.1334
   7299193.50847   5689678.88445  21956801.0864                   21956803.3134
   -325609.55548   -236085.76646  20856394.0784                   20856393.6174
   7376398.25447   5748158.89444  24206777.1174                   24206779.7114
   5986570.29347   4669299.07743  24394097.2114                   24394102.8444
   -953327.94948   -725077.17146  21226535.1724                   21226533.5314
   5957725.80945   4651151.51043  24525688.2114                   24525691.7584
 11  9 27 18 22 30.0000000  0  8G04G07G08G17G24G26G28G20
  -9755597.58247  -7566906.49645  21845863.2504                   21845864.8554
  10099454.96946   7863550.76343  24547900.3984                   24547909.5084
   7291651.53147   5683801.86545  21955366.2424                   21955368.2894
   -424180.06248   -312893.93046  20837636.8444                   20837635.8874
   7365006.96147   5739282.45843  24204609.7504                   24204612.2624
   5955298.72747   4644931.36343  24388146.7194                   24388152.5984
  -1064357.87548   -811593.99346  21205407.2344                   21205405.9104
   5815524.64545   4540345.51343  24498628.1804                   24498631.7974
 11  9 27 18 23  0.0000000  0  8G04G07G08G17G24G26G28G20
  -9958059.59847  -7724668.99145  21807335.4694                   21807337.7544
  10108513.70346   7870609.03743  24549624.7194                   24549634.0044
   7284428.61747   5678173.49545  21953991.7114                   21953993.7274
   -522556.30548   -389550.74546  20818916.2974                   20818915.3874
   7353830.78147   5730573.70244  24202483.1414                   24202486.1374
   5924120.37146   4620636.32043  24382212.4454                   24382218.5274
  -1175233.04348   -897990.22446  21184308.0704                   21184306.6024
   5673595.50046   4429751.43143  24471620.6564                   24471623.4844
 11  9 27 18 23 30.0000000  0  8G04G07G08G17G24G26G28G20
 -10160245.16047  -7882216.05945  21768860.5634                   21768862.6954
  10117586.63345   7877678.41743  24551351.1564                   24551361.1294
   7277524.73447   5672793.70445  21952678.0084                   21952680.1764
   -620737.05948   -466055.21446  20800233.2814                   20800232.3674
   7342869.70346   5722032.49043  24200396.6954                   24200400.5554
   5893034.59446   4596413.44943  24376297.2584                   24376304.4304
  -1285949.84448   -984263.05246  21163239.6334                   21163237.5554
   5531943.22346   4319373.09743  24444665.0554                   24444668.0434
 11  9 27 18 24  0.0000000  0  8G04G07G08G17G24G26G28G20
 -10362152.23447  -8039546.11845  21730439.1804                   21730441.3754
  10126670.23846   7884756.10643  24553080.2584                   24553090.4494
   7270936.25447   5667659.66445  21951424.1254                   21951427.1454
   -718724.69148   -542409.21646  20781586.7344                   20781585.8364
   7332120.53147   5713656.44343  24198351.4694                   24198355.0554
   5862037.43847   4572259.61443  24370399.6024                   24370406.3674
  -1396507.62548  -1070411.96746  21142200.9774                   21142199.4144
   5390569.60246   4209211.92943  24417762.0474                   24417765.6644
 11  9 27 18 24 30.0000000  0  7G04G08G17G24G26G28G20
 -10563774.73847  -8196654.44045  21692071.4534                   21692073.6644
   7264663.79347   5662771.89745  21950230.7814                   21950233.1764
   -816516.90248   -618610.94446  20762977.6564                   20762976.9104
   7321583.80546   5705445.93343  24196346.5944                   24196349.7974
   5831129.22347   4548175.02743  24364517.8984                   24364524.1294
  -1506901.44947  -1156433.13046  21121193.6644                   21121191.9344
   5249480.56646   4099272.57343  24390913.4534                   24390916.6914
 11  9 27 18 25  0.0000000  0  7G04G08G17G24G26G28G20
 -10765112.52747  -8353540.90545  21653758.0864                   21653760.2814
   7258701.34447   5658125.66245  21949097.1954                   21949098.5474
   -914117.51648   -694663.36046  20744404.9534                   20744404.1174
   7311254.25046   5697396.86243  24194380.9454                   24194384.0274
   5800303.60946   4524154.87844  24358652.8914                   24358659.3164
  -1617132.41447  -1242327.39746  21100217.3054                   21100215.7544
   5108675.69146   3989554.54743  24364119.0634                   24364122.5164
 11  9 27 18 25 30.0000000  0  7G04G08G17G24G26G28G20
 -10966155.90247  -8510197.95445  21615500.8754                   21615503.0944
   7253053.25447   5653724.39545  21948021.8914                   21948024.1564
  -1011520.84448   -770562.05546  20725869.5634                   20725869.0704
   7301136.20746   5689512.59743  24192454.9844                   24192458.6134
   5769564.75047   4500202.28543  24352803.9064                   24352809.2774
  -1727192.13748  -1328088.22446  21079273.6644                   21079272.4024
   4968164.30146   3880065.20943  24337381.1644                   24337383.8874
 11  9 27 18 26  0.0000000  0  7G04G08G17G24G26G28G20
 -11166893.18747  -8666616.48545  21577301.8594                   21577303.5474
   7247725.53547   5649572.77645  21947008.0554                   21947010.6174
  -1108719.63748   -846301.36746  20707373.3594                   20707372.6054
   7291235.55146   5681797.71142  24190570.7034                   24190575.0744
   5738918.01647   4476321.46644  24346971.8674                   24346978.5204
  -1837070.46548  -1413707.71346  21058364.5394                   21058362.7544
   4827957.60946   3770813.35743  24310700.1254                   24310703.3134
 11  9 27 18 26 30.0000000  0  7G04G08G17G24G26G28G20
 -11367323.17647  -8822795.58445  21539161.3054                   21539162.8484
   7242714.51647   5645667.90545  21946054.3984                   21946057.1954
  -1205716.19948   -921883.10046  20688915.4064                   20688914.8954
   7281548.73446   5674249.46942  24188728.1804                   24188731.9884
   5708358.89847   4452508.97644  24341156.4844                   24341163.2464
  -1946767.07047  -1499185.59246  21037490.0944                   21037488.6564
   4688056.57445   3661799.64543  24284077.8834                   24284080.8714
 11  9 27 18 27  0.0000000  0  7G04G08G17G24G26G28G20
 -11567443.25847  -8978733.19245  21501079.6884                   21501081.2424
   7238016.17247   5642006.71745  21945160.5394                   21945163.4454
  -1302512.31648   -997308.64446  20670495.8284                   20670494.7704
   7272072.48046   5666865.27643  24186924.4384                   24186928.5984
   5677883.82446   4428761.91543  24335357.1024                   24335364.2234
  -2056281.03148  -1584521.15946  21016650.1254                   21016648.7814
   4548463.32845   3553025.77043  24257514.4534                   24257516.9024
 11  9 27 18 27 30.0000000  0  7G04G08G17G24G26G28G20
 -11767257.68047  -9134432.63145  21463055.6804                   21463057.7544
   7233621.24647   5638581.89745  21944324.1954                   21944327.1254
  -1399115.79348  -1072584.07446  20652112.9454                   20652111.6094
   7262797.38346   5659637.83642  24185160.1804                   24185162.8674
   5647482.82046   4405072.58143  24329572.2734                   24329578.8794
  -2165617.58648  -1669718.48346  20995843.8754                   20995842.8164
   4409173.50846   3444488.38543  24231007.8834                   24231010.8094
 11  9 27 18 28  0.0000000  0  7G04G08G17G24G26G28G20
 -10391335.29748  -8062285.18945  21724884.9694                   21724886.5234
   8804948.69147   6862992.73045  22243338.0234                   22243340.8794
     79896.62148     79893.12546  20933559.6724                   20933558.6024
   8829142.87146   6880166.80542  24483225.7114                   24483228.2034
   7192575.54746   5609040.72143  24623594.2734                   24623601.6644
   -699350.09048   -527172.38146  21274865.5084                   21274864.2974
   5845615.60546   4563793.96443  24504354.2664                   24504356.6604
 11  9 27 18 28 30.0000000  0  7G04G08G17G24G26G28G20
 -10590528.67247  -8217500.68845  21686980.1254                   21686981.7934
   8801153.39147   6860035.16545  22242615.9144                   22242619.0394
    -16324.69948      4915.48246  20915249.0084                   20915248.3054
   8820263.49246   6873247.66943  24481536.1804                   24481538.6294
   7162314.46546   5585460.48443  24617835.8204                   24617842.1914
   -808326.21548   -612088.86246  21254128.1024                   21254126.6724
   5706940.44946   4455735.45843  24477964.1564                   24477967.6174
 11  9 27 18 29  0.0000000  0  7G04G08G17G24G26G28G20
 -10789406.64547  -8372470.41846  21649134.2584                   21649136.1954
   8797654.46147   6857308.54645  22241950.5784                   22241953.5514
   -112355.84448    -69913.98946  20896975.0164                   20896974.2114
   8811578.89146   6866480.41343  24479883.8284                   24479886.7814
   7132119.54346   5561931.67743  24612089.8834                   24612096.8984
   -917119.00048   -696862.47246  21233425.7584                   21233423.8484
   5568577.04346   4347919.92443  24451634.8204                   24451638.3954
 11  9 27 18 29 30.0000000  0  7G04G08G17G24G26G28G20
 -10987972.05147  -8527196.59945  21611348.3984                   21611350.5904
   8794442.98047   6854805.91045  22241339.4534                   22241342.1414
   -208204.10948   -144600.95346  20878735.6884                   20878734.8204
   8803080.74246   6859858.47843  24478266.4844                   24478270.1564
   7101981.52746   5538447.29043  24606354.6564                   24606361.6454
  -1025732.68448   -781496.51546  21212757.2034                   21212755.2074
   5430521.75845   4240344.48243  24425364.6414                   24425366.9184
 11  9 27 18 30  0.0000000  0  7G04G08G17G24G26G28G20
 -11186220.20347  -8681675.56345  21573623.4064                   21573625.2544
   8791518.89547   6852527.22145  22240783.0704                   22240786.1054
   -303868.35548   -219144.52046  20860531.3444                   20860530.5904
   8794768.65646   6853381.43643  24476684.5234                   24476688.5164
   7071899.71946   5515006.65943  24600631.5554                   24600637.9614
  -1134163.52748   -865988.07946  21192123.3054                   21192122.0234
   5292779.19945   4133012.68243  24399152.7584                   24399155.2974
 11  9 27 18 30 30.0000000  0  7G04G08G17G24G26G28G20
 -11384149.87148  -8835906.37045  21535958.3524                   21535960.0904
   8788876.99647   6850468.41245  22240280.3284                   22240283.6724
   -399351.28548   -293546.81246  20842361.6484                   20842361.0354
   8786638.30947   6847045.96243  24475137.5004                   24475141.6994
   7041869.09446   5491605.92243  24594916.3914                   24594923.8714
  -1242411.87948   -950337.45946  21171524.6724                   21171523.2544
   5155350.26246   4025925.26543  24373000.6024                   24373003.2814
 11  9 27 18 31  0.0000000  0  7G04G08G17G24G26G28G20
 -11581758.44547  -8989886.95146  21498354.6484                   21498356.4224
   8786514.82047   6848627.57745  22239831.3594                   22239833.8794
   -494654.23448   -367808.85546  20824226.1564                   20824225.2624
   8778687.18046   6840850.23043  24473624.9614                   24473628.1484
   7011886.90246   5468242.97043  24589211.2734                   24589217.5314
  -1350476.02048  -1034543.28546  21150960.4224                   21150958.9304
   5018236.96146   3919083.88643  24346908.6414                   24346911.0274
 11  9 27 18 31 30.0000000  0  7G04G08G17G24G26G28G20
 -11779041.74647  -9143614.09546  21460812.6174                   21460814.1214
   8784430.78147   6847003.48145  22239434.5474                   22239437.7854
   -589777.09048   -441930.55946  20806124.8054                   20806123.9924
   8770913.94946   6834793.06043  24472145.2814                   24472148.3674
   6981951.32446   5444916.22643  24583514.8284                   24583522.1884
  -1458352.75448  -1118603.07946  21130432.3834                   21130430.4384
   4881443.17646   3812491.42743  24320877.6484                   24320880.4734
 11  9 27 18 32  0.0000000  0  7G04G08G17G24G26G28G20
 -11976001.30947  -9297088.96945  21423332.5084                   21423333.7734
   8782617.76247   6845590.55245  22239089.5704                   22239092.8954
   -684725.20748   -515916.11646  20788056.8054                   20788055.8754
   8763311.65646   6828869.13143  24470698.8444                   24470702.0274
   6952054.43446   5421619.72043  24577825.8444                   24577833.4414
  -1566045.51648  -1202519.52746  21109939.0784                   21109937.3404
   4744966.59846   3706146.16043  24294906.7034                   24294909.7464
 11  9 27 18 32 30.0000000  0  7G04G08G17G24G26G28G20
 -12172634.95747  -9450309.88745  21385914.2424                   21385915.3794
   8781072.37947   6844386.15245  22238796.1024                   22238798.7814
   -779500.35248   -589766.88046  20770021.7584                   20770020.8524
   8755877.37546   6823076.09043  24469284.4774                   24469287.5904
   6922193.08646   5398350.93843  24572143.5704                   24572151.3014
  -1673553.00847  -1286291.60646  21089481.0394                   21089479.3364
   4608809.38746   3600049.73043  24268996.5164                   24269000.0164
 11  9 27 18 33  0.0000000  0  8G04G09G08G17G24G26G28G20
 -12368940.00447  -9603274.74446  21348558.3754                   21348560.1294
  10806190.00056   8438938.85353  24121756.4304                   24121758.6684
   8779791.72747   6843388.05745  22238552.6484                   22238555.6564
   -874103.86348   -663483.89946  20752019.2274                   20752018.4844
   8748608.44546   6817411.95943  24467901.2584                   24467904.2584
   6892364.14546   5375107.31843  24566468.4614                   24566474.9264
  -1780873.84047  -1369918.22646  21069058.3594                   21069057.0664
   4472973.44946   3494203.64443  24243148.3284                   24243150.8714
 11  9 27 18 33 30.0000000  0  8G04G09G08G17G24G26G28G20
 -12564917.82847  -9755984.63546  21311265.3284                   21311266.6684
  10597183.45346   8276076.64043  24081984.0634                   24081986.1914
   8778768.78947   6842590.74145  22238358.0004                   22238361.1994
   -968541.01648   -737071.29646  20734048.5554                   20734047.8554
   8741498.09846   6811871.35143  24466548.4064                   24466551.0634
   6862560.39846   5351883.36044  24560796.6174                   24560803.4844
  -1888010.35247  -1453401.22546  21048670.9534                   21048669.8014
   4337457.25846   3388606.72343  24217359.9774                   24217362.3204
 11  9 27 18 34  0.0000000  0  8G04G09G08G17G24G26G28G20
 -12760574.01247  -9908443.88745  21274033.0944                   21274034.2274
  10388415.68846   8113400.47843  24042256.9454                   24042259.6994
   8777992.52347   6841985.68645  22238210.5634                   22238213.7464
  -1062821.24648   -810536.41446  20716107.3674                   20716106.6294
   8734535.55946   6806445.79443  24465223.0164                   24465226.4654
   6832770.28546   5328670.05743  24555128.2734                   24555134.5664
  -1994969.25447  -1536745.83346  21028317.2974                   21028316.3954
   4202254.66846   3283254.18843  24191631.8134                   24191634.8874
 11  9 27 18 34 30.0000000  0  8G04G09G08G17G24G26G28G20
 -12955904.43747 -10060649.30845  21236862.6414                   21236864.0044
  10179891.67246   7950914.25943  24002574.8204                   24002578.3164
   8777461.40247   6841571.62645  22238109.5864                   22238112.8324
  -1156944.06248   -883878.86346  20698196.2034                   20698195.7774
   8727719.79746   6801134.72342  24463926.6804                   24463929.4264
   6802992.28946   5305466.19743  24549461.4064                   24549469.2544
  -2101747.69947  -1619949.81546  21007998.0944                   21007996.7194
   4067369.12946   3178148.63443  24165964.0554                   24165966.6294
 11  9 27 18 35  0.0000000  0  8G04G09G08G17G24G26G28G20
 -13150900.10547 -10212593.87845  21199755.9304                   21199757.4024
   9971620.51646   7788625.12942  23962943.1724                   23962945.8874
   8777178.73447   6841351.15045  22238055.8984                   22238058.9304
  -1250904.69948   -957094.94846  20680316.1254                   20680315.4534
   8721054.22346   6795940.64943  24462658.0864                   24462661.3834
   6773229.44147   5282274.13143  24543797.8834                   24543805.2034
  -2208337.84447  -1703007.08646  20987714.6644                   20987713.3324
   3932809.13746   3073296.80143  24140358.0554                   24140360.6054
 11  9 27 18 35 30.0000000  0  7G04G09G08G17G26G28G20
 -11770127.58647  -9136667.13146  21462508.6094                   21462509.7034
  11339036.94146   8854144.53942  24223153.9064                   24223155.5204
  10352566.15647   8068925.54745  22537842.4614                   22537845.9844
    230723.36348    197420.42946  20962260.8134                   20962259.8594
   8318904.18447   6486695.75243  24837929.8674                   24837937.0634
   -739310.39547   -558310.38446  21267261.4454                   21267260.0784
   5374005.98046   4196307.41943  24414608.1564                   24414611.4454
 11  9 27 18 36  0.0000000  0  7G04G09G08G17G26G28G20
 -11964433.16047  -9288073.96246  21425533.3134                   21425534.3134
  11131294.39145   8692267.34543  24183620.0554                   24183623.9104
  10352784.74247   8069095.67745  22537883.9534                   22537887.3014
    137096.63348    124464.53746  20944444.0864                   20944443.3794
   8289175.62146   6463530.38843  24832273.7894                   24832280.9574
   -845506.64847   -641060.72146  21247053.0394                   21247051.4414
   5240116.71146   4091978.28043  24389129.9774                   24389133.1764
 11  9 27 18 36 30.0000000  0  7G04G09G08G17G26G28G20
 -12158381.65247  -9439202.55046  21388625.8754                   21388627.2274
  10923828.94946   8530606.12243  24144141.5554                   24144144.6604
  10353257.82047   8069464.11745  22537974.2344                   22537977.6524
     43643.08648     51643.59546  20926660.3754                   20926660.1254
   8259467.74246   6440381.13143  24826619.6954                   24826628.2274
   -951495.48848   -723649.42246  21226884.2034                   21226882.5274
   5106574.29746   3987919.30443  24363717.7274                   24363720.5784
 11  9 27 18 37  0.0000000  0  7G04G09G08G17G26G28G20
 -12351958.68048  -9590041.68646  21351789.3054                   21351790.8404
  10716655.31646   8369172.26443  24104717.6804                   24104720.6644
  10353994.16447   8070037.68044  22538114.6174                   22538117.8134
    -49626.75448    -21034.20246  20908912.1254                   20908911.2274
   8229789.00046   6417254.66743  24820972.4694                   24820979.7734
  -1057263.51248   -806066.07746  21206756.9614                   21206755.2344
   4973392.53946   3884141.37943  24338374.3834                   24338376.4884
 11  9 27 18 37 30.0000000  0  7G04G09G08G17G26G28G20
 -12545160.95748  -9740588.81246  21315023.8594                   21315025.4024
  10509777.14146   8207968.58944  24065350.1334                   24065353.3524
  10354991.12947   8070814.32045  22538304.3444                   22538307.7974
   -142713.41848    -93569.26546  20891198.2504                   20891197.4494
   8200137.11346   6394149.03143  24815330.6094                   24815337.9734
  -1162809.05548   -888309.36546  21186672.5394                   21186670.9694
   4840573.82446   3780646.35943  24313099.6884                   24313101.8164
 11  9 27 18 38  0.0000000  0  7G04G09G08G17G26G28G20
 -12737988.53948  -9890843.96846  21278330.1484                   21278331.4694
  10303195.13346   8046995.65944  24026039.0314                   24026042.6334
  10356242.96547   8071789.56345  22538543.1094                   22538546.8634
   -235620.82448   -165964.64646  20873518.6484                   20873517.5864
   8170506.11346   6371059.73042  24809691.5634                   24809699.3134
  -1268133.05148   -970380.01646  21166629.7424                   21166628.6484
   4708118.23846   3677434.33043  24287893.7974                   24287896.5274
 11  9 27 18 38 30.0000000  0  7G04G09G08G17G26G28G20
 -12930438.64848 -10040804.99046  21241708.2894                   21241709.4264
  10096912.51246   7886256.07044  23986784.4694                   23986788.4804
  10357747.28147   8072961.54644  22538829.0784                   22538832.4774
   -328349.76248   -238220.96246  20855872.5084                   20855872.1024
   8140893.21546   6347984.44542  24804056.1564                   24804064.4964
  -1373233.80148  -1052276.71546  21146630.0784                   21146628.4884
   4576027.53546   3574506.51343  24262757.6564                   24262759.8794
 11  9 27 18 39  0.0000000  0  8G04G09G08G02G17G26G28G20
 -13122510.19148 -10190471.03446  21205157.9694                   21205159.0744
   9890931.24646   7725751.25144  23947587.4384                   23947591.3674
  10359500.01647   8074327.11044  22539162.9454                   22539166.1294
  12380389.62156   9665639.87253  24712945.1884                   24712952.9064
   -420902.94948   -310340.33646  20838260.8204                   20838259.7234
   8111294.37146   6324920.15642  24798424.5634                   24798432.7304
  -1478111.10248  -1133999.29046  21126672.5944                   21126670.8874
   4444302.75046   3471863.95343  24237691.8284                   24237693.3674
 11  9 27 18 39 30.0000000  0  8G04G09G08G02G17G26G28G20
 -13314208.08648 -10339845.90046  21168678.7814                   21168679.9454
   9685246.59046   7565477.59643  23908447.0634                   23908450.3364
  10361490.27347   8075877.75244  22539541.6804                   22539545.6294
  12170053.54346   9501741.98843  24672918.7974                   24672927.7894
   -513289.03548   -382329.49246  20820680.0554                   20820679.0084
   8081698.52046   6301858.26642  24792792.2734                   24792801.0234
  -1582770.89148  -1215552.38046  21106756.2114                   21106754.8404
   4312938.09046   3369502.02243  24212692.5394                   24212695.6484
 11  9 27 18 40  0.0000000  0  8G04G09G08G02G17G26G28G20
 -13505538.95748 -10488934.79546  21132269.8054                   21132271.1254
   9479852.66446   7405430.46943  23869362.1334                   23869364.4384
  10363705.97747   8077604.06544  22539963.2814                   22539967.2854
  11959729.25846   9337853.32343  24632895.6954                   24632902.9574
   -605518.58648   -454196.68446  20803129.1644                   20803128.5354
   8052093.79346   6278789.37643  24787159.4534                   24787167.6804
  -1687221.08647  -1296942.14646  21086879.8834                   21086878.8204
   4181926.57446   3267415.24943  24187762.4224                   24187764.5044
 11  9 27 18 40 30.0000000  0  8G04G09G08G02G17G26G28G20
 -13696498.30548 -10637734.18546  21095931.4844                   21095932.6054
   9274754.71146   7245614.07543  23830332.5554                   23830335.6884
  10366146.33247   8079505.43144  22540428.1334                   22540431.5984
  11749421.22346   9173977.27243  24592875.3364                   24592881.3364
   -697590.36748   -525940.94846  20785608.7734                   20785608.1214
   8022478.94546   6255712.55243  24781524.1644                   24781532.1644
  -1791458.12948  -1378165.83146  21067044.4384                   21067043.1414
   4051272.55546   3165607.07043  24162900.1094                   24162901.5044
 11  9 27 18 41  0.0000000  0  8G04G09G08G02G17G26G28G20
 -13887080.93448 -10786240.03846  21059664.7814                   21059665.7544
   9069957.92646   7086032.26943  23791361.5704                   23791364.1604
  10368810.98847   8081581.57144  22540935.6644                   22540938.6374
  11539133.87146   9010117.39843  24552858.5234                   24552865.6804
   -789503.19148   -597561.32546  20768117.8834                   20768117.3244
   7992853.34846   6232627.44143  24775887.0084                   24775894.7274
  -1895478.08247  -1459220.34146  21047250.0084                   21047248.7584
   3920980.34446   3064080.62643  24138105.8674                   24138108.1764
 11  9 27 18 41 30.0000000  0  8G04G09G08G02G17G26G28G20
 -14077281.43448 -10934448.12946  21023470.3984                   21023471.8404
   8865468.64146   6926690.12243  23752448.4144                   23752450.5514
  10371699.80147   8083832.40144  22541484.6564                   22541488.7894
  11328872.39846   8846277.70743  24512846.2344                   24512853.6564
   -881255.44948   -669056.60146  20750658.2814                   20750657.4384
   7963217.20346   6209534.13943  24770247.8754                   24770255.5514
  -1999276.25048  -1540102.05546  21027497.9304                   21027496.4654
   3791054.72746   2962839.96942  24113381.7114                   24113383.4344
 11  9 27 18 42  0.0000000  0  8G04G09G08G02G17G26G28G20
 -14267094.16048 -11082354.05646  20987350.3594                   20987351.4494
   8661293.48846   6767592.70843  23713594.4384                   23713597.1844
  10374812.93847   8086258.00144  22542076.4064                   22542081.7704
  11118642.04746   8682462.27943  24472840.6954                   24472847.1914
   -972844.74648   -740424.89246  20733229.6334                   20733228.6414
   7933570.62546   6186432.66943  24764606.1804                   24764614.2814
  -2102847.97348  -1620807.30446  21007789.0944                   21007787.4534
   3661501.25846   2861889.34443  24088728.1644                   24088731.0044
 11  9 27 18 42 30.0000000  0  8G04G09G08G02G17G26G28G20
 -14456517.05148 -11229956.22446  20951304.4774                   20951305.4104
   8457435.03146   6608741.98943  23674802.0554                   23674804.7344
  10378147.14147   8088855.86544  22542712.2504                   22542716.4344
  10908444.54345   8518672.51642  24432839.8054                   24432847.0904
  -1064272.94548   -811667.65046  20715831.1174                   20715830.7194
   7903910.31646   6163320.49244  24758962.1644                   24758970.8204
  -2206192.75848  -1701335.73046  20988123.2114                   20988121.5824
   3532321.33646   2761229.73443  24064146.1954                   24064148.5044
 11  9 27 18 43  0.0000000  0  8G04G09G08G02G17G26G28G20
 -13070122.19148 -10149648.45646  21215126.6724                   21215127.6524
   9829322.10246   7677745.05343  23935862.9454                   23935866.3444
  11957118.03547   9319222.53944  22843180.1024                   22843185.0514
  12273708.00446   9582514.66243  24692641.3204                   24692648.4224
    419880.99248    344815.93646  20998256.4454                   20998255.6454
   9449653.01646   7367795.08243  25053107.5474                   25053114.9884
   -733885.65248   -554083.45546  21268293.6254                   21268292.6454
   4978939.95745   3888465.12843  24339428.2894                   24339430.4414
 11  9 27 18 43 30.0000000  0  8G04G09G08G02G17G26G28G20
 -13258758.76648 -10296637.89846  21179229.9224                   21179231.1914
   9626105.12146   7519394.25143  23897192.7114                   23897194.4224
  11960884.09047   9322156.86744  22843897.9064                   22843901.2384
  12063581.65246   9418780.25543  24652655.5864                   24652662.1994
    328771.07048    273821.16446  20980918.8284                   20980918.2194
   9419955.14546   7344653.61044  25047455.8594                   25047464.6804
   -836771.28148   -634254.08946  21248715.3134                   21248714.0864
   4850511.73046   3788391.24642  24314989.2734                   24314991.2344
 11  9 27 18 44  0.0000000  0  8G04G09G08G02G17G26G28G20
 -13446999.36748 -10443318.81246  21143409.3674                   21143410.3554
   9423212.69147   7361296.29443  23858582.6334                   23858585.6604
  11964860.63747   9325255.23644  22844655.0944                   22844658.9264
  11853493.27046   9255075.45743  24612676.6484                   24612683.1844
    237817.49248    202948.25046  20963610.8524                   20963610.5864
   9390233.02046   7321493.27443  25041800.3054                   25041808.4264
   -939426.42248   -714245.14346  21229180.7814                   21229179.2074
   4722461.31346   3688611.73643  24290621.7344                   24290624.5044
 11  9 27 18 44 30.0000000  0  8G04G09G08G02G17G26G28G20
 -13634838.86748 -10589687.16246  21107664.1094                   21107665.5824
   9220650.34047   7203455.57043  23820037.0394                   23820039.1414
  11969047.54347   9328517.52544  22845451.5164                   22845455.9224
  11643447.58247   9091403.84444  24572706.6094                   24572712.6134
    147021.70748    132198.27846  20946333.1414                   20946332.2544
   9360486.25846   7298313.73043  25036139.8054                   25036148.7584
  -1041846.99248   -794053.39446  21209690.7584                   21209689.7194
   4594793.72346   3589130.59442  24266329.1254                   24266329.4844
 11  9 27 18 45  0.0000000  0  8G04G09G08G02G17G26G28G20
 -13822277.56648 -10735743.21746  21071996.1484                   21071996.6414
   9018418.78947   7045872.61743  23781553.2664                   23781555.9064
  11973438.93447   9331939.13344  22846287.1644                   22846291.7704
  11433443.99247   8927765.09943  24532743.6804                   24532749.7854
     56380.16448     61568.50746  20929084.3594                   20929083.6254
   9330709.59046   7275110.91443  25030473.9924                   25030482.2974
  -1144033.83648   -873679.52746  21190245.4844                   21190244.1884
   4467508.07446   3489947.09243  24242106.2274                   24242108.1844
 11  9 27 18 45 30.0000000  0  8G04G09G08G02G17G26G28G20
 -14009310.35248 -10881482.97046  21036404.6334                   21036405.3674
   8816523.59846   6888551.75143  23743133.6024                   23743135.8134
  11978034.84047   9335520.10244  22847162.0004                   22847166.7154
  11223486.94546   8764162.57444  24492789.5394                   24492796.4654
    -34105.79348     -8940.04246  20911865.8204                   20911864.5594
   9300902.23846   7251884.21043  25024801.2194                   25024810.5864
  -1245983.14548   -953120.56846  21170845.1024                   21170843.8204
   4340608.27746   3391064.17843  24217958.2114                   24217960.0474
 11  9 27 18 46  0.0000000  0  8G04G09G08G02G17G26G28G20
 -14195934.38348 -11026904.22346  21000891.0084                   21000891.8914
   8614968.43046   6731495.86843  23704778.8204                   23704780.8524
  11982832.77747   9339258.54144  22848074.5554                   22848079.4064
  11013579.59046   8600598.78844  24452845.4774                   24452851.7584
   -124436.81648    -79327.86146  20894676.3204                   20894675.4494
   9271062.09446   7228631.92643  25019123.1884                   25019131.8524
  -1347692.73448  -1032374.80946  21151490.3984                   21151489.0164
   4214097.47346   3292484.41043  24193883.9384                   24193885.5314
 11  9 27 18 46 30.0000000  0  8G04G09G08G02G17G26G28G20
 -14382147.87548 -11172005.56046  20965455.8754                   20965456.6054
   8413755.78546   6574706.84943  23666488.8834                   23666492.1764
  11987829.03147   9343151.45344  22849026.0314                   22849030.6214
  10803723.29746   8437074.83643  24412910.5394                   24412916.5664
   -214614.43748   -149596.14246  20877515.8674                   20877515.3794
   9241185.60246   7205351.18442  25013438.8134                   25013446.5784
  -1449161.58248  -1111441.46446  21132181.4614                   21132180.2854
   4087976.53546   3194208.38543  24169884.0944                   24169885.7274
 11  9 27 18 47  0.0000000  0  8G04G09G08G02G17G26G28G20
 -14567945.96148 -11316783.21046  20930099.8054                   20930100.6094
   8212890.91046   6418188.84843  23628266.0634                   23628269.1454
  11993022.69147   9347198.20144  22850014.3204                   22850018.8714
  10593922.39546   8273594.03344  24372987.1644                   24372992.8714
   -304637.53148   -219744.00846  20860384.9614                   20860384.2344
   9211271.99646   7182041.63743  25007746.8204                   25007754.6954
  -1550386.07448  -1190317.70446  21112919.3594                   21112917.6844
   3962249.79746   3096239.58043  24145958.5944                   24145960.7624
 11  9 27 18 47 30.0000000  0  8G04G09G08G02G17G26G28G20
 -14753328.09448 -11461236.75846  20894822.5554                   20894823.3634
   8012375.29346   6261942.97043  23590109.3984                   23590111.9104
  11998409.44947   9351395.45144  22851039.6954                   22851044.6294
  10384177.51246   8110156.91843  24333072.5234                   24333079.3634
   -394508.89548   -289773.63846  20843283.1414                   20843282.4614
   9181316.72745   7158699.57042  25002046.1414                   25002054.3594
  -1651366.65248  -1269003.89146  21093703.3134                   21093701.8554
   3836917.42645   2998578.07343  24122109.1724                   24122111.1564
 11  9 27 18 48  0.0000000  0  8G04G09G08G02G17G26G28G20
 -14938292.91848 -11605365.10546  20859624.7424                   20859625.6334
   7812210.87546   6105970.76644  23552018.6484                   23552021.7154
  12003985.10947   9355739.85244  22852100.9614                   22852105.1844
  10174489.55546   7946764.08743  24293170.7504                   24293176.3484
   -484230.66048   -359686.71546  20826209.6954                   20826208.7624
   9151315.93045   7135322.04342  24996337.3134                   24996346.0704
  -1752102.65648  -1347499.50046  21074533.6254                   21074532.1764
   3711979.98446   2901224.24843  24098333.1954                   24098335.3674
 11  9 27 18 48 30.0000000  0  8G04G09G08G02G17G26G28G20
 -15122836.43048 -11749165.16146  20824507.5084                   20824508.1844
   7612402.63746   5950276.10843  23513996.8204                   23513999.2974
  12009748.47347   9360230.49944  22853198.5704                   22853202.3674
   9964862.39846   7783418.67143  24253279.0314                   24253284.8204
   -573802.21548   -429482.73646  20809164.6254                   20809164.0164
   9121268.33645   7111908.10242  24990620.0234                   24990628.6094
  -1852590.98848  -1425802.11746  21055411.5864                   21055409.8984
   3587441.07046   2804180.99543  24074634.8444                   24074637.3054
 11  9 27 18 49  0.0000000  0  8G04G09G08G02G17G26G28G20
 -15306960.51248 -11892638.40646  20789469.8674                   20789470.5474
   7412949.18046   5794857.89643  23476041.6884                   23476044.7624
  12015692.22747   9364861.74444  22854329.1954                   22854334.2034
   9755294.00446   7620119.04143  24213399.3054                   24213404.8754
   -663228.84048   -499165.84246  20792147.8594                   20792146.7464
   9091166.72345   7088452.02042  24984891.2894                   24984899.8754
  -1952834.34848  -1503913.85246  21036335.5234                   21036334.2234
   3463298.18846   2707446.35543  24051010.6724                   24051012.8984
 11  9 27 18 49 30.0000000  0  7G04G09G08G02G17G28G20
 -15490658.72748 -12035779.78146  20754513.0634                   20754513.6914
   7213857.70746   5639721.80243  23438156.0164                   23438158.8094
  12021817.45347   9369634.38844  22855495.4844                   22855499.8364
   9545790.40646   7456869.83043  24173532.4304                   24173536.8484
   -752507.50448   -568733.64246  20775158.1884                   20775157.4024
  -2052827.31648  -1581830.47846  21017307.5634                   21017306.9024
   3339557.14146   2611024.82143  24027464.6254                   24027465.4694
 11  9 27 18 50  0.0000000  0  7G04G09G08G02G17G28G20
 -14098503.73048 -10950983.62246  21019431.4384                   21019431.9614
   8590557.05946   6712474.61244  23700132.9844                   23700135.5474
  13603540.21147  10602145.34444  23156486.9614                   23156492.1454
  10911780.10946   8521277.81543  24433471.5314                   24433476.5664
    733782.43848    589414.35146  21057990.0164                   21057988.9144
   -577145.87148   -431948.84346  21298121.0554                   21298119.5784
   4791643.09446   3742520.37143  24303786.7344                   24303788.0004
 11  9 27 18 50 30.0000000  0  7G04G09G08G02G17G28G20
 -14281337.08248 -11093451.09046  20984639.4304                   20984639.6374
   8392204.80946   6557914.48344  23662388.2584                   23662391.0044
  13610025.61347  10607198.60344  23157721.3284                   23157726.5944
  10702419.06346   8358139.70143  24393630.6644                   24393635.3754
    644802.23048    520079.11346  21041057.5864                   21041056.9344
   -676627.15248   -509466.75946  21279189.8984                   21279188.7194
   4668717.41846   3646734.24242  24280394.7344                   24280396.1764
 11  9 27 18 51  0.0000000  0  7G04G09G08G02G17G28G20
 -14463720.49648 -11235567.96446  20949932.6094                   20949933.2344
   8194241.02746   6403657.09244  23624716.6484                   23624719.2384
  13616701.17647  10612400.08444  23158992.0394                   23158997.3364
  10493146.70346   8195070.64744  24353807.3284                   24353811.8914
    555984.19548    450870.23046  21024156.0784                   21024155.1454
   -775836.15248   -586772.48846  21260311.2974                   21260309.8204
   4546216.21546   3551278.81043  24257082.7894                   24257084.9024
 11  9 27 18 51 30.0000000  0  7G04G09G08G02G17G28G20
 -14645653.77748 -11377334.07646  20915311.7974                   20915312.4144
   7996666.52046   6249702.97243  23587119.4774                   23587121.8714
  13623561.83247  10617745.76944  23160297.8524                   23160303.1844
  10283962.67646   8032070.46543  24314000.7734                   24314005.6764
    467324.84848    381785.02046  21007284.6954                   21007284.1134
   -874773.82848   -663866.81846  21241483.7194                   21241482.9304
   4424138.94946   3456153.70143  24233852.6334                   24233854.6644
 11  9 27 18 52  0.0000000  0  7G04G09G08G02G17G28G20
 -14827137.39548 -11518749.80346  20880776.6724                   20880777.1644
   7799481.60246   6096052.51544  23549596.3054                   23549598.8594
  13630601.29347  10623230.78744  23161637.2894                   23161643.3444
  10074866.43046   7869138.70143  24274210.8444                   24274215.1724
    378820.49248    312820.57146  20990442.8594                   20990442.0944
   -973441.08248   -740750.41046  21222708.1334                   21222707.1214
   4302484.48046   3361358.12643  24210703.0314                   24210704.7664
 11  9 27 18 52 30.0000000  0  7G04G09G08G02G17G28G20
 -15008169.62148 -11659813.80046  20846327.3834                   20846328.0044
   7602689.10546   5942707.69943  23512148.1414                   23512150.3364
  13637816.27047  10628852.51044  23163010.7344                   23163016.4024
   9865860.02746   7706276.94643  24234437.9774                   24234442.7114
    290469.67648    243975.76946  20973630.3674                   20973629.5474
  -1071837.33248   -817422.83546  21203984.0474                   21203982.6524
   4181254.19546   3266892.99543  24187633.3674                   24187635.1334
 11  9 27 18 53  0.0000000  0  7G04G09G08G02G17G28G20
 -15188754.18048 -11800528.96746  20811963.2114                   20811963.9454
   7406285.46547   5789665.97943  23474773.4534                   23474775.3594
  13645197.33246  10634603.70344  23164415.5004                   23164421.7384
   9656939.23946   7543481.90044  24194681.2814                   24194686.3674
    202265.07448    175244.88646  20956845.5784                   20956844.9384
  -1169967.16848   -893887.66446  21185310.7114                   21185309.2384
   4060443.57046   3172754.88743  24164643.4924                   24164645.4884
 11  9 27 18 53 30.0000000  0  7G04G09G08G02G17G28G20
 -15368885.89848 -11940891.26646  20777685.5314                   20777685.7464
   7210276.96147   5636932.10343  23437474.3834                   23437476.1684
  13652745.25446  10640484.85444  23165852.1414                   23165857.8834
   9448109.37146   7380757.65643  24154942.2664                   24154946.9804
    114208.94548    106629.71446  20940088.9614                   20940088.0904
  -1267826.05948   -970141.37446  21166688.3754                   21166687.4144
   3940057.03546   3078947.29543  24141735.1414                   24141736.6804
 11  9 27 18 54  0.0000000  0  7G04G09G08G02G17G28G20
 -15548567.80148 -12080903.07446  20743493.0554                   20743493.4104
   7014661.64847   5484504.59343  23400249.7114                   23400251.5394
  13660451.58646  10646489.50044  23167318.3444                   23167324.6724
   9239367.33646   7218101.87143  24115219.0944                   24115224.2504
     26294.98848     38125.32046  20923359.4694                   20923358.9304
  -1365417.48848  -1046186.67446  21148117.7664                   21148116.3984
   3820091.39146   2985467.61343  24118906.8594                   24118908.2814
 11  9 27 18 54 30.0000000  0  7G04G09G08G02G17G28G20
 -15727794.73447 -12220560.34446  20709387.2034                   20709387.7464
   6819445.20346   5332387.94943  23363101.5234                   23363102.9804
  13668316.50447  10652617.66444  23168815.3834                   23168821.9144
   9030718.09046   7055518.38743  24075514.3134                   24075519.1054
    -61474.95747    -30266.86746  20906657.4304                   20906656.7344
  -1462737.14548  -1122020.21446  21129598.1884                   21129597.1884
   3700551.05946   2892319.38343  24096158.1094                   24096160.2854
 11  9 27 18 55  0.0000000  0  7G04G09G08G02G17G28G20
 -15906563.75848 -12359860.81846  20675368.1954                   20675368.5434
   6624631.17246   5180584.87543  23326029.1174                   23326031.8164
  13676337.53147  10658867.52043  23170342.2034                   23170347.8984
   8822164.52346   6893009.49944  24035827.5084                   24035833.0164
   -149100.84847    -98546.79446  20889983.2424                   20889981.9574
  -1559782.98448  -1197640.35746  21111131.2424                   21111129.8134
   3581438.44146   2799504.43043  24073492.0084                   24073494.1914
 11  9 27 18 55 30.0000000  0  7G04G09G08G02G17G28G20
 -16084875.00047 -12498804.55946  20641436.5944                   20641437.4924
   6430219.89846   5029095.62443  23289033.8284                   23289036.4574
  13684509.33647  10665234.83043  23171897.7974                   23171903.4144
   8613706.41846   6730574.98943  23996158.8054                   23996163.5434
   -236586.32847   -166717.29646  20873335.1954                   20873334.2814
  -1656555.93048  -1273047.86346  21092716.0704                   21092714.5004
   3462752.73445   2707022.10443  24050906.7734                   24050909.2114
 11  9 27 18 56  0.0000000  0  7G04G09G08G02G17G28G20
 -16262723.39848 -12637387.65946  20607593.5554                   20607593.6764
   6236218.11746   4877925.49943  23252116.2664                   23252118.7854
  13692832.29347  10671719.93143  23173481.8134                   23173487.5904
   8405348.82846   6568218.73144  23956509.5394                   23956514.6524
   -323929.13348   -234776.63346  20856714.1414                   20856713.4964
  -1753051.66048  -1348239.36446  21074353.6174                   21074352.2114
   3344498.37946   2614875.86543  24028403.2034                   24028405.3954
 11  9 27 18 56 30.0000000  0  7G04G09G08G02G17G28G20
 -16440109.19548 -12775610.28846  20573838.0474                   20573838.4494
   6042626.60546   4727075.05143  23215276.7734                   23215279.9454
  13701300.85247  10678318.49744  23175093.7584                   23175098.9844
   8197091.98846   6405940.99144  23916879.8834                   23916884.5274
   -411132.55548   -302727.36446  20840119.6724                   20840119.1414
  -1849270.69148  -1423215.25946  21056043.8914                   21056042.0124
   3226674.71946   2523065.32643  24005982.2894                   24005984.5744
 11  9 27 18 57  0.0000000  0  7G04G09G08G02G17G28G20
 -16617030.05948 -12913470.63346  20540170.7344                   20540171.1914
   5849448.24246   4576546.54043  23178516.5474                   23178518.9694
  13709912.02747  10685028.21243  23176732.6414                   23176738.4104
   7988937.68846   6243743.16344  23877269.2274                   23877273.6604
   -498197.84848   -370570.45446  20823552.0164                   20823551.1374
  -1945211.82448  -1497974.59946  21037786.4774                   21037785.4494
   3109283.35246   2431591.53043  23983644.2034                   23983645.1484
 11  9 27 18 57 30.0000000  0  7G04G09G08G02G17G28G20
 -15218057.85547 -11823362.35446  20806386.0004                   20806386.6844
   7232112.44546   5653947.30544  23441628.9064                   23441631.6644
  15294082.99646  11919446.82144  23478190.6884                   23478196.4534
   9356315.14846   7309232.40344  24137471.9694                   24137475.7304
    990297.36347    789295.93346  21106802.8444                   21106802.1884
   -465450.35247   -344913.72946  21319375.6484                   21319374.5554
   4567749.70346   3568058.86843  24261180.7974                   24261182.1094
 11  9 27 18 58  0.0000000  0  7G04G09G08G02G17G28G20
 -15394040.96547 -11960491.98046  20772897.6804                   20772898.3094
   7039770.92247   5504070.86744  23405027.5234                   23405030.7034
  15302972.71546  11926373.55644  23479882.0084                   23479888.2894
   9148374.46546   7147201.06443  24097901.8364                   24097906.1804
    903507.77747    721667.66546  21090287.7114                   21090286.9384
   -560829.41448   -419235.08946  21301225.7194                   21301224.4144
   4451228.95746   3477263.56943  24239007.2974                   24239009.9414
 11  9 27 18 58 30.0000000  0  7G04G09G08G02G17G28G20
 -15569553.40248 -12097254.84846  20739498.6334                   20739499.1764
   6847850.73847   5354522.73044  23368506.9614                   23368509.0664
  15311996.11346  11933404.43843  23481599.7584                   23481606.0554
   8940542.28146   6985254.22744  24058352.7114                   24058356.3634
    816853.39847    654144.76746  21073797.7194                   21073797.1174
   -655926.84048   -493337.00346  21283129.7734                   21283128.3054
   4335144.32045   3386808.03743  24216917.8444                   24216918.6764
 11  9 27 18 59  0.0000000  0  7G04G09G08G02G17G28G20
 -15744597.67648 -12233652.92746  20706188.7424                   20706189.5164
   6656350.28147   5205301.68144  23332064.9774                   23332067.4614
  15321145.60946  11940533.55843  23483340.7584                   23483347.3204
   8732815.85947   6823389.75243  24018823.0084                   24018826.8794
    730328.48048    586722.72846  21057332.6884                   21057331.5984
   -750745.47348   -567221.67246  21265085.6174                   21265084.8594
   4219493.11546   3296690.29343  24194909.4454                   24194911.9144
 11  9 27 18 59 30.0000000  0  7G04G09G08G02G17G28G20
 -15919167.60948 -12369681.38346  20672969.1804                   20672969.6174
   6465276.50047   5056413.10343  23295704.1254                   23295706.9774
  15330422.21946  11947761.75743  23485106.5864                   23485113.0944
   8525202.14847   6661613.17243  23979315.6254                   23979319.0704
    643936.08648    519403.98846  21040892.8914                   21040892.0944
   -845279.86348   -640884.84646  21247096.8754                   21247095.3554
   4104280.37145   3206914.10443  24172985.3524                   24172987.0594
 11  9 27 19  0  0.0000000  0  7G04G09G08G02G17G28G20
 -16093260.22348 -12505337.91346  20639840.6724                   20639841.1804
   6274633.55147   4907860.21843  23259425.8054                   23259428.6644
  15339824.12546  11955087.55743  23486895.7734                   23486902.1564
   8317704.09046   6499926.69143  23939830.0004                   23939832.7384
    557676.56348    452188.76246  21024478.4454                   21024477.5664
   -939527.64148   -714324.68546  21229161.9384                   21229160.7074
   3989508.92646   3117481.95143  24151144.9924                   24151146.5864
 11  9 27 19  0 30.0000000  0  7G04G09G08G02G17G28G20
 -16266875.36348 -12640622.37246  20606802.4064                   20606803.0634
   6084422.35247   4759643.79443  23223231.0004                   23223231.9304
  15349346.23046  11962507.01843  23488707.7584                   23488714.6644
   8110321.84046   6338330.43243  23900365.7424                   23900369.2974
    471546.99648    385074.80546  21008088.5784                   21008087.5944
  -1033489.27048   -787541.55546  21211281.9384                   21211280.3594
   3875177.98046   3028392.89843  24129388.9064                   24129390.8244
 11  9 27 19  1  0.0000000  0  7G04G09G08G02G17G28G20
 -16440012.03548 -12775534.00646  20573855.8914                   20573856.1524
   5894644.88747   4611765.28043  23187116.8524                   23187118.3674
  15358985.16046  11970017.53743  23490542.5944                   23490548.9614
   7903056.51246   6176825.26643  23860924.4614                   23860927.5984
    385545.78948    318060.86646  20991722.9454                   20991722.1644
  -1127164.51248   -860535.27146  21193455.8834                   21193454.7154
   3761288.10946   2939647.61143  24107716.2034                   24107717.4804
 11  9 27 19  1 30.0000000  0  7G04G09G08G02G17G28G20
 -16612666.54748 -12910069.94146  20541000.8284                   20541001.1294
   5705305.51647   4464228.22143  23151086.8914                   23151088.3834
  15368739.25446  11977617.76643  23492399.2504                   23492406.1414
   7695911.42646   6015413.81043  23821505.6724                   23821509.6214
    299673.37148    251147.28046  20975381.8444                   20975381.3794
  -1220550.48048   -933303.58046  21175685.3914                   21175683.9884
   3647841.94146   2851248.03143  24086127.2344                   24086129.0474
 11  9 27 19  2  0.0000000  0  7G04G09G08G02G17G28G20
 -16784834.94148 -13044227.06446  20508238.3444                   20508238.6454
   5516409.51247   4317036.60444  23115140.8674                   23115142.7384
  15378607.91446  11985307.28343  23494277.2504                   23494283.7234
   7488891.42246   5854099.86044  23782110.8284                   23782114.6564
    213931.02048    184335.03146  20959065.6334                   20959064.7344
  -1313643.25448  -1005843.42846  21157970.3984                   21157969.2504
   3534843.56346   2763197.37443  24064624.1804                   24064626.4844
 11  9 27 19  2 30.0000000  0  7G04G09G08G02G17G28G20
 -16956516.95748 -13178005.19946  20475568.0164                   20475568.3324
   5327957.85547   4170191.22344  23079279.8524                   23079282.3754
  15388586.62146  11993082.56743  23496176.2664                   23496183.0944
   7281997.06646   5692883.78444  23742739.7114                   23742743.1844
    128316.53148    117622.43846  20942773.9694                   20942773.0474
  -1406443.27348  -1078155.16546  21140310.8754                   21140309.6724
   3422292.50446   2675495.26643  24043206.7894                   24043209.0124
 11  9 27 19  3  0.0000000  0  7G04G09G08G02G17G28G20
 -17127712.24248 -13311404.06646  20442990.7424                   20442990.9454
   5139951.59447   4023692.87844  23043503.3284                   23043505.5354
  15398670.73046  12000940.03043  23498095.6954                   23498101.7774
   7075228.43446   5531765.65344  23703392.5704                   23703396.3914
     42826.94948     51007.17046  20926505.5314                   20926504.8674
  -1498951.10948  -1150239.21446  21122707.3054                   21122705.9964
   3310188.22746   2588141.32043  24021874.2974                   24021875.8324
 11  9 27 19  3 30.0000000  0  7G04G09G08G02G17G28G20
 -17298414.45748 -13444418.72446  20410507.1804                   20410507.0984
   4952398.14547   3877547.39544  23007812.7814                   23007815.2274
  15408861.51246  12008880.58343  23500034.8054                   23500040.8874
   6868591.77746   5370750.41244  23664071.4064                   23664074.8444
    -42534.21548    -15508.02346  20910261.7584                   20910261.0664
  -1591160.65648  -1222090.83746  21105160.4384                   21105159.3244
   3198536.25846   2501139.85243  24000627.7664                   24000629.0944
 11  9 27 19  4  0.0000000  0  7G04G09G08G02G17G28G20
 -17468620.95348 -13577047.10246  20378117.7114                   20378117.7114
   4765301.42247   3731757.80244  22972210.4844                   22972211.6994
  15419156.81646  12016902.52243  23501994.3674                   23502001.3134
   6662090.42247   5209840.53344  23624775.2034                   23624778.8754
   -127766.73848    -81922.99646  20894042.4694                   20894041.9574
  -1683069.77348  -1293708.35246  21087670.8444                   21087669.5434
   3087338.95346   2414492.59743  23979467.9924                   23979468.9384
 11  9 27 19  4 30.0000000  0  7G04G09G08G02G17G28G20
 -16062903.75448 -12481682.99346  20645616.7274                   20645617.0594
   6154090.72347   4813931.40044  23236487.8204                   23236489.3834
  17004974.09446  13252604.00443  23803765.3674                   23803773.3204
   8031153.83647   6276643.49644  23885298.8284                   23885301.9694
   1362551.95348   1079364.28146  21177641.0314                   21177640.0434
   -199253.64848   -137488.03146  21370031.7194                   21370030.5164
   4552021.74246   3555803.89643  24258187.3674                   24258188.7624
 11  9 27 19  5  0.0000000  0  7G04G09G08G02G17G28G20
 -16232116.22348 -12613536.80346  20613416.5704                   20613417.1054
   5967912.09447   4668857.18644  23201058.8054                   23201061.1214
  17015467.27046  13260780.09243  23805761.8914                   23805770.3134
   7824926.58647   6115947.26244  23846055.6484                   23846058.3984
   1277570.95748   1013145.31646  21161469.8284                   21161469.0744
   -290561.02348   -208636.67546  21352656.3754                   21352655.2274
   4441734.32445   3469865.65043  24237200.7814                   24237202.4384
 11  9 27 19  5 30.0000000  0  7G04G09G08G02G17G28G20
 -16400829.00048 -12745001.24146  20581311.8364                   20581311.9804
   5782197.00047   4524144.20444  23165718.3134                   23165720.5944
  17026055.15246  13269030.00743  23807777.7114                   23807784.7584
   7618839.44947   5955360.17244  23806837.8284                   23806841.1844
   1192714.56648    947023.43346  21145322.1254                   21145321.0004
   -381565.34448   -279549.17646  21335338.4774                   21335337.7464
   4331903.73846   3384283.44243  24216299.5944                   24216302.2234
 11  9 27 19  6  0.0000000  0  7G04G09G08G02G17G28G20
 -16569042.20348 -12876076.41046  20549301.6644                   20549301.6954
   5596946.14547   4379792.92444  23130465.4454                   23130468.0314
  17036732.76246  13277349.83743  23809809.7974                   23809817.1454
   7412892.50447   5794882.27744  23767647.0004                   23767650.0204
   1107979.89548    880996.40646  21129197.5944                   21129196.8164
   -472267.46948   -350226.18046  21318078.3984                   21318077.9614
   4222529.14146   3299056.46243  24195486.7504                   24195489.2154
 11  9 27 19  6 30.0000000  0  7G04G09G08G02G17G28G20
 -16736752.76248 -13006759.89746  20517387.6564                   20517387.8674
   5412163.65247   4235806.67944  23095302.7274                   23095304.9844
  17047498.22746  13285738.17743  23811858.3984                   23811866.3954
   7207088.90247   5634516.12044  23728483.4304                   23728486.5944
   1023367.28948    815064.49446  21113096.4224                   21113095.7974
   -562664.89548   -420665.77146  21300876.6024                   21300875.9804
   4113612.79746   3214186.61843  24174760.8754                   24174762.7734
 11  9 27 19  7  0.0000000  0  7G04G09G08G02G17G28G20
 -16903963.19148 -13137053.67746  20485568.2734                   20485568.6844
   5227848.12147   4092184.25244  23060229.1484                   23060230.9884
  17058344.60546  13294189.51743  23813923.3054                   23813930.1724
   7001426.76647   5474260.23644  23689347.0554                   23689349.7544
    938871.69948    749223.76846  21097017.4304                   21097016.7934
   -652760.28548   -490870.00046  21283732.3204                   21283731.3284
   4005152.00846   3129671.72543  24154121.6174                   24154123.5944
 11  9 27 19  7 30.0000000  0  7G04G09G08G02G17G28G20
 -17070673.80548 -13266957.98646  20453844.1414                   20453844.5704
   5044000.11347   3948926.15444  23025244.1024                   23025245.1684
  17069266.98046  13302700.02543  23816002.0864                   23816009.6334
   6795905.97346   5314114.42144  23650237.8524                   23650240.2274
    854490.37948    683472.08546  21080960.2894                   21080958.9654
   -742554.75048   -560839.75246  21266644.9144                   21266643.8204
   3897145.49246   3045510.76143  24133568.5234                   24133570.6844
 11  9 27 19  8  0.0000000  0  7G04G09G08G02G17G28G20
 -17236884.35248 -13396472.64146  20422215.2584                   20422215.8244
   4860620.55147   3806033.02144  22990348.4384                   22990350.0704
  17080260.99646  13311266.40944  23818094.5004                   23818102.1524
   6590527.04747   5154079.17044  23611155.0554                   23611157.7774
    770220.85948    617807.51646  21064924.1724                   21064923.6094
   -832048.16448   -630574.92246  21249614.8674                   21249614.0124
   3789592.97346   2961703.63143  24113101.8914                   24113103.8794
 11  9 27 19  8 30.0000000  0  7G04G09G08G02G17G28G20
 -17402593.40248 -13525596.52346  20390681.9144                   20390682.1054
   4677712.26247   3663507.17844  22955541.7274                   22955543.6374
  17091323.30547  13319886.03443  23820200.2194                   23820207.6374
   6385291.91047   4994155.98244  23572099.4064                   23572103.2704
    686062.24648    552229.37246  21048909.2114                   21048908.6454
   -921239.49248   -700074.69346  21232642.4224                   21232641.1334
   3682495.10546   2878250.73843  24092721.7504                   24092723.5044
 11  9 27 19  9  0.0000000  0  7G04G09G08G02G17G28G20
 -17567798.05948 -13654327.36846  20359244.4454                   20359244.6764
   4495278.99247   3521351.42444  22920825.9454                   22920827.7704
  17102452.39546  13328557.68543  23822317.4224                   23822325.2774
   6180203.94546   4834347.45144  23533073.0784                   23533074.9654
    602014.75048    486737.81746  21032915.5164                   21032915.1484
  -1010126.46948   -769337.29546  21215728.0474                   21215726.6724
   3575854.27746   2795154.03143  24072429.2974                   24072430.1804
 11  9 27 19  9 30.0000000  0  7G04G09G08G02G17G28G20
 -17732492.94548 -13782660.98146  20327904.1724                   20327904.3874
   4313327.13347   3379570.85444  22886201.8914                   22886204.1334
  17113649.13746  13337282.06643  23824448.6954                   23824456.6254
   5975268.70747   4674657.91744  23494074.4224                   23494077.6484
    518081.50448    421335.28046  21016943.5704                   21016942.7734
  -1098704.02748   -838358.81046  21198872.2974                   21198871.0984
   3469675.11746   2712416.99443  24052224.1884                   24052225.2344
 11  9 27 19 10  0.0000000  0  7G04G09G08G02G17G28G20
 -17896679.55548 -13910598.53546  20296660.1094                   20296660.7974
   4131856.02347   3238164.86944  22851668.2734                   22851671.0554
  17124907.49246  13346054.35843  23826591.2194                   23826599.9774
   5770485.32047   4515086.71744  23455105.5704                   23455107.5904
    434258.53148    356018.67346  21000992.6954                   21000992.0434
  -1186973.91048   -907140.57146  21182075.0944                   21182074.1294
   3363955.83646   2630038.31943  24032105.8524                   24032107.3404
 11  9 27 19 10 30.0000000  0  7G04G09G08G02G17G28G20
 -18060359.78148 -14038141.51146  20265513.1884                   20265513.2034
   3950864.80947   3097132.83044  22817226.5784                   22817229.2544
  17136221.03946  13354869.69143  23828744.2814                   23828752.1644
   5565852.02047   4355632.46444  23416164.9774                   23416167.6804
    350541.25448    290784.43046  20985061.9454                   20985061.0554
  -1274938.80148   -975684.67346  21165335.7034                   21165334.3914
   3258693.47346   2548015.71443  24012074.8364                   24012075.8954
 11  9 27 19 11  0.0000000  0  7G04G09G08G02G17G28G20
 -18223530.25848 -14165287.28346  20234462.5314                   20234462.5044
   3770358.39147   2956478.54844  22782876.9924                   22782879.8484
  17147588.66046  13363727.20643  23830907.8444                   23830915.8284
   5361373.05147   4196298.45844  23377253.9064                   23377256.1334
    266931.09448    225633.66246  20969151.3444                   20969150.6254
  -1362595.20348  -1043988.39746  21148655.2114                   21148654.2544
   3153891.43446   2466351.79843  23992132.2584                   23992133.7544
 11  9 27 19 11 30.0000000  0  8G04G09G08G02G17G10G28G20
 -18386187.50448 -14292033.13546  20203510.1954                   20203510.1684
   3590340.77747   2816205.16844  22748621.3284                   22748623.0164
  17159009.63346  13372626.19643  23833082.1174                   23833090.3794
   5157052.17247   4037087.63844  23338372.8444                   23338375.1454
    183429.28148    160567.31146  20953261.4064                   20953260.9694
  18695579.46556  14585391.91853  24495703.8524                   24495714.2114
  -1449940.09848  -1112049.39346  21132034.1724                   21132033.0164
   3049552.33246   2385048.67243  23972277.1334                   23972278.2624
 11  9 27 19 12  0.0000000  0  8G04G09G08G02G17G10G28G20
 -16972909.94548 -13190777.83746  20472447.5784                   20472447.9454
   4986234.98447   3903915.02444  23014250.4924                   23014252.9414
  18745895.19546  14609160.01443  24135056.3204                   24135064.5474
   6528312.72747   5105602.62144  23599314.8444                   23599317.0704
   1675451.88348   1323182.32146  21237183.8524   21237183.4304   20073275.28546
  15658921.49243                  24757871.0864                   24757880.6294
     38444.76248     47730.98046  21415264.5234                   21415263.2384
   4521094.63346   3531705.00443  24252302.1254                   24252304.0124
 11  9 27 19 12 30.0000000  0  8G04G09G08G02G17G10G28G20
 -17134559.72748 -13316738.66046  20441686.7424                   20441687.1214
   4807179.15247   3764391.06344  22980177.4224                   22980179.6644
  18757390.33646  14618116.89743  24137243.8914                   24137252.6334
   6324290.38747   4946624.42644  23560490.5634                   23560492.4144
   1592140.36348   1258264.25146  21221330.2894   21221329.9534   19875369.45346
  15504709.54543                  24720210.5634                   24720220.3634
    -48297.61748    -19860.50946  21398758.0164                   21398757.0984
   4417659.83246   3451106.38243  24232618.8284                   24232620.6174
 11  9 27 19 13  0.0000000  0  8G04G09G08G02G17G10G28G20
 -17295706.85248 -13442307.79146  20411021.3444                   20411021.4064
   4628604.84847   3625242.28744  22946195.9924                   22946197.7424
  18768915.00446  14627096.66243  24139437.8984                   24139446.4964
   6120417.02047   4787762.31944  23521694.0164                   23521696.5904
   1508919.49248   1193416.81146  21205494.0084   21205493.3834   19677294.28146
  15350365.67843                  24682517.1804                   24682527.0354
   -134740.05548    -87218.28246  21382308.5394                   21382307.5474
   4314675.39146   3370858.84743  24213021.1174                   24213023.5314
 11  9 27 19 13 30.0000000  0  8G04G09G08G02G17G10G28G20
 -17456346.32448 -13567481.35846  20380452.7344                   20380452.7974
   4450518.43847   3486473.71344  22912307.7664                   22912309.0044
  18780469.91046  14636100.04243  24141636.3134                   24141645.8014
   5916698.31647   4629020.71644  23482928.1954                   23482929.1214
   1425792.12148   1128642.23246  21189675.5004   21189674.8444   19479056.61346
  15195895.20343                  24644793.1644                   24644802.8404
   -220877.79748   -154338.63846  21365917.3444                   21365916.0634
   4212145.77746   3290965.59843  24193511.0634                   24193512.7344
 11  9 27 19 14  0.0000000  0  8G04G09G08G02G17G10G28G20
 -17616472.43048 -13692254.89546  20349981.6254                   20349981.6954
   4272926.44547   3348090.38644  22878512.8984                   22878514.2894
  18792056.18046  14645127.83343  24143842.1564                   24143850.7584
   5713140.28147   4470404.29844  23444192.0944                   23444193.2544
   1342761.58648   1063943.10246  21173875.3134   21173874.6644   19280663.12146
  15041303.29543                  24607040.4844                   24607050.3594
   -306705.75448   -221217.59346  21349584.6414                   21349583.3014
   4110075.85946   3211430.57743  24174087.2114                   24174089.4264
 11  9 27 19 14 30.0000000  0  8G04G09G08G02G17G10G28G20
 -17776080.25848 -13816624.57946  20319609.5314                   20319609.2504
   4095834.84447   3210097.00444  22844813.2664                   22844814.7274
  18803674.65246  14654180.71943  24146052.8284                   24146062.6414
   5509748.30946   4311917.28144  23405487.3524                   23405488.9774
   1259830.82848    999321.72046  21158094.0394   21158093.3524   19082119.99646
  14886594.79243                  24569258.8054                   24569267.9264
   -392218.94548   -287851.27746  21333311.8364                   21333311.4774
   4008469.87546   3132257.09943  24154752.0554                   24154754.4104
 11  9 27 19 15  0.0000000  0  8G04G09G08G02G17G10G28G20
 -17935169.85548 -13940590.44046  20289335.4534                   20289335.6844
   3919244.43047   3072494.11744  22811209.2664                   22811210.7304
  18815321.14546  14663255.49543  24148269.6254                   24148278.8284
   5306523.25846   4153560.33544  23366814.7504                   23366815.9694
   1176997.91848    934776.59546  21142331.3364   21142330.7664   18883428.23846
  14731770.42943                  24531448.2734                   24531457.1374
   -477418.07448   -354240.24846  21317099.2894                   21317098.2424
   3907327.33646   3053444.77543  24135506.0234                   24135507.7854
 11  9 27 19 15 30.0000000  0  8G04G09G08G02G17G10G28G20
 -18093737.28548 -14064149.43746  20259160.9844                   20259160.7894
   3743160.30947   2935285.78644  22777701.4774                   22777703.0864
  18826995.25046  14672351.71143  24150491.6414                   24150501.0124
   5103469.57846   3995336.89944  23328174.5394                   23328176.1214
   1094264.17648    870308.73046  21126587.8984   21126587.2304   18684593.51646
  14576834.69243                  24493610.4384                   24493619.9924
   -562298.98448   -420381.23146  21300946.8134                   21300946.2304
   3806651.75046   2974996.25243  24116348.5164                   24116349.5744
 11  9 27 19 16  0.0000000  0  8G04G09G08G02G17G10G28G20
 -18251780.96548 -14187300.29446  20229086.4534                   20229086.2504
   3567585.16447   2798474.04044  22744290.6804                   22744291.9344
  18838694.33246  14681467.38743  24152717.7974                   24152727.2274
   4900589.27746   3837248.60844  23289567.4384                   23289569.4654
   1011629.20747    805917.83646  21110862.5864   21110862.5164   18485618.62146
  14421789.70742                  24455746.6414                   24455756.3404
   -646860.66047   -486273.48246  21284855.4844                   21284854.3014
   3706443.43446   2896911.91743  24097279.0704                   24097280.7934
 11  9 27 19 16 30.0000000  0  8G04G09G08G02G17G10G28G20
 -18409300.78548 -14310042.97546  20199111.2664                   20199111.1994
   3392520.47347   2662060.05544  22710976.6254                   22710978.4454
  18850414.55146  14690599.54342  24154948.3984                   24154958.2934
   4697883.50046   3679296.25744  23250993.4614                   23250995.6994
    929091.40248    741602.65146  21095156.4304   21095155.7074   18286505.35546
  14266636.92543                  24417856.2584                   24417865.6414
   -731102.80547   -551916.73346  21268824.7504                   21268823.4414
   3606702.52346   2819191.71243  24078299.2344                   24078300.2464
 11  9 27 19 17  0.0000000  0  8G04G09G08G02G17G10G28G20
 -18566293.41848 -14432374.84746  20169236.6954                   20169236.2034
   3217970.10547   2526046.83644  22677761.0084                   22677762.4774
  18862154.49246  14699747.06243  24157183.3134                   24157192.9024
   4495355.52046   3521482.46144  23212453.7734                   23212455.4144
    846651.68447    677363.88746  21079468.6954   21079468.1994   18087258.22746
  14111379.84042                  24379941.4774                   24379949.2074
   -815022.91047   -617309.04846  21252855.6644                   21252853.9964
   3507431.48846   2741837.62443  24059408.0084                   24059409.2464
 11  9 27 19 17 30.0000000  0  8G04G09G08G02G17G10G28G20
 -18722756.54348 -14554294.11246  20139462.8284                   20139462.2194
   3043938.20746   2390437.63744  22644643.5634                   22644645.8954
  18873912.82446  14708908.89842  24159421.6174                   24159430.0594
   4293009.12547   3363810.16344  23173949.1724                   23173949.8204
    764310.66048    613202.04146  21063799.6564   21063799.1914   17887881.54746
  13956021.78443                  24342000.1954                   24342009.4774
   -898618.36348   -682448.38546  21236947.8524                   21236946.8204
   3408632.00046   2664851.10543  24040607.4694                   24040608.9304
 11  9 27 19 18  0.0000000  0  8G04G09G08G02G17G10G28G20
 -18878685.96548 -14675797.52446  20109790.2504                   20109790.0354
   2870429.72346   2255236.29044  22611626.0004                   22611627.9804
  18885689.63345  14718085.05942  24161661.7114                   24161672.0354
   4090848.75846   3206282.79844  23135478.5314                   23135479.7704
    682070.57448    549118.83946  21048149.9774   21048149.6214   17688380.52346
  13800566.89443                  24304035.8524                   24304045.2464
   -981885.25448   -747331.71846  21221102.5164                   21221101.5664
   3310307.73446   2588234.74143  24021897.3284                   24021898.7584
 11  9 27 19 18 30.0000000  0  8G04G09G08G02G17G10G28G20
 -19034080.00048 -14796883.74046  20080219.6484                   20080219.6214
   2697447.17647   2120444.74844  22578708.5314                   22578710.4774
  18897482.68046  14727274.01242  24163906.8134                   24163917.1214
   3888876.88747   3048902.34144  23097044.5944                   23097045.8244
    599931.01648    485113.97246  21032519.3444   21032518.4884   17488758.38346
  13645017.48943                  24266049.1644                   24266057.3244
  -1064822.41048   -811958.09846  21205320.1564                   21205319.3834
   3212459.53146   2511989.46743  24003276.9384                   24003278.9304
 11  9 27 19 19  0.0000000  0  8G04G09G08G02G17G10G28G20
 -17613515.85948 -13689950.59646  20350543.8914                   20350543.8634
   4100415.16447   3213666.59944  22845684.6484                   22845686.2544
  20484704.73046  15964069.94943  24465946.0704                   24465956.3444
   5262518.65647   4119272.74744  23358439.5474                   23358440.8594
   2093310.64148   1648786.38346  21316700.1094   21316699.2734   18864441.30546
  14716978.71343                  24527832.3914                   24527841.5354
    427990.66848    351272.84846  21489392.9694                   21489391.8134
   4690507.51246   3663715.15043  24284540.1804                   24284542.1334
 11  9 27 19 19 30.0000000  0  8G04G09G08G02G17G10G28G20
 -17767837.66848 -13810201.32146  20321177.7114                   20321177.2304
   3928489.45747   3079698.55944  22812968.1094                   22812970.2584
  20496519.12146  15973275.44443  24468193.9694                   24468204.5124
   5060927.55547   3962188.98044  23320078.3284                   23320079.0234
   2011368.10248   1584935.03946  21301107.0164   21301106.4344   18664583.65246
  14561245.82543                  24489800.2734                   24489809.0594
    345714.19148    287161.27446  21473736.5634                   21473735.5234
   4593611.29746   3588211.63743  24266100.2344                   24266103.1334
 11  9 27 19 20  0.0000000  0  8G04G09G08G02G17G10G28G20
 -17921619.45348 -13930031.24046  20291913.9924                   20291913.7154
   3757097.60247   2946146.50045  22780353.5704                   22780354.8484
  20508342.20746  15982487.75843  24470445.0164                   24470455.1914
   4859531.43447   3805257.14645  23281753.6174                   23281754.7234
   1929525.02348   1521161.20746  21285532.7034   21285531.9344   18464614.34446
  14405425.90043                  24451747.3204                   24451756.4574
    263772.15247    223310.30446  21458143.3984                   21458142.2894
   4497193.71546   3513081.01243  24247753.0784                   24247755.5394
 11  9 27 19 20 30.0000000  0  8G04G09G08G02G17G10G28G20
 -18074862.19948 -14049441.12446  20262752.7034                   20262752.3954
   3586240.21946   2813010.91944  22747840.3834                   22747841.5474
  20520169.16846  15991703.03143  24472694.9924                   24472706.0784
   4658330.63747   3648477.50445  23243465.6644                   23243467.8524
   1847778.99647   1457462.98246  21269977.1414   21269976.3914   18264534.18046
  14249519.68043                  24413673.0314                   24413682.4844
    182163.08248    159718.79646  21442613.6644                   21442612.6254
   4401253.61746   3438322.45543  24229497.1954                   24229498.5394
 11  9 27 19 21  0.0000000  0  8G04G09G08G02G17G10G28G20
 -18227562.94948 -14168428.67246  20233694.6334                   20233694.1804
   3415921.06646   2680294.73144  22715429.6414                   22715431.2194
  20531998.68846  16000920.29343  24474947.2894                   24474957.9654
   4457328.62146   3491852.76244  23205216.2034                   23205217.4774
   1766130.82447   1393841.01546  21254439.7344   21254439.1994   18064348.01245
  14093530.85643                  24375579.1334                   24375586.8094
    100889.96547     96389.07446  21427148.1884                   21427147.1334
   4305793.08646   3363937.72543  24211331.4844                   24211333.0164
 11  9 27 19 21 30.0000000  0  7G04G09G02G17G10G28G20
 -18379723.04348 -14286994.95246  20204739.2974                   20204739.1724
   3246139.77046   2547997.67144  22683120.9924                   22683123.1684
   4256524.99647   3335382.62645  23167004.6254                   23167005.9304
   1684577.84447   1330293.22646  21238920.7114   21238919.9844   17864056.21546
  13937459.75043                  24337464.3204                   24337472.2854
     19951.39147     33320.01146  21411745.5634                   21411744.7464
   4210810.39146   3289925.21543  24193256.9614                   24193257.8164
 11  9 27 19 22  0.0000000  0  7G04G09G02G17G10G28G20
 -18531340.28948 -14405138.20746  20175887.4064                   20175887.2384
   3076899.63746   2416122.29544  22650915.2974                   22650916.7544
   4055922.72747   3179069.37645  23128831.5004                   23128832.1604
   1603120.21948   1266819.75146  21223419.9064   21223419.3164   17663662.66446
  13781309.35443                  24299330.3284                   24299338.4344
    -60650.85947    -29486.95446  21396407.6334                   21396406.5044
   4116306.99646   3216286.21343  24175273.1414                   24175274.8914
 11  9 27 19 22 30.0000000  0  7G04G09G02G17G10G28G20
 -18682403.74648 -14522849.95046  20147141.0394                   20147140.9414
   2908213.06646   2284678.27044  22618815.5554                   22618817.0904
   3855533.52046   3022922.16145  23090697.9224                   23090699.0984
   1521767.34047   1203427.88846  21207939.0004   21207938.2854   17463180.32046
  13625089.74443                  24261179.7814                   24261187.5704
   -140905.66047    -92023.19846  21381135.4924                   21381134.6994
   4022293.25446   3143028.81543  24157382.7894                   24157384.6334
 11  9 27 19 23  0.0000000  0  7G04G09G02G17G10G28G20
 -18832903.31648 -14640122.30046  20118502.1254                   20118501.6414
   2740090.91847   2153674.04844  22586823.1334                   22586824.8094
   3655368.15647   2866949.35845  23052607.7814                   23052608.8954
   1440527.80947   1140124.34946  21192479.5944   21192478.9184   17262621.03146
  13468810.15043                  24223013.9304                   24223022.6914
   -220803.04747   -154280.93146  21365931.5084                   21365930.9964
   3928778.62146   3070160.18443  24139587.7664                   24139589.7074
 11  9 27 19 23 30.0000000  0  7G04G09G02G17G10G28G20
 -18982843.08648 -14756958.44346  20089969.3834                   20089969.0084
   2572530.48447   2023107.50544  22554937.2344                   22554939.1684
   3455423.64846   2711148.66445  23014559.4774                   23014559.9964
   1359395.43447   1076904.31646  21177040.5474   21177040.1414   17061982.56346
  13312468.95143                  24184833.8754                   24184841.4454
   -300347.25447   -216263.48146  21350794.6724                   21350794.2384
   3835758.40246   2997676.90043  24121887.0164                   24121888.4414
 11  9 27 19 24  0.0000000  0  7G04G09G02G17G10G28G20
 -19132221.66448 -14873357.29646  20061543.4064                   20061543.0474
   2405534.23847   1892980.60245  22523159.1414                   22523160.5164
   3255702.26647   2555521.81145  22976553.7344                   22976554.7034
   1278370.48447   1013767.97746  21161622.1644   21161621.3364   16861268.49246
  13156068.83943                  24146638.6484                   24146646.5234
   -379536.66447   -277969.54246  21335725.6254                   21335724.7304
   3743233.29746   2925579.37142  24104279.0784                   24104281.3444
 11  9 27 19 24 30.0000000  0  7G04G09G02G17G10G28G20
 -19281043.52348 -14989322.33546  20033223.5004                   20033223.3484
   2239098.82447   1763290.72145  22491487.4454                   22491489.1684
   3056200.43447   2400066.03145  22938589.5314                   22938590.2854
   1197446.71148    950710.48746  21146222.8754   21146222.1094   16660476.14145
  12999607.69043                  24108429.1174                   24108436.6804
   -458376.15647   -339402.96046  21320723.3054                   21320722.2894
   3651198.34846   2853863.83343  24086766.3914                   24086767.5984
 11  9 27 19 25  0.0000000  0  7G04G09G02G17G10G28G20
 -19429309.48048 -15104854.20846  20005009.2814                   20005009.1134
   2073224.44147   1634038.00645  22459923.0704                   22459924.2854
   2856918.14147   2244781.32645  22900667.1484                   22900668.1214
   1116621.97747    887730.16246  21130842.5554   21130841.9734   16459606.69546
  12843086.48843                  24070204.1174                   24070211.6994
   -536866.38747   -400564.21846  21305787.0554                   21305786.2624
   3559652.11746   2782529.09442  24069345.8284                   24069347.3284
 11  9 27 19 25 30.0000000  0  7G04G09G02G17G10G28G20
 -19577014.84448 -15219949.25546  19976902.0554                   19976902.2034
   1907916.92247   1505227.00145  22428465.8364                   22428467.2544
   2657861.13747   2089672.14945  22862787.6094                   22862788.2584
   1035899.29748    824829.37146  21115481.5004   21115480.2424   16258666.72346
  12686510.37343                  24031967.0394                   24031974.0274
   -615002.69548   -461449.69446  21290918.2584                   21290917.4184
   3468598.49646   2711578.22943  24052018.5004                   24052019.6524
 11  9 27 19 26  0.0000000  0  7G04G09G02G17G10G28G20
 -19724161.75448 -15334609.15446  19948900.9694                   19948900.3954
   1743175.53947   1376857.16645  22397116.2584                   22397118.1564
   2459028.42246   1934737.76145  22824950.7034                   22824952.0474
    955274.84447    762005.11046  21100138.8054   21100138.2774   16057656.32346
  12529879.37743                  23993715.3054                   23993721.9774
   -692787.10947   -522060.97546  21276116.4064                   21276115.8364
   3378035.10946   2641009.31642  24034785.1954                   24034785.9064
 11  9 27 19 26 30.0000000  0  7G04G09G02G17G10G28G20
 -18295326.73848 -14221231.18046  20220799.2034                   20220798.9104
   3154425.37147   2476532.39745  22665668.8594                   22665669.6254
   3835846.02747   3007582.83144  23086950.6334                   23086951.4104
   2450168.99647   1926857.69646  21384607.9144   21384607.1134   17432002.93046
  13600799.21343                  24255243.5704                   24255251.4694
    805201.95347    645203.17146  21561174.1564                   21561173.1604
   4863382.67246   3798423.04943  24317436.9844                   24317438.8714
 11  9 27 19 27  0.0000000  0  7G04G09G02G17G10G28G20
 -18441355.37148 -14335019.69246  20193010.8364                   20193010.4534
   2990820.59447   2349048.20544  22634535.3204                   22634536.9574
   3637465.50847   2853000.77245  23049199.8134                   23049200.2034
   2369739.26247   1864185.17346  21369302.7504   21369301.8714   17230859.25846
  13444064.34243                  24216967.7274                   24216974.2974
    728122.69548    585141.36145  21546506.5864                   21546505.8874
   4773798.82446   3728617.40843  24300389.8754                   24300392.0784
 11  9 27 19 27 30.0000000  0  7G04G09G02G17G10G28G20
 -18586827.02348 -14448374.18846  20165328.6564                   20165327.9384
   2827783.47747   2222006.35044  22603510.5864                   22603511.7114
   3439310.40647   2698594.38045  23011492.1174                   23011492.7624
   2289401.96547   1801584.66746  21354015.2114   21354014.1414   17029649.86746
  13287278.10843                  24178678.1024                   24178685.1484
    651393.70748    525352.48546  21531905.8134                   21531904.9384
   4684701.77746   3659191.15242  24283435.1884                   24283436.8324
 11  9 27 19 28  0.0000000  0  7G04G09G02G17G10G28G20
 -18731741.54348 -14561294.55546  20137752.0084                   20137751.8054
   2665315.58647   2095408.04244  22572593.5944                   22572595.3554
   3241382.15647   2544364.74945  22973827.5394                   22973827.9344
   2209156.28147   1739055.55946  21338744.5634   21338743.9734   16828377.11746
  13130442.67143                  24140376.7814                   24140383.7934
    575015.37147    465836.85346  21517371.3524                   21517370.7664
   4596091.13746   3590143.88342  24266572.8984                   24266573.9224
 11  9 27 19 28 30.0000000  0  7G04G09G02G17G10G28G20
 -18876096.64548 -14673779.02146  20110282.5004                   20110282.0944
   2503420.16447   1969255.82744  22541785.8054                   22541787.0124
   3043684.02047   2390314.41845  22936206.3914                   22936207.2704
   2129003.30948   1676598.68846  21323492.1484   21323491.3164   16627045.77046
  12973561.50843                  24102064.2424                   24102071.1764
    498990.20748    406596.42746  21502903.9144                   21502903.6994
   4507968.39846   3521476.85943  24249803.8364                   24249805.7704
 11  9 27 19 29  0.0000000  0  7G04G09G02G17G10G28G20
 -19019894.84848 -14785829.53946  20082918.4844                   20082917.9804
   2342096.04747   1843548.77444  22511086.4774                   22511087.8324
   2846214.35547   2236442.12645  22898629.3754                   22898629.6994
   2048939.35547   1614211.18546  21308256.5164   21308255.6564   16425655.55146
  12816634.40743                  24063740.9304                   24063747.7074
    423315.62948    347629.17546  21488503.9774                   21488502.8984
   4420330.56346   3453187.56043  24233127.1174                   24233128.6914
 11  9 27 19 29 30.0000000  0  7G04G09G02G17G10G28G20
 -19163136.34448 -14897446.26046  20055660.7664                   20055660.3794
   2181344.23847   1718287.66344  22480496.3134                   22480498.1174
   2648974.24647   2082748.69445  22861095.7344                   22861096.3874
   1968962.65648   1551891.65846  21293037.5704   21293036.7114   16224208.50446
  12659663.01043                  24025407.0394                   24025413.1884
    347991.45748    288934.95946  21474170.2664                   21474169.3794
   4333177.10546   3385275.88043  24216542.1644                   24216543.9384
 11  9 27 19 30  0.0000000  0  7G04G09G02G17G10G28G20
 -19305820.78548 -15008628.91146  20028508.3594                   20028508.2154
   2021166.05947   1593473.54345  22450015.4304                   22450017.1454
   2451965.41847   1929235.46645  22823605.5164                   22823606.3244
   1889072.72348   1489639.75146  21277834.9694   21277834.0664   16022707.45346
  12502649.56143                  23987061.8364                   23987068.5434
    273018.09848    230514.11846  21459903.5394                   21459902.7704
   4246507.58646   3317741.21542  24200049.5084                   24200051.2974
 11  9 27 19 30 30.0000000  0  7G04G09G02G17G10G28G20
 -19447951.58648 -15119380.14746  20001461.8444                   20001461.5594
   1861559.32047   1469104.69545  22419643.6884                   22419644.7384
   2255184.93447   1775900.19645  22786159.5164                   22786160.1804
   1809264.84847   1427451.78746  21262648.2274   21262647.5514   15821151.00846
  12345592.93043                  23948707.0234                   23948713.0554
    198392.48848    172364.24245  21445702.7274                   21445701.2814
   4160317.89846   3250580.47342  24183648.2114                   24183648.9384
 11  9 27 19 31  0.0000000  0  7G04G09G02G17G10G28G20
 -19589522.38748 -15229695.02846  19974521.6254                   19974521.4924
   1702531.34447   1345186.85245  22389381.7114                   22389382.8164
   2058640.54747   1622748.85245  22748758.6564                   22748758.6174
   1729544.23047   1365331.80246  21247477.6334   21247476.9224   15619547.93446
  12188499.97443                  23910342.3754                   23910349.1914
    124120.82048    114490.18445  21431569.4534                   21431568.2304
   4074613.76646   3183798.05243  24167339.1094                   24167340.6454
 11  9 27 19 31 30.0000000  0  7G04G09G02G17G10G28G20
 -19730535.05147 -15339574.99346  19947687.5944                   19947687.6844
   1544081.50847   1221719.49045  22359229.5004                   22359230.9734
   1862331.41447   1469780.85445  22711401.7734                   22711402.2274
   1649907.68847   1303277.34646  21232323.7664   21232322.8324   15417898.89846
  12031371.19243                  23871969.5554                   23871975.9964
     50201.45747     56890.63046  21417503.0394                   21417501.8984
   3989392.84046   3117392.09343  24151122.7504                   24151123.9654
 11  9 27 19 32  0.0000000  0  7G04G09G02G17G10G28G20
 -19870991.61348 -15449021.63546  19920959.9144                   19920959.6564
   1386209.07447   1098702.04744  22329187.5234                   22329188.6334
   1666256.96547   1316995.70845  22674090.3754                   22674090.4614
   1570352.45347   1241286.23346  21217184.6414   21217184.1764   15216204.48046
  11874207.04643                  23833587.8134                   23833594.5314
    -23367.16848      -435.61745  21403503.2274                   21403502.3794
   3904652.71946   3051360.88643  24134996.9454                   24134998.8524
 11  9 27 19 32 30.0000000  0  7G04G09G02G17G10G28G20
 -20010888.00448 -15558031.78246  19894338.5004                   19894338.0944
   1228918.78547    976138.23645  22299256.3594                   22299257.2034
   1470422.10247   1164397.25345  22636824.2034                   22636824.2814
   1490881.28548   1179360.63646  21202061.7034   21202061.1844   15014471.10246
  11717012.53543                  23795199.2344                   23795205.7854
    -96581.50047    -57485.78346  21389570.8364                   21389570.2384
   3820396.55946   2985706.72843  24118963.4774                   24118965.1294
 11  9 27 19 33  0.0000000  0  7G04G09G02G17G10G28G20
 -20150225.01248 -15666606.03946  19867823.4454                   19867823.1914
   1072211.53947    854028.76245  22269435.5784                   22269437.0314
   1274827.43847   1011985.97645  22599603.3674                   22599603.6724
   1411492.64548   1117499.34046  21186954.1484   21186953.8524   14812700.78546
  11559789.23444                  23756803.6174                   23756810.3284
   -169441.71148   -114260.02546  21375706.3914                   21375705.5044
   3736623.09046   2920428.69043  24103021.6174                   24103023.4414
 11  9 27 19 33 30.0000000  0  7G04G09G02G17G10G28G20
 -18713580.02348 -14547142.38546  20141207.9454                   20141207.7274
   2491511.24647   1959976.63045  22539519.3444                   22539520.5634
   2654898.43047   2087366.10445  22862221.8204                   22862222.2814
   2907606.24247   2283302.12146  21471655.2424   21471654.6994   16186320.48046
  12630142.55743                  24018194.3284                   24018201.2384
   1333472.66848   1056842.04646  21661701.1724                   21661700.7664
   5228752.53546   4083126.93943  24386965.3594                   24386966.3984
 11  9 27 19 34  0.0000000  0  7G04G09G02G17G10G28G20
 -18851802.14847 -14654847.91346  20114905.0554                   20114905.0664
   2335968.75047   1838774.73645  22509920.6254                   22509922.1024
   2459783.50447   1935328.64945  22825092.6804                   22825093.1914
   2828375.73847   2221564.05246  21456578.5864   21456577.6954   15984479.72746
  12472864.45143                  23979785.5864                   23979791.5234
   1261317.10948   1000616.88445  21647970.6414                   21647969.8444
   5145939.03946   4018596.90743  24371205.8134                   24371206.4574
 11  9 27 19 34 30.0000000  0  7G04G09G02G17G10G28G20
 -18989469.04748 -14762120.79646  20088708.1254                   20088707.7274
   2181008.36747   1718026.44545  22480432.3594                   22480433.3984
   2264908.06347   1783477.78345  22788008.6414                   22788009.1524
   2749220.59847   2159884.70046  21441515.6954   21441515.0634   15782605.47346
  12315560.16043                  23941369.7034                   23941375.9264
   1189512.14848    944664.93945  21634306.4144                   21634305.8134
   5063602.24646   3954438.40243  24355537.7974                   24355538.7074
 11  9 27 19 35  0.0000000  0  7G04G09G02G17G10G28G20
 -19126582.03148 -14868962.05146  20062616.1804                   20062615.8634
   2026630.16447   1597731.80745  22451055.3134                   22451056.9884
   2070272.25847   1631813.65545  22750971.2274                   22750970.9454
   2670138.75848   2098262.46746  21426466.7584   21426466.1764   15580699.12146
  12158230.87043                  23902948.0474                   23902953.8164
   1118056.60948    888985.25145  21620708.8914                   21620708.5084
   4981740.57046   3890650.04043  24339959.6484                   24339960.9694
 11  9 27 19 35 30.0000000  0  7G04G09G02G17G10G28G20
 -19263133.37148 -14975365.68246  20036631.6414                   20036630.8484
   1872842.56647   1477897.37545  22421790.2584                   22421791.8984
   1875885.16447   1480343.32845  22713980.2584                   22713980.3594
   2591137.44947   2036702.97746  21411433.5004   21411433.0314   15378770.57046
  12000884.29243                  23864521.8754                   23864527.2774
   1046958.35548    833583.97645  21607179.3754                   21607178.6374
   4900360.94546   3827237.37343  24324474.0234                   24324475.3204
 11  9 27 19 36  0.0000000  0  7G04G09G02G17G10G28G20
 -19399125.99248 -15081333.92846  20010753.1414                   20010752.3754
   1719644.23847   1358522.10545  22392637.5314                   22392638.9804
   1681745.05547   1329065.43245  22677036.3204                   22677036.4654
   2512212.43847   1975202.96046  21396414.5864   21396413.9024   15176820.28146
  11843520.75843                  23826091.5704                   23826097.3244
    976214.89548    778459.14545  21593717.5234                   21593717.3164
   4819460.17246   3764197.76642  24309079.1414                   24309080.3554
 11  9 27 19 36 30.0000000  0  7G04G09G02G17G10G28G20
 -19534561.12948 -15186867.76646  19984980.2274                   19984979.8014
   1567034.70747   1239605.64945  22363597.0084                   22363597.9534
   1487852.12947   1177980.16845  22640139.8524                   22640139.8284
   2433361.84847   1913760.93446  21381409.7114   21381408.9454   14974849.70746
  11686141.40943                  23787657.5944                   23787663.9574
    905825.33248    723610.08945  21580322.8594                   21580322.2344
   4739036.29746   3701529.66243  24293774.9614                   24293776.1134
 11  9 27 19 37  0.0000000  0  7G04G09G02G17G10G28G20
 -19669437.10548 -15291965.91546  19959314.3204                   19959313.7974
   1415016.74647   1121150.12445  22334669.2894                   22334669.8634
   1294208.93047   1027089.49945  22603290.5634                   22603290.6524
   2354586.49248   1852377.52346  21366419.7974   21366419.0634   14772863.37146
  11528749.76043                  23749220.8914                   23749226.7974
    835791.07448    669037.88545  21566995.6954                   21566995.3834
   4659090.35246   3639234.18243  24278561.3754                   24278562.9064
 11  9 27 19 37 30.0000000  0  7G04G09G02G17G10G28G20
 -19803752.36748 -15396627.13346  19933754.9064                   19933754.7234
   1263593.21947   1003157.81945  22305853.8674                   22305854.6764
   1100818.57047    876395.83645  22566489.7034                   22566489.6954
   2275887.31347   1791053.46146  21351443.4534   21351442.8754   14570865.44146
  11371349.08443                  23710781.9534                   23710786.6914
    766114.21548    614744.18645  21553736.3914                   21553736.3444
   4579623.53946   3577311.92843  24263439.5234                   24263441.1764
 11  9 27 19 38  0.0000000  0  7G04G09G02G17G10G28G20
 -19937508.00048 -15500852.27346  19908301.9064                   19908301.6454
   1112763.87147    885628.48545  22277152.1644                   22277152.9264
    907681.29747    725899.38345  22529736.5084                   22529736.9144
   2197262.66448   1729787.49546  21336481.6024   21336480.8874   14368857.83247
  11213940.82843                  23672341.2974                   23672346.1644
    696793.85548    560728.27445  21540545.4614                   21540544.9264
   4500634.16046   3515761.72143  24248408.1564                   24248409.8364
 11  9 27 19 38 30.0000000  0  7G04G09G02G17G10G28G20
 -20070703.16448 -15604640.68046  19882955.7344                   19882955.3874
    962530.73447    768563.73945  22248563.7584                   22248564.5864
    714799.34447    575601.88245  22493032.4144                   22493032.6094
   2118712.61748   1668579.64746  21321534.1954   21321533.6764   14166844.16447
  11056527.85044                  23633898.8914                   23633903.7664
    627831.10548    506991.00745  21527422.5634                   21527421.9264
   4422122.72746   3454584.03543  24233467.9844                   24233469.7384
 11  9 27 19 39  0.0000000  0  7G04G09G02G17G10G28G20
 -20203336.40648 -15707991.23046  19857716.1174                   19857715.9264
    812896.50847    651965.68045  22220089.5784                   22220089.9454
    522175.42647    425505.45545  22456376.8444                   22456377.4924
   2040238.04347   1607430.60846  21306600.8524   21306600.2814   13964828.57447
  10899113.36543                  23595456.1564                   23595461.2274
    559228.09848    453534.06845  21514367.7814                   21514367.1764
   4344089.60546   3393778.88643  24218619.3134                   24218621.2424
 11  9 27 19 39 30.0000000  0  7G04G09G02G17G10G28G20
 -20335410.40648 -15810906.00646  19832583.4774                   19832582.9884
    663859.79347    535833.20445  22191728.4304                   22191729.2154
    329808.60547    275609.35045  22419770.9304                   22419770.9924
   1961835.80948   1546337.95046  21291681.3284   21291680.7304   13762811.75447
  10741697.90643                  23557013.8754                   23557018.6954
    490982.30548    400355.46245  21501381.2274                   21501380.7624
   4266532.04346   3333344.41543  24203860.1564                   24203862.2894
 11  9 27 19 40  0.0000000  0  7G04G09G02G17G10G28G20
 -20466920.53548 -15913381.41346  19807558.0164                   19807557.6134
    515426.12947    420170.61645  22163482.3444                   22163483.8134
    137704.60247    125918.03245  22383214.6174                   22383214.4924
   1883509.68848   1485304.59546  21276776.5394   21276776.1054   13560800.98046
  10584287.15943                  23518572.3054                   23518577.3634
    423098.40648    347458.87645  21488463.4924                   21488462.8914
   4189453.61346   3273283.33543  24189192.9924                   24189194.2894
 11  9 27 19 40 30.0000000  0  7G04G09G02G17G10G28G20
 -20597870.75448 -16015420.51946  19782638.9844                   19782638.8094
    367592.69547    304975.78545  22135350.4844                   22135351.8914
    -54139.04347    -23570.40345  22346707.7974                   22346707.9264
   1805255.54347   1424327.32546  21261885.0784   21261884.6134   13358795.53547
  10426880.56744                  23480131.8204                   23480136.2344
    355572.81348    294841.46745  21475613.7814                   21475612.8954
   4112850.28946   3213592.39343  24174616.1644                   24174617.3554
 11  9 27 19 41  0.0000000  0  7G04G09G02G17G10G28G20
 -19152833.94948 -14889417.78746  20057620.3594                   20057619.9964
   1795788.35947   1417855.56545  22407126.6954                   22407128.8324
   1329708.40247   1054752.39445  22610045.0634                   22610044.8524
   3302498.07847   2591009.81346  21546801.1564   21546800.2154   14732227.93046
  11497087.86244                  23741486.8834                   23741492.0004
   1863830.94547   1470107.49245  21762625.9534                   21762625.2664
   5612146.82846   4381875.37743  24459922.4224                   24459924.5164
 11  9 27 19 41 30.0000000  0  7G04G09G02G17G10G28G20
 -19282659.39148 -14990580.44046  20032915.4064                   20032915.0944
   1649163.71547   1303602.60545  22379225.5944                   22379226.5864
   1138395.00447    905677.14845  22573639.9384                   22573639.3324
   3224391.06347   2530147.19346  21531937.8754   21531937.3914   14530247.11746
  11339700.48644                  23703050.8364                   23703055.7424
   1797028.38348   1418053.49545  21749913.7194                   21749913.2194
   5536497.16446   4322927.54343  24445526.6564                   24445528.5944
 11  9 27 19 42  0.0000000  0  7G04G09G02G17G10G28G20
 -19411923.33648 -15091305.56446  20008317.0634                   20008316.5314
   1503144.07847   1189821.10345  22351438.3754                   22351439.9144
    947347.85247    756809.36045  22537284.3054                   22537283.8674
   3146356.23048   2469340.80546  21517088.2894   21517087.7704   14328282.70746
  11182325.87043                  23664618.0784                   23664623.6524
   1730586.98047   1366280.91945  21737270.6254                   21737270.1174
   5461322.36746   4264349.74443  24431221.4304                   24431222.8634
 11  9 27 19 42 30.0000000  0  7G04G09G02G17G10G28G20
 -19540626.81248 -15191593.97146  19983825.8984                   19983825.3404
   1357729.89547   1076511.37445  22323767.1644                   22323768.7734
    756567.51647    608149.46545  22500979.6174                   22500979.6134
   3068392.09048   2408589.51346  21502252.3984   21502251.5744   14126336.50046
  11024965.45943                  23626188.6174                   23626194.0784
   1664505.95748   1314789.16245  21724695.3674                   21724695.2624
   5386621.05546   4206140.96943  24417006.3364                   24417007.9494
 11  9 27 19 43  0.0000000  0  7G04G09G02G17G10G28G20
 -19668771.96548 -15291447.30946  19959440.5784                   19959440.1724
   1212919.71547    963672.30445  22296210.5704                   22296212.6884
    566053.23847    459696.90445  22464725.7424                   22464725.5314
   2990495.91048   2347891.16846  21487429.2274   21487428.4654   13924409.34046
  10867619.88744                  23587762.5944                   23587768.0634
   1598783.48047   1263576.79045  21712189.1484                   21712188.4844
   5312390.60546   4148299.04843  24402880.6954                   24402882.2504
 11  9 27 19 43 30.0000000  0  7G04G09G02G17G10G28G20
 -19796354.70348 -15390862.39246  19935162.4384                   19935161.7854
   1068719.07847    851308.19845  22268770.1334                   22268771.6764
    375810.78548    311456.14945  22428523.7664                   22428523.6994
   2912671.94148   2287249.09546  21472619.6334   21472619.0904   13722509.18446
  10710295.34244                  23549342.6024                   23549347.3404
   1533424.10547   1212647.35445  21699751.4774                   21699751.0634
   5238634.49246   4090826.68643  24388844.8134                   24388847.0354
 11  9 27 19 44  0.0000000  0  7G04G09G02G17G10G28G20
 -19923374.24648 -15489838.64146  19910991.2504                   19910990.9064
    925129.61747    739420.32745  22241446.1804                   22241447.4654
    185842.32448    163428.88745  22392374.7584                   22392373.9694
   2834920.41848   2226663.47346  21457824.6094   21457823.2774   13520639.46146
  10552994.51144                  23510928.0394                   23510932.4734
   1468429.16847   1162001.88445  21687383.3284                   21687382.9184
   5165353.03146   4033724.34643  24374900.2344                   24374901.6994
 11  9 27 19 44 30.0000000  0  7G04G09G02G17G10G28G20
 -20049835.52748 -15588379.87446  19886926.6174                   19886926.2544
    782147.43847    628005.65445  22214237.3754                   22214238.7934
     -3855.31248     15612.65145  22356275.9534                   22356275.2704
   2757236.42648   2166130.47846  21443041.3754   21443040.8674   13318798.82046
  10395716.37044                  23472518.6174                   23472523.6334
   1403793.90247   1111636.68645  21675084.0784                   21675083.1294
   5092540.73446   3976987.42043  24361044.5634                   24361046.4804
 11  9 27 19 45  0.0000000  0  7G04G09G02G17G10G28G20
 -20175739.65248 -15686486.96546  19862967.9454                   19862967.2894
    639772.76247    517064.37245  22187144.3754                   22187145.9064
   -193281.70348   -131992.22045  22320229.4454                   22320228.9614
   2679618.20748   2105648.72446  21428271.0394   21428270.4224   13116989.70346
  10238462.78144                  23434115.9454                   23434119.8914
   1339517.96547   1061551.50945  21662852.6094                   21662852.2194
   5020196.30946   3920615.05243  24347278.7504                   24347280.1994
 11  9 27 19 45 30.0000000  0  7G04G09G02G17G10G28G20
 -20301085.57848 -15784159.08546  19839115.2194                   19839114.4614
    498007.83247    406598.22045  22160167.2194                   22160168.8524
   -382434.27748   -279383.72945  22284234.2664                   22284233.9804
   2602066.87147   2045219.09246  21413513.8914   21413512.8054   12915216.25047
  10081236.94544                  23395719.4144                   23395723.9224
   1275602.67247   1011747.32045  21650690.0084                   21650689.7234
   4948320.07846   3864607.61143  24333600.4224                   24333602.7894
 11  9 27 19 46  0.0000000  0  7G04G09G02G17G10G28G20
 -20425873.75048 -15881396.60046  19815368.8134                   19815368.1914
    356853.06347    296607.52345  22133306.3754                   22133307.9694
   -571312.06648   -426561.11545  22248292.4454                   22248291.4804
   2524581.92248   1984841.19446  21398768.7194   21398767.9964   12713481.04746
   9924040.93243                  23357330.2114                   23357334.7774
   1212048.09047    962224.21445  21638595.6564                   21638595.8284
   4876910.98846   3808964.13743  24320012.3594                   24320013.2114
 11  9 27 19 46 30.0000000  0  7G04G09G02G17G10G28G20
 -20550103.37948 -15978198.88746  19791728.5394                   19791728.0474
    216310.23047    187093.63445  22106562.2894                   22106563.5864
   -759912.68748   -573522.53345  22212402.7734                   22212402.0474
   2447163.91048   1924515.45346  21384036.4454   21384036.1254   12511788.46546
   9766878.13444                  23318948.8834                   23318953.1294
   1148855.29747    912983.03045  21626571.0234                   21626570.1524
   4805969.55946   3753685.08243  24306511.9304                   24306513.5514
 11  9 27 19 47  0.0000000  0  7G04G09G02G17G10G28G20
 -20673775.85548 -16074567.02846  19768194.6954                   19768193.9844
     76379.05947     78056.36945  22079934.3674                   22079935.2034
   -948235.57848   -720267.54145  22176566.0634                   22176565.2384
   2369811.23048   1864240.62146  21369316.5704   21369316.1804   12310140.75046
   9609750.32044                  23280575.8674                   23280580.1954
   1086023.58647    864023.21245  21614614.0084                   21614613.5744
   4735493.84046   3698768.95743  24293100.5164                   24293103.0744
 11  9 27 19 47 30.0000000  0  7G04G09G02G17G10G28G20
 -20796891.09448 -16170500.96046  19744766.4144                   19744766.1254
    -62939.34047    -30503.39745  22053422.9774                   22053424.0084
  -1136279.19548   -866794.92145  22140782.1414                   22140782.1764
   2292523.90648   1804016.71946  21354609.6564   21354608.9844   12108541.09447
   9452659.88744                  23242213.5784                   23242216.6214
   1023553.18847    815344.93945  21602726.8444                   21602726.4614
   4665483.22746   3644215.18143  24279778.2274                   24279780.3874
 11  9 27 19 48  0.0000000  0  7G04G09G02G17G10G28G20
 -19344026.60548 -15038398.74646  20021237.3984                   20021236.7154
   1373779.21947   1089017.58645  22326821.0394                   22326822.5124
    251382.76247    214500.22545  22404845.2734                   22404844.9264
   3790723.07048   2971444.61546  21639707.8444   21639706.8554   13482418.54747
  10523214.01644                  23503652.8754                   23503656.9144
   2536865.17647   1994549.03745  21890700.3524                   21890699.8594
   6171358.18446   4817624.22143  24566337.1884                   24566338.9224
 11  9 27 19 48 30.0000000  0  7G04G09G02G17G10G28G20
 -19466029.61348 -15133466.00846  19998021.0474                   19998020.2934
   1235687.41047    981413.56345  22300543.0004                   22300544.3094
     63900.49248     68410.25745  22369168.8204                   22369168.5084
   3713564.42648   2911320.98546  21625024.3914   21625023.9694   13280923.72747
  10366205.27544                  23465309.7664                   23465313.3484
   2475116.85947   1946433.42845  21878949.8594                   21878949.6804
   6102274.46946   4763792.68143  24553190.6254                   24553192.9964
 11  9 27 19 49  0.0000000  0  7G04G09G02G17G10G28G20
 -19587481.01648 -15228103.43847  19974909.8674                   19974909.0394
   1098206.09447    874285.30345  22274381.5004                   22274382.8634
   -123303.32048    -77462.74245  22333545.2974                   22333544.2424
   3636465.77747   2851244.08746  21610353.3204   21610352.6954   13079482.25846
  10209238.14644                  23426976.3284                   23426980.1724
   2413725.90647   1898596.25245  21867267.9844                   21867267.3244
   6033649.12546   4710318.37543  24540131.6724                   24540133.3834
 11  9 27 19 49 30.0000000  0  7G04G09G02G17G10G28G20
 -19708379.25048 -15322309.83946  19951903.5234                   19951902.8954
    961337.69147    767634.62545  22248336.0164                   22248337.4494
   -310225.19948   -223116.05145  22297974.9534                   22297974.0084
   3559428.68848   2791215.17546  21595693.7114   21595692.9454   12878099.07447
  10052316.44943                  23388654.3204                   23388658.1884
   2352694.37148   1851039.17045  21855654.1884                   21855653.5944
   5965483.38745   4657202.24743  24527160.2194                   24527162.3674
 11  9 27 19 50  0.0000000  0  7G04G09G02G17G10G28G20
 -19828723.35948 -15416084.45446  19929002.7894                   19929002.1684
    825084.16847    661463.07645  22222408.0164                   22222408.9224
   -496862.57048   -368547.65345  22262458.9694                   22262458.5434
   3482454.14848   2731234.99946  21581045.9384   21581045.3984   12676778.99646
   9895443.91644                  23350344.3594                   23350348.0004
   2292023.60947   1803763.18945  21844108.8674                   21844108.0744
   5897777.19946   4604444.13742  24514276.4304                   24514277.8634
 11  9 27 19 50 30.0000000  0  7G04G09G02G17G10G28G20
 -19948513.60948 -15509427.49146  19906207.3834                   19906206.9654
    689446.22747    555771.18245  22196597.1024                   22196598.2854
   -683213.85248   -513756.34845  22226997.5084                   22226996.4884
   3405542.20748   2671303.59846  21566409.8524   21566409.2274   12475525.49246
   9738623.26144                  23312046.4384                   23312050.0204
   2231714.21547   1756768.80545  21832632.1414                   21832632.2814
   5830530.12945   4552043.80142  24501479.6024                   24501481.1414
 11  9 27 19 51  0.0000000  0  7G04G09G02G17G10G28G20
 -20067749.88748 -15602338.85947  19883517.3444                   19883516.9774
    554425.11347    450559.94745  22170903.5314                   22170904.7194
   -869277.55948   -658740.95245  22191590.6564                   22191589.8954
   3328693.07448   2611421.14146  21551786.4774   21551785.8524   12274341.86346
   9581857.03344                  23273762.8594                   23273766.8874
   2171766.36347   1710056.14945  21821224.7194                   21821224.4344
   5763741.71945   4500000.82042  24488770.2424                   24488771.8954
 11  9 27 19 51 30.0000000  0  7G04G09G02G17G10G28G20
 -20186436.15247 -15694821.65046  19860931.9064                   19860931.5594
    420017.78947    345827.00545  22145326.0314                   22145327.4384
  -1055055.68048   -803503.02845  22156238.1724                   22156237.4104
   3251902.65248   2551584.44246  21537173.4064   21537172.7854   12073228.18446
   9425145.32044                  23235492.1024                   23235495.4064
   2112177.00847   1663622.82345  21809885.0164                   21809884.8164
   5697407.52745   4448311.84442  24476147.8834                   24476148.9144
 11  9 27 19 52  0.0000000  0  7G04G09G02G17G10G28G20
 -20304571.60548 -15786875.23147  19838451.6954                   19838451.2734
    286226.49647    241574.06745  22119866.3674                   22119867.5744
  -1240545.36348   -948040.35345  22120940.5474                   22120939.9064
   3175172.47348   2491794.68046  21522572.2894   21522571.2464   11872189.00046
   9268491.63344                  23197234.7274                   23197239.0944
   2052947.48047   1617469.89245  21798614.2974                   21798613.9534
   5631528.27045   4396977.31342  24463610.1564                   24463612.3874
 11  9 27 19 52 30.0000000  0  7G04G09G02G17G10G28G20
 -20422155.28148 -15878498.85847  19816076.0634                   19816075.4614
    153052.77347    137802.36845  22094524.4614                   22094525.7894
  -1425744.25448  -1092351.07646  22085698.4224                   22085697.1914
   3098503.59448   2432052.67546  21507982.5004   21507982.0744   11671228.78946
   9111899.49644                  23158993.7734                   23158997.4734
   1994079.00047   1571598.27345  21787412.5314                   21787411.9414
   5566104.17245   4345997.45342  24451160.9534                   24451162.7234
 11  9 27 19 53  0.0000000  0  7G04G09G02G17G10G28G20
 -20539185.96548 -15969691.58446  19793805.8914                   19793805.4144
     20498.78147     34513.55945  22069300.2734                   22069301.6254
  -1610649.41848  -1236432.93745  22050511.9064                   22050511.0394
   3021897.53148   2372359.61346  21493405.1564   21493404.3204   11470352.47346
   8955372.71244                  23120767.9534                   23120771.2814
   1935573.52047   1526009.52645  21776279.0634                   21776278.8204
   5501135.90655   4295372.77752  24438797.8914                   24438799.4454
 11  9 27 19 53 30.0000000  0  7G04G09G02G17G10G28G20
 -20655662.93048 -16060452.84446  19771640.9064                   19771640.4654
   -111433.30547    -68290.64445  22044194.1094                   22044195.6254
  -1795258.11748  -1380283.79345  22015382.3444                   22015380.9774
   2945355.45748   2312716.42946  21478839.5084   21478838.6254   11269564.95347
   8798915.14544                  23082559.2274                   23082562.6414
   1877432.59847   1480704.84445  21765214.9144                   21765214.6484
   5436623.98045   4245103.69942  24426522.1884                   24426523.8054
 11  9 27 19 54  0.0000000  0  7G04G09G02G17G10G28G20
 -20771586.68048 -16150783.01946  19749581.5944                   19749580.9844
   -242743.48447   -170610.24845  22019206.7814                   22019208.2584
  -1979569.27048  -1523902.79345  21980308.7424                   21980307.7034
   2868876.91848   2253122.74046  21464285.9454   21464285.5594   11068869.54747
   8642529.32844                  23044367.6024                   23044371.6174
   1819655.97347   1435684.02745  21754220.5634                   21754220.6174
   5372567.52345   4195189.56342  24414331.9694                   24414334.0044
 11  9 27 19 54 30.0000000  0  7G04G09G02G17G10G28G20
 -20886959.02748 -16240683.52546  19727626.7734                   19727626.2814
   -373432.27347   -272445.65545  21994337.8524                   21994338.8404
  -2163582.60548  -1667289.70945  21945292.2894                   21945291.3714
   2792460.82848   2193577.70546  21449744.5004   21449743.7734   10868268.28947
   8486216.86144                  23006194.3444                   23006198.0984
   1762242.48447   1390946.17245  21743295.2344                   21743294.8444
   5308963.87545   4145628.19542  24402229.6884                   24402230.5004
 11  9 27 19 55  0.0000000  0  7G04G09G02G17G10G28G20
 -19426355.47748 -15102550.87247  20005570.6024                   20005569.7034
   1071926.43848    853807.90545  22269380.4534                   22269381.5164
   -771869.48848   -582837.84645  22210126.2814                   22210125.1214
   4291530.66447   3361684.05746  21735008.2664   21735007.8554   12243192.48447
   9557586.57744                  23267833.7584                   23267837.2154
   3280615.58247   2574093.98645  22032231.9454                   22032232.4224
   6821236.01646   5324021.91443  24690004.0234                   24690006.1454
 11  9 27 19 55 30.0000000  0  7G04G09G02G17G10G28G20
 -19540620.28148 -15191588.35447  19983826.6024                   19983826.4184
    942487.85547    752946.70045  22244748.7504                   22244750.1524
   -955277.11748   -725752.81045  22175224.8984                   22175223.7344
   4215244.97348   3302240.64846  21720491.6024   21720490.7624   12042795.80947
   9401433.52644                  23229699.6884                   23229703.0314
   3223935.12947   2529927.31745  22021446.3284                   22021446.3404
   6758542.35946   5275169.77443  24678074.5944                   24678076.5204
 11  9 27 19 56  0.0000000  0  7G04G09G02G17G10G28G20
 -19654329.39148 -15280192.83547  19962188.6884                   19962188.0204
    813677.68448    652575.16445  22220237.2114                   22220238.3204
  -1138377.01248   -868427.96346  22140381.5944                   22140381.0554
   4139027.31348   3242850.23446  21705987.7274   21705987.2114   11842509.22347
   9245366.25244                  23191586.0314                   23191589.1644
   3167624.23448   2486048.62145  22010730.5944                   22010730.6024
   6696304.82446   5226672.93643  24666231.7344                   24666233.2584
 11  9 27 19 56 30.0000000  0  7G04G09G02G17G10G28G20
 -19767487.32048 -15368367.83046  19940655.5554                   19940654.6684
    685492.50047    552690.62845  22195844.4144                   22195845.5824
  -1321172.11348  -1010865.60845  22105597.1024                   22105596.1684
   4062874.06348   3183510.02546  21691496.0474   21691495.6524   11642332.28147
   9089384.40844                  23153493.5084                   23153496.6214
   3111678.68048   2442454.61545  22000084.5164                   22000084.5434
   6634518.55946   5178527.73943  24654474.0084                   24654475.0004
 11  9 27 19 57  0.0000000  0  6G04G09G02G17G10G28
 -19880094.51648 -15456113.68446  19919226.9454                   19919226.1764
    557932.62947    453293.32345  22171570.5314                   22171572.0434
  -1503660.93748  -1153064.61046  22070870.6094                   22070869.4384
   3986784.82048   3124219.67946  21677017.0864   21677016.7734   11442268.39546
   8933490.66944                  23115422.6334                   23115425.3364
   3056098.40647   2399145.25145  21989508.1644                   21989508.1804
 11  9 27 19 57 30.0000000  0  6G04G09G02G17G10G28
 -19992148.70348 -15543428.62146  19897903.5634                   19897902.9924
    431001.31647    354385.83245  22147416.4924                   22147417.9264
  -1685839.04348  -1295021.50345  22036203.1644                   22036202.2344
   3910762.55948   3064981.53346  21662550.6254   21662550.1094   11242324.18446
   8777690.15144                  23077374.0784                   23077376.7034
   3000887.02748   2356123.31545  21979002.1724                   21979001.7974
 11  9 27 19 58  0.0000000  0  6G04G09G02G17G10G28
 -20103642.96548 -15630307.25046  19876687.0474                   19876686.2854
    304706.24247    255974.12045  22123383.1644                   22123384.5234
  -1867697.85948  -1436729.56746  22001596.8054                   22001595.6254
   3834814.74248   3005801.40546  21648097.9144   21648097.5634   11042510.22746
   8621991.14644                  23039350.7344                   23039353.2384
   2946051.91047   2313394.60245  21968567.1414                   21968567.5634
 11  9 27 19 58 30.0000000  0  6G04G09G02G17G10G28
 -20214570.09048 -15716743.95346  19855578.0234                   19855577.1094
    179055.88347    158064.73645  22099472.5164                   22099473.9844
  -2049228.27748  -1578181.76246  21967052.8834                   21967051.5314
   3758949.23448   2946685.39346  21633661.2974   21633660.6884   10842838.05546
   8466402.65244                  23001354.3364                   23001357.1454
   2891600.57047   2270964.91645  21958205.1414                   21958205.2624
 11  9 27 19 59  0.0000000  0  6G04G09G02G17G10G28
 -20324933.11748 -15802741.10946  19834576.9304                   19834576.1374
     54048.05147     60656.07245  22075684.6024                   22075686.0354
  -2230431.55548  -1719379.02846  21932570.6884                   21932569.7734
   3683163.87148   2887631.83146  21619239.8984   21619239.5594   10643309.03946
   8310925.66044                  22963384.9614                   22963387.8834
   2837530.59847   2228832.39445  21947916.5234                   21947916.2704
 11  9 27 19 59 30.0000000  0  6G04G09G02G17G10G28
 -20434732.28148 -15888298.88746  19813682.7974                   19813681.9264
    -70316.53947    -36251.39645  22052018.3754                   22052019.5744
  -2411305.60948  -1860319.76046  21898151.0944                   21898150.2464
   3607458.82448   2828640.86646  21604833.7424   21604833.5124   10443926.71946
   8155562.97944                  22925443.5944                   22925446.1994
   2783843.10547   2186997.93445  21937699.5234                   21937700.0124
 11  9 27 20  0  0.0000000  0  6G04G09G02G17G10G28
 -20543975.41048 -15973423.38346  19792894.5004                   19792894.0474
   -194045.06247   -132663.20545  22028473.9614                   22028474.7934
  -2591856.66048  -2001008.81146  21863793.4534                   21863792.5004
   3531827.08248   2769707.01846  21590441.7194   21590441.3954   10244687.51646
   8000311.82944                  22887529.5704                   22887532.1024
   2730530.31347   2145455.41845  21927554.6024                   21927554.6844
 11  9 27 20  0 30.0000000  0  6G04G09G02G17G10G28
 -20652662.20748 -16058114.38846  19772211.9224                   19772211.3594
   -317136.02348   -228578.20845  22005050.3134                   22005051.6604
  -2772082.23848  -2141444.24546  21829497.7974                   21829496.6214
   3456269.84448   2710831.22046  21576063.5634   21576063.1094   10045595.88346
   7845175.66644                  22849643.7734                   22849646.6024
   2677593.33247   2104205.75945  21917480.9774                   21917481.3204
 11  9 27 20  1  0.0000000  0  6G04G09G02G17G10G28
 -20760795.16048 -16142373.82646  19751634.8444                   19751634.1804
   -439591.34047   -323997.91945  21981747.8594                   21981749.0084
  -2951983.41048  -2281626.89446  21795263.5784                   21795262.5904
   3380785.26248   2652012.03846  21561699.3054   21561699.2854
   9846653.52346   7690155.80444  22811785.9774                   22811788.2974
   2625030.19947   2063247.40345  21907478.8914                   21907478.7734
 11  9 27 20  1 30.0000000  0  7G04G09G12G02G17G10G28
 -20868377.55548 -16226204.24946  19731162.7194                   19731161.9694
   -561413.30147   -418924.09945  21958565.5234                   21958566.7234
  29713868.20756  23171986.06754  24526277.9924                   24526280.9144
  -3131560.81648  -2421557.25246  21761090.9924                   21761089.7704
   3305370.92247   2593247.60746  21547348.5784   21547348.1764
   9647861.51246   7535253.11944  22773957.0394                   22773959.8794
   2572838.59447   2022578.54745  21897547.0084                   21897547.0164
 11  9 27 20  2  0.0000000  0  7G04G09G12G02G17G10G28
 -20975419.27048 -16309613.36146  19710793.3054                   19710792.4144
   -682611.11747   -513363.95845  21935502.6484                   21935504.2934
  29507040.71147  23010821.93743  24486919.6644                   24486923.0784
  -3310822.58647  -2561241.66346  21726978.3364                   21726977.4064
   3230017.80947   2534530.87546  21533009.0864   21533008.7544
   9449214.21947   7380463.18144  22736155.7584                   22736158.3674
   2521009.48047   1982192.14945  21887684.6094                   21887684.4494
 11  9 27 20  2 30.0000000  0  7G04G09G12G02G17G10G28
 -19506504.50048 -15165004.45046  19990318.6564                   19990318.0474
    772232.52047    620280.43445  22212350.0634                   22212351.5394
  30875594.53946  24077227.61343  24747345.9694                   24747349.7544
  -1914348.43447  -1473079.90646  21992718.5864                   21992717.5664
   4730141.59847   3703458.48046  21818473.4384   21818472.8794
  10826134.73447   8453388.44844  22998174.6644                   22998177.2974
   4044957.13347   3169683.76945  22177682.1564                   22177682.0514
 11  9 27 20  3  0.0000000  0  7G04G09G12G02G17G10G28
 -19612484.46148 -15247586.22146  19970151.2274                   19970150.2814
    652266.30547    526800.27345  22189521.4304                   22189522.0554
  30668674.69146  23915991.48843  24707970.4144                   24707973.3134
  -2092992.21947  -1612282.77446  21958723.8364                   21958722.6174
   4654894.28147   3644824.17946  21804153.9844   21804153.4694
  10627770.14147   8298818.81544  22960426.9064                   22960429.9884
   3993835.09847   3129848.33645  22167954.0554                   22167954.0004
 11  9 27 20  3 30.0000000  0  7G04G09G12G02G17G10G28
 -19717929.72748 -15329751.35246  19950085.7274                   19950085.0904
    532920.82447    433803.80545  22166810.4454                   22166811.8794
  30461716.18446  23754725.27443  24668587.8444                   24668591.2384
  -2271320.31648  -1751239.64546  21924789.0394                   21924787.8674
   4579704.68048   3586234.86746  21789846.1564   21789845.5554
  10429557.51247   8144367.59944  22922708.4844                   22922711.3014
   3943071.32847   3090292.10545  22158293.6564                   22158294.1094
 11  9 27 20  4  0.0000000  0  7G04G09G12G02G17G10G28
 -19822839.39148 -15411499.12946  19930121.7584                   19930121.2344
    414198.02747    341292.52745  22144218.2194                   22144219.7934
  30254722.92246  23593431.91042  24629197.8754                   24629199.9774
  -2449329.85948  -1889948.29846  21890915.3674                   21890913.5784
   4504575.27747   3527692.45946  21775549.7114   21775548.8874
  10231501.86347   7990038.68044  22885019.2424                   22885021.7934
   3892667.80547   3051016.55745  22148702.5004                   22148702.5704
 11  9 27 20  4 30.0000000  0  7G04G09G12G02G17G10G28
 -19927212.02048 -15492828.43646  19910260.4454                   19910259.8754
    296099.99647    249268.09845  22121745.0234                   22121746.5944
  30047698.84446  23432114.56843  24589802.5004                   24589805.1564
  -2627017.51648  -2028406.13246  21857102.1094                   21857100.6804
   4429508.04347   3469198.49346  21761264.8524   21761264.2664
  10033608.87947   7835836.53044  22847361.7034                   22847364.0314
   3842626.08647   3012022.94345  22139180.1174                   22139180.4654
 11  9 27 20  5  0.0000000  0  7G04G09G12G02G17G10G28
 -20031050.58248 -15573741.58346  19890500.6254                   19890500.0004
    178624.51647    157728.75645  22099390.2584                   22099391.6374
  29840643.93045  23270773.30843  24550400.7424                   24550404.8834
  -2804384.02348  -2166613.73046  21823350.1644                   21823349.2624
   4354501.27347   3410751.64846  21746991.3364   21746991.0634
   9835880.17247   7681762.35744  22809735.0234                   22809737.3554
   3792944.58647   2973309.99145  22129725.8204                   22129726.4694
 11  9 27 20  5 30.0000000  0  7G04G09G12G02G17G10G28
 -20134353.45348 -15654237.32247  19870842.8364                   19870841.9264
     61773.94547     66676.38845  22077154.3524                   22077156.0164
  29633562.60546  23109411.35243  24510994.8444                   24510998.4924
  -2981425.79748  -2304568.27746  21789660.2274                   21789658.9844
   4279557.60947   3352353.98646  21732729.9144   21732729.7114
   9638321.50847   7527820.73044  22772140.4144                   22772143.0084
   3743625.34847   2934879.34145  22120341.0944                   22120340.6334
 11  9 27 20  6  0.0000000  0  7G04G09G12G02G17G10G28
 -20237121.73448 -15734316.48346  19851286.3204                   19851285.6844
    -54451.89547    -23889.20445  22055037.5084                   22055038.7114
  29426456.96146  22948030.48344  24471583.9454                   24471587.7974
  -3158141.45348  -2442268.70246  21756031.9614                   21756031.2114
   4204677.18847   3294005.59946  21718480.8674   21718480.3914
   9440936.59047   7374014.47844  22734579.0234                   22734581.4734
   3694668.42647   2896731.01545  22111024.6644                   22111025.0044
 11  9 27 20  6 30.0000000  0  7G04G09G12G02G17G10G28
 -20339354.48048 -15813978.34046  19831832.2814                   19831831.6524
   -170051.02347   -113966.43445  22033039.9614                   22033040.7304
  29219330.38746  22786633.30844  24432169.6484                   24432172.4144
  -3334528.32448  -2579712.94046  21722466.9064                   21722465.5084
   4129861.89847   3235707.96846  21704243.9774   21704243.6564
   9243730.98847   7220347.93044  22697052.1094                   22697054.5784
   3646075.21547   2858866.10345  22101777.7424                   22101778.2304
 11  9 27 20  7  0.0000000  0  7G04G09G12G02G17G10G28
 -20441052.77748 -15893223.75146  19812479.7814                   19812478.7934
   -285024.19947   -203555.92545  22011160.2584                   22011161.7854
  29012184.69147  22625221.25444  24392750.6954                   24392753.7774
  -3510585.45747  -2716900.23846  21688964.7424                   21688963.1294
   4055111.30548   3177460.75046  21690019.5084   21690018.8364
   9046707.57447   7066823.35444  22659559.3834                   22659561.6294
   3597845.12147   2821284.12045  22092600.0634                   22092600.3134
 11  9 27 20  7 30.0000000  0  7G04G09G12G02G17G10G28
 -20542221.05548 -15972056.15146  19793227.9534                   19793227.3284
   -399374.94147   -292660.37545  21989400.3754                   21989401.7854
  28805018.20547  22463792.95044  24353328.3204                   24353331.2424
  -3686315.31247  -2853832.52046  21655523.9064                   21655522.6054
   3980422.71147   3119261.84446  21675806.6414   21675806.4344
   8849866.55547   6913440.91544  22622102.2114                   22622104.0784
   3549974.55147   2783982.29145  22083490.3204                   22083490.7894
 11  9 27 20  8  0.0000000  0  7G04G09G12G02G17G10G28
 -20642855.68048 -16050472.72646  19774077.8054                   19774077.4614
   -513098.68447   -381276.27045  21967759.7814                   21967761.4224
  28597838.07047  22302354.11044  24313902.7664                   24313906.0554
  -3861711.97348  -2990505.16246  21622147.1174                   21622145.3484
   3905801.01648   3061115.06946  21661606.1334   21661606.1414
   8653216.48447   6760207.22344  22584680.1024                   22584682.3954
   3502468.27047   2746964.31445  22074450.4224                   22074451.0084
 11  9 27 20  8 30.0000000  0  7G04G09G12G02G17G10G28
 -20742955.72748 -16128472.73846  19755029.3524                   19755028.3914
   -626194.06247   -469402.52645  21946238.7194                   21946239.5354
  28390647.82447  22140907.33644  24274475.5634                   24274478.6374
  -4036772.45748  -3126915.84646  21588834.1804                   21588832.7854
   3831248.03947   3003021.84646  21647419.2974   21647418.9694
   8456762.60947   6607126.43144  22547296.7344                   22547298.6804
   3455327.74247   2710231.32745  22065480.6564                   22065480.6024
 11  9 27 20  9  0.0000000  0  7G04G09G12G02G17G10G28
 -20842521.15648 -16206056.17746  19736082.6564                   19736082.2304
   -738660.28947   -557038.53945  21924836.6254                   21924837.5434
  28183450.81346  21979455.31943  24235046.7734                   24235050.0514
  -4211494.58248  -3263062.87346  21555585.4534                   21555584.1564
   3756765.47747   2944983.48546  21633246.1564   21633245.6884
   8260509.48047   6454202.05144  22509950.7814                   22509952.9654
   3408553.93847   2673784.13145  22056578.8914                   22056579.6134
 11  9 27 20  9 30.0000000  0  7G04G09G12G02G17G10G28
 -19366129.68748 -15055621.25846  20017030.6954                   20017030.0474
    724925.80947    583418.16645  22203347.9384                   22203349.1214
  29551675.79346  23045604.81943  24495411.1804                   24495414.7384
  -2810451.70748  -2171341.07346  21822194.8594                   21822193.5554
   5257775.73847   4114601.86646  21918878.6564   21918878.4734
   9639887.35547   7529042.09344  22772437.1884                   22772439.7584
   4937567.87147   3865223.45445  22347541.3674                   22347541.4454
 11  9 27 20 10  0.0000000  0  7G04G09G12G02G17G10G28
 -19464627.84448 -15132373.05046  19998286.9304                   19998286.6174
    613718.08247    496762.79045  22182185.5554                   22182186.7274
  29344472.17246  22884147.62543  24455981.5784                   24455984.7814
  -2984492.72348  -2306957.36746  21789075.8754                   21789074.4534
   5183435.47347   4056674.38646  21904732.1804   21904731.9534
   9444048.04747   7376440.16945  22735170.8364                   22735172.4844
   4891527.66847   3829347.88845  22338780.3594                   22338780.0554
 11  9 27 20 10 30.0000000  0  7G04G09G12G02G17G10G28
 -19562590.61748 -15208707.65846  19979645.4304                   19979644.8014
    503142.58247    410600.09045  22161143.9534                   22161145.4304
  29137271.62546  22722692.79243  24416551.8914                   24416555.8484
  -3158188.35248  -2442304.52946  21756022.8754                   21756021.2734
   5109170.00047   3998805.17646  21890599.9384   21890599.8284
   9248424.31647   7224006.23445  22697944.3444                   22697946.5274
   4845856.94947   3793760.23345  22330089.3524                   22330089.8054
 11  9 27 20 11  0.0000000  0  7G04G09G12G02G17G10G28
 -19660017.19148 -15284624.46046  19961105.8134                   19961105.4534
    393200.48047    324930.92245  22140222.4694                   22140224.0394
  28930078.06346  22561243.40143  24377124.7034                   24377127.6844
  -3331535.50448  -2577380.14346  21723035.8524                   21723034.4024
   5034981.56647   3940996.00046  21876482.5394   21876482.0204
   9053021.66047   7071744.58245  22660760.6094                   22660762.2814
   4800557.67647   3758461.99945  22321469.3984                   22321469.5944
 11  9 27 20 11 30.0000000  0  7G04G09G12G02G17G10G28
 -19756912.52348 -15360127.30246  19942667.3134                   19942666.2194
    283887.73047    239752.16745  22119421.2504                   22119422.4614
  28722889.80047  22399798.08643  24337698.7194                   24337700.1684
  -3504537.10948  -2712186.50046  21690114.7734                   21690113.2034
   4960866.56647   3883244.05146  21862379.0004   21862378.3834
   8857839.41047   6919654.64345  22623618.2664                   22623620.7664
   4755625.55147   3723449.86945  22312919.2034                   22312918.8714
 11  9 27 20 12  0.0000000  0  7G04G09G12G02G17G10G28
 -19853276.44948 -15435216.06546  19924329.7194                   19924329.2234
    175205.18447    155064.48945  22098739.1334                   22098740.5704
  28515710.38747  22238359.70944  24298273.3594                   24298275.9614
  -3677190.51248  -2846721.53346  21657259.8834                   21657258.2704
   4886827.07447   3825550.93446  21848289.7344   21848289.2154
   8662882.99647   6767740.67845  22586519.4454                   22586521.6954
   4711061.66447   3688724.65645  22304438.9694                   22304438.5784
 11  9 27 20 12 30.0000000  0  7G04G09G12G02G17G10G28
 -19949108.94948 -15509890.73346  19906093.5864                   19906092.7664
     67153.27047     70868.18245  22078177.8914                   22078179.0354
  28308542.72347  22076930.49644  24258850.7274                   24258853.1724
  -3849494.04748  -2980983.95346  21624471.4844                   21624469.9454
   4812863.57047   3767917.03246  21834214.6644   21834214.1644
   8468156.83247   6616006.16045  22549464.0634                   22549466.1054
   4666866.47347   3654286.76145  22296028.7734                   22296029.2774
 11  9 27 20 13  0.0000000  0  7G04G09G12G02G17G10G28
 -20044414.07848 -15584154.46446  19887957.3134                   19887956.7894
    -40271.33247    -12839.27145  22057735.6254                   22057736.8674
  28101386.03947  21915509.80444  24219430.6884                   24219432.7624
  -4021449.35948  -3114975.00746  21591749.3834                   21591747.6454
   4738973.80547   3710340.58846  21820153.7974   21820153.3674
   8273661.59447   6464451.57845  22512452.7974                   22512455.0634
   4623037.09847   3620133.92245  22287688.8834                   22287688.6884
 11  9 27 20 13 30.0000000  0  7G04G09G12G02G17G10G28
 -20139191.48047 -15658006.98246  19869921.8284                   19869921.0984
   -147067.41047    -96057.00845  22037412.7504                   22037414.3834
  27894244.33247  21754100.79944  24180012.0084                   24180014.7034
  -4193053.93048  -3248692.78346  21559093.9924                   21559092.3794
   4665160.25048   3652823.51746  21806108.1564   21806107.3324
   8079402.61347   6313081.06645  22475486.4614                   22475488.4734
   4579574.80947   3586267.09645  22279418.3364                   22279418.5594
 11  9 27 20 14  0.0000000  0  7G04G09G12G02G17G10G28
 -20233446.63748 -15731452.54646  19851985.7504                   19851985.0824
   -253240.07447   -178788.95345  22017209.0474                   22017210.2464
  27687115.02347  21592701.47544  24140596.3984                   24140599.4964
  -4364311.13348  -3382139.86946  21526504.7424                   21526502.8674
   4591418.59447   3595362.48646  21792075.3524   21792074.6644
   7885379.18847   6161894.13845  22438564.5084                   22438566.4574
   4536474.41047   3552682.27245  22271216.2274                   22271216.5664
 11  9 27 20 14 30.0000000  0  7G04G09G12G02G17G10G28
 -20327176.92648 -15804489.13046  19834149.5474                   19834148.5234
   -358786.21947   -261032.69545  21997123.8524                   21997125.0474
  27480004.53147  21431316.89344  24101184.0084                   24101187.3484
  -4535216.15248  -3515312.54446  21493982.4924                   21493980.8984
   4517752.93047   3537960.65446  21778057.3674   21778056.7504
   7691598.71947   6010896.49545  22401689.1094                   22401691.2154
   4493739.77047   3519382.45845  22263083.9304                   22263084.7154
 11  9 27 20 15  0.0000000  0  7G04G09G12G02G17G10G28
 -20420388.53548 -15877121.54646  19816412.1884                   19816411.2424
   -463711.20747   -342792.44745  21977158.0944                   21977158.9224
  27272909.59847  21269944.33643  24061775.6024                   24061778.1604
  -4705773.00048  -3648213.91246  21461526.8524                   21461525.0314
   4444158.69147   3480614.47046  21764052.5394   21764052.3134
   7498059.77747   5860087.06445  22364860.5004                   22364862.4184
   4451365.44547   3486363.40745  22255020.7664                   22255021.4184
 11  9 27 20 15 30.0000000  0  7G04G09G12G02G17G10G28
 -20513076.31248 -15949345.78746  19798773.8914                   19798773.1414
   -568009.24647   -424063.63945  21957310.5864                   21957311.7974
  27065839.03146  21108590.82644  24022371.1804                   24022373.5204
  -4875974.36348  -3780838.27646  21429138.2194                   21429136.7074
   4370642.58647   3423329.19646  21750062.8594   21750062.8284
   7304772.45347   5709473.66645  22328078.6334                   22328080.3444
   4409357.32047   3453629.69545  22247026.7664                   22247027.8594
 11  9 27 20 16  0.0000000  0  7G04G09G12G02G17G10G28
 -20605244.49648 -16021165.14446  19781235.0234                   19781234.1414
   -671684.29747   -504849.40445  21937581.8594                   21937583.0944
  26858792.18846  20947255.79144  23982971.6564                   23982974.2854
  -5045822.29747  -3913187.26046  21396817.3834                   21396815.8914
   4297202.02047   3366102.75546  21736087.8284   21736087.2814
   7111736.96547   5559056.56245  22291345.3364                   22291347.1414
   4367712.00847   3421178.68445  22239102.1024                   22239103.1134
 11  9 27 20 16 30.0000000  0  7G04G09G12G02G17G10G28
 -19121470.98848 -14864977.99246  20063587.4924                   20063587.1254
    800686.88347    642452.80345  22217764.9774                   22217766.0204
  28227198.39547  22013546.51244  24243370.8594                   24243373.2664
  -3639889.81648  -2817655.38246  21664357.5474                   21664355.6994
   5799259.91847   4536537.48346  22021919.5784   22021919.4184
   8494384.02747   6636444.01845  22554454.2504                   22554455.7894
   5901850.59447   4616611.23145  22531038.8594                   22531040.0744
 11  9 27 20 17  0.0000000  0  7G04G09G12G02G17G10G28
 -19212603.82848 -14935990.58446  20046245.7814                   20046244.8754
    698255.82847    562636.39045  22198272.6884                   22198274.5004
  28020204.93447  21852253.11944  24203980.9144                   24203983.5124
  -3809028.03148  -2949451.34346  21632171.1724                   21632169.6994
   5725971.18847   4479429.36646  22007973.4844   22007972.9774
   8301863.57447   6486428.20845  22517818.5004                   22517820.0944
   5860929.50047   4584724.55145  22523252.0474                   22523253.1254
 11  9 27 20 17 30.0000000  0  7G04G09G12G02G17G10G28
 -19303217.78148 -15006598.84646  20029002.3364                   20029001.2894
    596448.93047    483306.31845  22178899.3914                   22178900.9144
  27813244.90647  21690985.74244  24164597.5394                   24164599.5664
  -3977806.51248  -3080966.97046  21600053.8204                   21600052.3014
   5652762.64847   4422383.73746  21994042.1804   21994041.7774
   8109609.26647   6336619.79345  22481234.0084                   22481235.8674
   5820373.00447   4553122.01945  22515534.4144                   22515535.4064
 11  9 27 20 18  0.0000000  0  7G04G09G12G02G17G10G28
 -19393314.88348 -15076804.36546  20011857.6484                   20011856.9414
    495264.63347    404461.40345  22159644.7734                   22159646.2544
  27606319.52047  21529745.33444  24125221.2114                   24125223.1414
  -4146225.49248  -3212202.47746  21568004.6414                   21568003.0354
   5579633.50447   4365399.99046  21980126.6254   21980125.9264
   7917623.85547   6187020.90845  22444700.0864                   22444701.6564
   5780179.90247   4521802.59145  22507886.2734                   22507887.4574
 11  9 27 20 18 30.0000000  0  7G04G09G12G02G17G10G28
 -19482895.02348 -15146607.06946  19994811.0314                   19994810.3874
    394703.25047    326101.88045  22140508.7974                   22140509.6094
  27399432.54346  21368534.91444  24085851.2664                   24085853.7894
  -4314282.72748  -3343156.09746  21536024.4454                   21536022.7774
   5506585.68847   4308479.60946  21966225.7114   21966225.4534
   7725912.25047   6037635.38145  22408218.4844                   22408219.5164
   5740351.12947   4490767.07645  22500307.2734                   22500308.5394
 11  9 27 20 19  0.0000000  0  7G04G09G12G02G17G10G28
 -19571960.83248 -15216008.99146  19977862.3914                   19977861.6134
    294762.83247    248226.22345  22121490.7664                   22121491.6684
  27192585.21946  21207355.38744  24046489.0554                   24046492.0744
  -4481978.35548  -3473827.97046  21504113.0944                   21504111.5664
   5433618.33647   4251621.91646  21952340.8524   21952340.2774
   7534477.05547   5888465.24545  22371789.0944                   22371790.5164
   5700884.97747   4460014.13045  22492797.1954                   22492798.2854
 11  9 27 20 19 30.0000000  0  7G04G09G12G02G17G10G28
 -19660516.08648 -15285013.07146  19961010.6334                   19961009.7154
    195440.19147    170831.94845  22102590.0784                   22102591.1054
  26985776.85946  21046206.14344  24007135.1254                   24007137.4184
  -4649313.96148  -3604219.26846  21472270.1804                   21472268.1884
   5360729.41048   4194825.34246  21938470.1954   21938470.0234
   7343319.08247   5739511.10445  22335413.2974                   22335414.3914
   5661778.13347   4429541.16844  22485355.3594                   22485356.5944
 11  9 27 20 20  0.0000000  0  7G04G09G12G02G17G10G28
 -19748558.91448 -15353617.86247  19944256.7274                   19944256.0634
     96737.64148     93920.82645  22083807.6954                   22083809.1724
  26779013.34846  20885091.87844  23967789.1804                   23967791.3914
  -4816285.60548  -3734326.97246  21440496.2194                   21440494.5204
   5287922.81347   4138092.92246  21924615.4774   21924615.2194
   7152445.40647   5590778.49645  22299091.2194                   22299092.1054
   5623034.04347   4399350.85845  22477982.5634                   22477983.5314
 11  9 27 20 20 30.0000000  0  7G04G09G12G02G17G10G28
 -19836090.07048 -15421823.94846  19927600.2034                   19927599.4694
     -1345.20747     17492.64745  22065143.0554                   22065144.7934
  26572297.39547  20724014.66044  23928452.2974                   23928454.4964
  -4982891.80548  -3864149.92546  21408791.9304                   21408790.4694
   5215199.40647   4081425.30546  21910776.7664   21910776.5554
   6961860.07447   5442270.58145  22262823.3914                   22262825.0204
   5584652.23447   4369442.84944  22470678.5864                   22470679.6294
 11  9 27 20 21  0.0000000  0  7G04G09G12G02G17G10G28
 -19923113.97748 -15489634.76647  19911039.7424                   19911039.3594
    -98812.40647    -58455.84845  22046596.0784                   22046596.9924
  26365628.40247  20562974.00444  23889124.4614                   23889126.7114
  -5149134.59448  -3993689.68146  21377157.1564                   21377155.4804
   5142556.49248   4024820.43646  21896953.7734   21896953.2274
   6771563.96947   5293988.04345  22226611.3204                   22226612.9574
   5546629.03147   4339814.27444  22463442.8134                   22463444.1724
 11  9 27 20 21 30.0000000  0  7G04G09G12G02G17G10G28
 -20009631.98448 -15557051.37847  19894576.0784                   19894575.7544
   -195664.96147   -133925.37945  22028165.2504                   22028167.0474
  26159008.94146  20401971.92143  23849805.7504                   23849806.8404
  -5315013.33648  -4122945.77746  21345591.6174                   21345589.7304
   5069994.86748   3968278.90446  21883145.7894   21883145.1294
   6581560.61747   5145933.62645  22190454.6644                   22190456.4924
   5508964.02747   4310464.83544  22456275.5474                   22456276.7504
 11  9 27 20 22  0.0000000  0  7G04G09G12G02G17G10G28
 -20095642.02748 -15624072.19246  19878209.1024                   19878208.2774
   -291900.03147   -208913.76445  22009852.6334                   22009853.5944
  25952444.53146  20241012.70243  23810497.9844                   23810498.8524
  -5480523.48048  -4251914.63846  21314095.7814                   21314094.1994
   4997518.58648   3911803.85446  21869353.7424   21869353.3284
   6391857.26647   4998112.94645  22154355.6884                   22154356.8204
   5471660.39147   4281396.94044  22449177.3204                   22449178.7114
 11  9 27 20 22 30.0000000  0  7G04G09G12G02G17G10G28
 -20181147.16048 -15690699.55947  19861938.0704                   19861937.4104
   -387520.48447   -283423.22345  21991656.4614                   21991657.5514
  25745935.81646  20080096.94944  23771199.5864                   23771201.5164
  -5645665.75448  -4380596.84646  21282669.7504                   21282668.0274
   4925126.33648   3855394.30746  21855577.9224   21855577.6094
   6202455.43847   4850527.23945  22118313.8674                   22118314.6454
   5434715.76247   4252608.80244  22442147.4064                   22442148.1334
 11  9 27 20 23  0.0000000  0  7G04G09G12G02G17G10G28
 -20266151.84848 -15756936.97846  19845761.9774                   19845761.2074
   -482530.21947   -357456.79345  21973576.8284                   21973578.1054
  25539482.32046  19919224.20844  23731913.7814                   23731915.2544
  -5810442.73848  -4508994.42846  21251314.2664                   21251312.2664
   4852815.57847   3799048.25346  21841817.5394   21841817.2504
   6013356.07047   4703177.21045  22082328.6804                   22082329.9884
   5398126.52347   4224097.59144  22435184.9454                   22435185.4534
 11  9 27 20 23 30.0000000  0  7G04G09G12G02G17G10G28
 -20350658.84448 -15822786.56646  19829680.8914                   19829680.1764
   -576931.80947   -431016.48245  21955612.9454                   21955613.7814
  25333085.20346  19758395.42944  23692636.8594                   23692639.4144
  -5974854.60248  -4637107.49546  21220027.7344                   21220025.6604
   4780585.70347   3742765.22346  21828072.3364   21828072.2074
   5824561.29347   4556064.52645  22046402.3054                   22046403.3164
   5361890.93047   4195861.94644  22428289.3364                   22428290.4694
 11  9 27 20 24  0.0000000  0  7G04G09G12G02G17G10G28
 -18859249.42248 -14660649.35346  20113486.8594                   20113485.9694
    904694.07447    723497.19045  22237557.1024   22237557.8634   26702170.89547
  20825215.62444                  23953165.8054                   23953167.7304
  -4563478.12548  -3537333.53346  21488603.7734                   21488601.3484
   6283857.12547   4914145.53746  22114135.5704   22114135.4964
   7211498.25047   5636794.74845  22310327.6804                   22310328.7274
   6901426.74647   5395500.10644  22721253.6024                   22721254.2464
 11  9 27 20 24 30.0000000  0  7G04G09G12G02G17G10G28
 -18942769.39548 -14725729.85246  20097593.1024                   20097592.6724
    811501.53147    650879.60245  22219822.5704   22219824.0824   26495889.60947
  20664477.08644                  23913910.8284                   23913913.4804
  -4727161.89548  -3664879.25846  21457455.5234                   21457453.5944
   6211786.43047   4857986.53546  22100421.0704   22100420.4924
   7023319.58647   5490162.14845  22274518.5554                   22274519.7304
   6865892.15247   5367810.69044  22714491.1884                   22714492.3164
 11  9 27 20 25  0.0000000  0  7G04G09G12G02G17G10G28
 -19025797.78548 -14790427.29447  20081793.3364                   20081793.0084
    718912.22747    578732.07245  22202203.8984   22202204.7584   26289670.02047
  20503786.68744                  23874669.2034                   23874671.2734
  -4890479.89848  -3792139.95746  21426376.8134                   21426374.9454
   6139796.51647   4801890.49046  22086722.0474   22086722.3244
   6835454.78947   5343774.13245  22238768.6724                   22238770.1644
   6830707.56347   5340394.02144  22707796.4304                   22707797.9804
 11  9 27 20 25 30.0000000  0  7G04G09G12G02G17G10G28
 -19108338.45348 -14854744.70346  20066086.4614                   20066086.2344
    626922.32847    507051.66245  22184698.5634   22184699.6954   26083512.25447
  20343144.38844                  23835438.5394                   23835440.3984
  -5053433.68048  -3919116.84946  21395367.8524                   21395365.8874
   6067885.46547   4745855.88346  22073037.6804   22073037.4264
   6647905.04347   5197631.58745  22203078.7664                   22203080.1374
   6795869.80547   5313247.57244  22701166.7504                   22701168.1254
 11  9 27 20 26  0.0000000  0  7G04G09G12G02G17G10G28
 -19190394.13748 -14918684.19946  20050471.8674                   20050471.1844
    535529.58647    435836.51345  22167307.0004   22167308.4064   25877417.39547
  20182551.16044                  23796219.6804                   23796222.1724
  -5216024.39848  -4045810.83646  21364427.8524                   21364425.5664
   5996052.28947   4689881.96646  22059368.2114   22059368.2114
   6460672.65647   5051736.34645  22167449.5554                   22167450.7384
   6761376.84847   5286369.82144  22694603.2814                   22694604.3674
 11  9 27 20 26 30.0000000  0  7G04G09G12G02G17G10G28
 -19271965.54348 -14982246.33946  20034949.3284                   20034948.6484
    444733.73848    365086.48345  22150029.0314   22150030.5554   25671388.73847
  20022009.50744                  23757013.5634                   23757015.6334
  -5378250.03148  -4172220.35246  21333557.1484                   21333555.2154
   5924298.86347   4633970.19746  22045714.1094   22045714.1054
   6273761.86347   4906091.67645  22131881.8054                   22131883.0044
   6727229.26247   5259761.18644  22688105.0704                   22688106.3874
 11  9 27 20 27  0.0000000  0  7G04G09G12G02G17G10G28
 -19353058.59848 -15045435.71947  20019517.8524                   20019516.8914
    354529.03947    294797.12045  22132863.8594   22132865.0234   25465424.37147
  19861517.89244                  23717819.7894                   23717821.5784
  -5540114.05548  -4298348.09046  21302755.6174                   21302753.6484
   5852621.39548   4578117.61346  22032074.4694   22032074.4144
   6087171.94947   4760697.06845  22096374.6954                   22096375.6764
   6693421.71147   5233417.50044  22681671.9924                   22681673.5514
 11  9 27 20 27 30.0000000  0  7G04G09G12G02G17G10G28
 -19433676.89148 -15108255.17446  20004176.8134                   20004176.2504
    264911.80947    224965.49845  22115810.4144   22115811.0124   25259524.72347
  19701076.79644                  23678638.3674                   23678639.6884
  -5701618.27348  -4424195.46346  21272022.2664                   21272020.0664
   5781017.85547   4522322.62245  22018448.7194   22018448.2584
   5900904.41047   4615553.64745  22060929.4534                   22060930.4224
   6659951.22347   5207336.46644  22675302.3834                   22675303.9264
 11  9 27 20 28  0.0000000  0  7G04G09G12G02G17G10G28
 -19513819.26648 -15170703.77746  19988925.8984                   19988925.2934
    175883.69547    155592.93545  22098868.9694   22098869.8094   25053694.82047
  19540689.97544                  23639470.1174                   23639471.7774
  -5862759.16448  -4549759.71846  21241358.3204                   21241355.9574
   5709491.94147   4466588.13045  22004837.5084   22004837.6914
   5714965.63747   4470666.40545  22025545.8674                   22025546.4224
   6626820.03947   5181519.83944  22668998.3444                   22668999.5204
 11  9 27 20 28 30.0000000  0  7G04G09G12G02G17G10G28
 -19593486.35248 -15232782.03046  19973765.9534                   19973765.3444
     87444.80947     86679.50545  22082039.3674   22082041.0594   24847938.26247
  19380360.31844                  23600315.9454                   23600316.9964
  -6023534.83648  -4675039.39146  21210763.4454                   21210761.4454
   5638045.23447   4410915.35045  21991241.8364   21991241.7504
   5529360.35947   4326039.02845  21990226.4224                   21990227.1024
   6594028.23047   5155967.62344  22662758.6024                   22662759.4804
 11  9 27 20 29  0.0000000  0  7G04G09G12G02G17G10G28
 -19672683.23848 -15294493.88946  19958695.2034                   19958694.6884
      -410.10547     18221.10145  22065321.1484   22065322.5274   24642254.10247
  19220087.08844                  23561175.2504                   23561176.3484
  -6183948.26648  -4800036.80246  21180237.6724                   21180235.4454
   5566675.11347   4355302.24246  21977660.3524   21977660.2194
   5344088.17247   4181671.22345  21954970.5634                   21954971.0314
   6561571.81347   5130676.75644  22656582.2664                   22656583.4734
 11  9 27 20 29 30.0000000  0  7G04G09G12G02G17G10G28
 -19751411.10948 -15355840.29146  19943714.0634                   19943713.4734
    -87682.16047    -49783.11045  22048713.4384   22048715.0204   24436644.92247
  19059872.25744                  23522049.5864                   23522050.6334
  -6343998.53548  -4924751.23446  21149781.3594                   21149779.0274
   5495382.09447   4299749.21345  21964094.4534   21964093.8204
   5159153.26647   4037566.20245  21919778.1884                   21919778.6954
   6529450.36747   5105646.91544  22650469.7034                   22650471.1174
 11  9 27 20 30  0.0000000  0  7G04G09G12G02G17G10G28
 -19829672.87148 -15416823.48446  19928821.2664                   19928820.4494
   -174374.01247   -117335.19845  22032216.5164   22032218.1174   24231112.46947
  18899717.25045                  23482938.0944                   23482939.5314
  -6503686.42648  -5049183.29346  21119393.8674                   21119391.5394
   5424165.57447   4244255.80945  21950541.7344   21950541.4224
   4974558.07847   3893725.91545  21884650.6804                   21884651.5204
   6497661.46547   5080876.19544  22644420.5004                   22644422.0234
 11  9 27 20 30 30.0000000  0  7G04G09G12G02G17G10G28
 -19907465.91048 -15477441.44346  19914017.5234                   19914016.8594
   -260482.71947   -184432.91345  22015831.0164   22015832.0434   24025663.40247
  18739627.19344                  23443842.1334                   23443843.9534
  -6663006.62548  -5173328.84546  21089076.0084                   21089073.8014
   5353030.59847   4188825.93245  21937005.6724   21937005.0744
   4790310.43847   3750156.43745  21849589.4614                   21849590.0864
   6466208.84447   5056367.50744  22638435.7734                   22638437.2274
 11  9 27 20 31  0.0000000  0  7G04G09G12G02G17G10G28
 -18409374.72748 -14310097.67346  20199095.0234                   20199094.2734
   1229407.59847    976520.56045  22299347.7274   22299348.6294   25395721.31647
  19807204.95344                  23704554.9064                   23704556.6604
  -5246538.89148  -4069587.69646  21358620.8754                   21358618.3244
   6857394.45347   5361057.47545  22223276.3444   22223276.1604
   6181834.12947   4834460.71645  22114387.6644                   22114388.4774
   8010507.37947   6259716.89344  22932305.5314                   22932307.2934
 11  9 27 20 31 30.0000000  0  7G04G09G12G02G17G10G28
 -18486245.16048 -14369996.71246  20184466.9384                   20184466.4304
   1144450.84047    910320.47545  22283181.1254   22283182.2774   25190435.75846
  19647242.30343                  23665490.0704                   23665491.8204
  -5405131.99248  -4193166.66946  21328441.6094                   21328438.7034
   6786414.46147   5305748.34845  22209769.5864   22209769.3594
   5998281.84447   4691433.07845  22079459.0634                   22079459.1684
   7979715.25847   6235722.89244  22926446.3444                   22926447.8954
 11  9 27 20 32  0.0000000  0  7G04G09G12G02G17G10G28
 -18562657.74648 -14429538.99446  20169925.7504                   20169925.3794
   1060066.69947    844566.57845  22267123.2034   22267124.3484   24985235.19547
  19487345.91944                  23626441.6174                   23626443.0594
  -5563361.69948  -4316462.49346  21298331.3834                   21298328.9574
   6715511.93448   5250499.60445  22196277.4144   22196276.8094
   5815081.46547   4548679.62445  22044597.2114                   22044597.2734
   7949251.25847   6211984.56344  22920649.3834                   22920651.1294
 11  9 27 20 32 30.0000000  0  7G04G09G12G02G17G10G28
 -18638615.42248 -14488726.78846  20155471.6024                   20155471.0984
    976252.58647    779256.87945  22251174.2894   22251174.8364   24780121.04347
  19327516.83344                  23587409.3674                   23587410.8524
  -5721228.48448  -4439475.51646  21268290.0474                   21268287.9024
   6644686.76647   5195311.12645  22182799.8134   22182799.0824
   5632235.19948   4406202.12545  22009802.3594                   22009803.1764
   7919112.97347   6188500.07044  22914914.6334                   22914915.7894
 11  9 27 20 33  0.0000000  0  7G04G09G12G02G17G10G28
 -18714119.75848 -14547561.34346  20141103.8594                   20141103.2424
    893006.55947    714389.81645  22235332.9454   22235333.7704   24575095.27747
  19167756.62244                  23548394.9844                   23548395.7814
  -5878732.09448  -4562205.54946  21238318.0474                   21238316.2344
   6573938.78148   5140182.80045  22169336.7584   22169336.4964
   5449746.49647   4264003.23245  21975075.4694                   21975076.1374
   7889299.41047   6165268.59544  22909241.4534                   22909242.1804
 11  9 27 20 33 30.0000000  0  7G04G09G12G02G17G10G28
 -18789169.80148 -14606041.89346  20126821.9384                   20126821.4614
    810329.96547    649966.48645  22219599.9304   22219601.4694   24370163.53547
  19008069.63544                  23509397.2424                   23509398.3014
  -6035869.36748  -4684650.12246  21208416.0314                   21208413.7704
   6503271.31347   5085117.20546  22155889.0084   22155888.8714
   5267621.66447   4122087.87245  21940418.2814                   21940418.8284
   7859812.68047   6142291.75544  22903630.2194                   22903632.1914
 11  9 27 20 34  0.0000000  0  7G04G09G12G02G17G10G28
 -18863768.62548 -14664170.84046  20112626.8054                   20112626.1844
    728219.89147    585984.58045  22203974.8134   22203976.3794   24165326.94947
  18848456.79944                  23470418.2814                   23470419.4384
  -6192640.76648  -4806809.60946  21178583.3984                   21178580.9614
   6432684.34847   5030114.32645  22142456.7424   22142456.5084
   5085863.30147   3980458.07445  21905831.2114                   21905831.8674
   7830650.67247   6119567.99344  22898080.9614                   22898082.6994
 11  9 27 20 34 30.0000000  0  7G04G09G12G02G17G10G28
 -18937918.28548 -14721949.79746  20098516.4064                   20098515.8754
    646674.31647    522442.57045  22188457.7974   22188458.6094   23960587.82447
  18688919.93144                  23431457.5704                   23431458.5824
  -6349045.98448  -4928683.74646  21148820.3674                   21148818.0864
   6362177.78148   4975174.12045  22129040.3914   22129039.6564
   4904474.25447   3839116.04645  21871313.6484                   21871314.3204
   7801812.23847   6097096.34544  22892593.1334                   22892594.9344
 11  9 27 20 35  0.0000000  0  8G04G09G12G02G17G10G05G28
 -19011621.66047 -14779380.99646  20084491.0784                   20084490.4494
    565690.39147    459338.20244  22173046.5084   22173047.8244   23755947.87147
  18529460.35844                  23392515.8914                   23392517.8674
  -6505086.09047  -5050273.39446  21119126.5944                   21119124.6294
   6291751.18047   4920296.21345  22115638.1954   22115637.7154
   4723456.63747   3698063.43645  21836867.0234                   21836867.9534
  37582316.79755  29303721.65252  24663066.3674                   24663075.9144
   7773294.80147   6074874.86044  22887166.2194                   22887168.5474
 11  9 27 20 35 30.0000000  0  8G04G09G12G02G17G10G05G28
 -19084885.61348 -14836469.79346  20070549.3594                   20070548.5474
    485261.58647    396666.37645  22157741.5004   22157742.6454   23551404.00447
  18370075.65845                  23353592.6254                   23353594.0554
  -6660765.91448  -5171582.31146  21089502.0704                   21089499.5274
   6221400.27347   4865477.28345  22102251.4534   22102251.0164
   4542809.00047   3557299.12145  21802490.8834                   21802491.4654
  37367531.55546  29136357.02443  24622193.8054                   24622203.0864
   7745092.56647   6052898.92544  22881800.3444                   22881802.1604
 11  9 27 20 36  0.0000000  0  8G04G09G12G02G17G10G05G28
 -19157722.92248 -14893226.12946  20056688.8134                   20056688.3754
    405374.96147    334417.03245  22142540.1024   22142541.0904   23346947.85547
  18210759.29144                  23314685.6024                   23314686.9384
  -6816095.66048  -5292618.42546  21059943.4774                   21059941.1374
   6151114.45747   4810709.07245  22088876.3524   22088876.1054
   4362523.64547   3416817.09545  21768183.7344                   21768184.3554
  37152637.46946  28968907.60843  24581300.5314                   24581309.6804
   7717193.63747   6031159.35744  22876491.2664                   22876493.3164
 11  9 27 20 36 30.0000000  0  8G04G09G12G02G17G10G05G28
 -19230134.41448 -14949650.67246  20042909.4064                   20042909.1644
    326029.64147    272589.51345  22127440.8054   22127442.7464   23142583.23847
  18051514.29044                  23275796.0474                   23275797.4264
  -6971073.67648  -5413380.45746  21030452.2814                   21030449.9924
   6080895.69547   4755993.11745  22075514.1484   22075513.7974
   4182604.84847   3276620.72145  21733946.2584                   21733946.6254
  36937638.37546  28801376.30544  24540387.3984                   24540395.7274
   7689597.96147   6009656.09944  22871240.2034                   22871241.9304
 11  9 27 20 37  0.0000000  0  8G04G09G12G02G17G10G05G28
 -19302115.49648 -15005739.82546  20029211.9694                   20029211.2814
    247230.14847    211187.29745  22112446.0864   22112447.0744   22938318.83247
  17892347.29945                  23236925.9614                   23236926.6484
  -7125693.35948  -5533863.27946  21001029.1254                   21001026.7584
   6010750.77047   4701334.70945  22062165.5864   22062165.4414
   4003062.44547   3136717.64145  21699780.0474                   21699780.9144
  36722543.56346  28633770.42644  24499455.8204                   24499464.2114
   7662310.77047   5988393.24244  22866047.7974                   22866049.2194
 11  9 27 20 37 30.0000000  0  8G04G09G12G02G17G10G05G28
 -19373668.12948 -15061495.12446  20015595.8984                   20015595.6644
    168974.55947    150208.89345  22097554.2894   22097555.7624   22734157.52747
  17733260.66044                  23198075.0704                   23198076.0164
  -7279954.46548  -5654066.67546  20971674.1174                   20971671.8204
   5940680.20748   4646734.22046  22048832.1884   22048831.4494
   3823899.92247   2997110.56145  21665686.8674                   21665687.3594
  36507355.55146  28466091.93144  24458506.4454                   24458515.0704
   7635331.14847   5967370.02644  22860913.3134                   22860915.5554
 11  9 27 20 38  0.0000000  0  8G04G09G12G02G17G10G05G28
 -17869369.81248 -13889314.61646  20301854.5234                   20301853.4964
   1666685.93847   1317256.69045  22382559.3524   22382560.3874   24105530.73447
  18801863.23644                  23459038.6724                   23459040.0084
  -5858429.66848  -4546384.96146  21242181.0314                   21242178.4454
   7446109.14547   5819795.69545  22335305.5234   22335305.1564
   5220548.47347   4085408.21845  21931460.1484                   21931460.6764
  37867506.57046  29525950.31144  24717334.0944                   24717342.7544
   9184080.98847   7174187.86744  23155631.1564                   23155632.7384
 11  9 27 20 38 30.0000000  0  8G04G09G12G02G17G10G05G28
 -17940065.92648 -13944402.48746  20288401.5704                   20288400.7704
   1589518.15647   1257125.93745  22367875.2814   22367876.2734   23901588.11747
  18642947.01444                  23420229.4224                   23420231.2664
  -6011967.63748  -4666024.87146  21212963.8284                   21212961.2464
   7376194.37947   5765316.62545  22322001.6174   22322001.0354
   5042160.47747   3946404.64745  21897513.8204                   21897514.5164
  37652145.98447  29358137.34044  24676352.5704                   24676360.7584
   9157718.28147   7153645.39444  23150614.6564                   23150616.2464
 11  9 27 20 39  0.0000000  0  8G04G09G12G02G17G10G05G28
 -18010337.27348 -13999159.39046  20275029.3594                   20275028.1994
   1512890.53547   1197416.10045  22353293.0784   22353294.2584   23697757.89547
  18484118.36344                  23381441.6804                   23381442.6134
  -6165143.77348  -4785382.84346  21183815.1414                   21183813.1994
   7306358.11347   5710898.71945  22308711.9224   22308711.5124
   4864164.21947   3807706.34545  21863642.4614                   21863643.2304
  37436702.85246  29190260.07844  24635354.5554                   24635362.1724
   9131661.91447   7133341.57144  23145656.1644                   23145658.3324
 11  9 27 20 39 30.0000000  0  8G04G09G12G02G17G10G05G28
 -18080185.96548 -14053586.94446  20261737.2194                   20261736.6724
   1436800.79747   1138125.37745  22338813.9844   22338815.1684   23494042.60947
  18325379.30544                  23342676.0164                   23342676.9654
  -6317958.46548  -4904459.16946  21154735.7114                   21154733.0904
   7236600.35947   5656541.99745  22295437.6644   22295437.4534
   4686562.45747   3669315.46545  21829846.0704                   21829846.4804
  37221179.88746  29022320.52743  24594341.6884                   24594349.0634
   9105910.33247   7113275.26443  23140755.9534                   23140757.7544
 11  9 27 20 40  0.0000000  0  8G04G09G12G02G17G10G05G28
 -18149614.57848 -14107687.15146  20248525.5474                   20248524.7504
   1361246.51647   1079251.88045  22324435.9924   22324438.0984   23290443.84447
  18166731.07445                  23303932.5474                   23303933.3594
  -6470411.74248  -5023253.87546  21125724.8054                   21125722.2584
   7166921.39848   5602246.66345  22282178.1484   22282177.5164
   4509358.01647   3531234.16545  21796125.2034                   21796125.6844
  37005578.60546  28854319.99443  24553313.6724                   24553321.6954
   9080461.75447   7093445.00144  23135913.2974                   23135915.2034
 11  9 27 20 40 30.0000000  0  8G04G09G12G02G17G10G05G28
 -18218623.14548 -14161460.07346  20235393.9924                   20235393.1374
   1286227.87547   1020795.78345  22310160.6644   22310162.0204   23086966.60247
  18008177.48445                  23265212.4454                   23265213.0704
  -6622501.59048  -5141765.38546  21096782.9304                   21096780.3634
   7097323.86747   5548014.78945  22268934.2734   22268934.0314
   4332556.37947   3393466.73745  21762480.4614                   21762480.9064
  36789904.45346  28686262.67243  24512271.8834                   24512278.8524
   9055317.13347   7073851.68744  23131128.6024                   23131130.5664
 11  9 27 20 41  0.0000000  0  8G04G09G12G02G17G10G05G28
 -18287210.93448 -14214905.10546  20222341.8444                   20222341.3874
   1211745.00447    962757.15545  22295987.1804   22295988.7034   22883615.80147
  17849722.43445                  23226515.7274                   23226516.4104
  -6774225.32048  -5259991.61746  21067910.6334                   21067908.3204
   7027810.78547   5493848.70945  22255705.9774   22255705.8164
   4156163.12547   3256017.53245  21728914.0784                   21728914.6414
  36574162.59846  28518152.51943  24471217.2424                   24471223.9534
   9030477.57047   7054496.01244  23126402.1804                   23126403.7304
 11  9 27 20 41 30.0000000  0  8G04G09G12G02G17G10G05G28
 -18355384.78548 -14268027.59946  20209368.7894                   20209368.0784
   1137791.08647    905130.68945  22281914.0004   22281915.6134   22680389.40647
  17691364.28445                  23187842.8054                   23187843.3404
  -6925587.05548  -5377935.77046  21039107.4534                   21039105.2734
   6958378.07847   5439745.27445  22242494.0004   22242493.4144
   3980176.80947   3118885.42645  21695425.0784                   21695425.2154
  36358351.03146  28349988.13343  24430148.7734                   24430155.3484
   9005937.46947   7035373.65644  23121732.1884                   23121734.9024
 11  9 27 20 42  0.0000000  0  8G04G09G12G02G17G10G05G28
 -18423143.78948 -14320826.82946  20196474.8134                   20196474.1294
   1064366.71547    847916.86445  22267942.3364   22267943.1604   22477292.75047
  17533107.29244                  23149194.9694                   23149195.5904
  -7076584.05548  -5495595.72446  21010373.6414                   21010371.1214
   6889028.91448   5385706.92445  22229296.9614   22229296.5944
   3804603.39147   2982075.05745  21662014.5784                   21662014.6684
  36142475.34446  28181773.80143  24389068.8284                   24389075.5314
   8981698.20346   7016485.78044  23117120.2894                   23117121.9774
 11  9 27 20 42 30.0000000  0  8G04G09G12G02G17G10G05G28
 -18490489.22348 -14373303.79446  20183659.3914                   20183658.2504
    991470.77047    791114.81245  22254070.5864   22254071.6214   22274328.71547
  17374953.58044                  23110572.2664                   23110572.7704
  -7227215.41448  -5612970.76346  20981709.9454                   20981707.0704
   6819764.75047   5331734.80845  22216116.1024   22216116.3134
   3629446.56647   2845589.28745  21628683.0164                   21628683.2894
  35926539.21946  28013512.28043  24347977.2584                   24347984.2934
   8957759.21546   6997831.81344  23112564.6094                   23112566.9494
 11  9 27 20 43  0.0000000  0  8G04G09G12G02G17G10G05G28
 -18557424.26248 -14425460.97846  20170922.1804                   20170921.3984
    919100.11747    734722.07945  22240298.7034   22240300.1334   22071499.13747
  17216904.67744                  23071974.5314                   23071975.1914
  -7377481.64148  -5730061.27746  20953114.8284                   20953112.2854
   6750585.23448   5277828.64545  22202952.1724   22202951.4384
   3454708.59847   2709429.93345  21595431.2814                   21595431.9734
  35710544.85246  27845205.46943  24306874.4384                   24306881.4414
   8934118.44146   6979410.25844  23108065.5864                   23108068.6884
 11  9 27 20 43 30.0000000  0  8G04G09G12G02G17G10G05G28
 -18623947.88748 -14477297.58146  20158263.1094                   20158262.3674
    847255.23847    678739.02645  22226626.7194   22226628.8874   21868809.56647
  17058964.86345                  23033404.1884                   23033404.3284
  -7527380.12148  -5846865.24146  20924590.1174                   20924587.0004
   6681493.95747   5223991.26445  22189804.3284   22189804.6524
   3280395.52747   2573601.64845  21562260.3984                   21562260.8834
  35494497.53546  27676857.33143  24265761.8284                   24265769.3444
   8910777.43447   6961222.24544  23103624.0864                   23103626.7584
 11  9 27 20 44  0.0000000  0  8G04G09G12G02G17G10G05G28
 -18690063.82448 -14528816.50546  20145681.7504                   20145680.5474
    775932.11347    623162.52045  22213054.6254   22213057.0124   21666260.61347
  16901134.65745                  22994859.8754                   22994861.1724
  -7676912.65248  -5963384.04546  20896134.7734                   20896132.2344
   6612489.48847   5170221.50145  22176673.1724   22176673.3554
   3106508.77747   2438105.55045  21529171.2664                   21529171.1564
  35278398.24647  27508468.70644  24224639.2114                   24224646.1414
   8887733.05547   6943265.40444  23099239.8204                   23099242.0274
 11  9 27 20 44 30.0000000  0  8G04G09G12G02G17G10G05G28
 -18755770.28548 -14580016.36146  20133178.2344                   20133177.2664
    705132.53147    567993.99145  22199582.0004   22199583.5204   21463859.14147
  16743419.33545                  22956344.2344                   22956345.1374
  -7826074.73048  -6079614.19346  20867750.3054                   20867747.5514
   6543576.70347   5116523.18445  22163559.7344   22163559.7074
   2933055.57847   2302947.30145  21496163.8524                   21496164.0474
  35062254.35546  27340045.32544  24183508.0394                   24183515.1094
   8864987.98046   6925541.75244  23094911.1954                   23094914.3754
 11  9 27 20 45  0.0000000  0  8G04G09G12G02G17G10G05G28
 -18821071.76648 -14630900.63346  20120751.4534                   20120750.4924
    634851.65247    513229.61745  22186208.2424   22186209.9104   21261604.97747
  16585818.81345                  22917856.2734                   22917857.3054
  -7974868.69148  -6195557.48846  20839435.6024                   20839432.7034
   6474753.97747   5062895.04745  22150463.1884   22150463.1684
   2760036.57447   2168127.37945  21463239.3594                   21463239.3134
  34846065.69946  27171587.04444  24142368.8134                   24142375.3954
   8842538.57446   6908048.48744  23090639.2974                   23090642.0314
 11  9 27 20 45 30.0000000  0  8G04G09G12G02G17G10G05G28
 -17310548.14848 -13453869.26046  20408194.9304                   20408194.1844
   2140509.57847   1686469.54545  22472725.4614   22472726.1024   22634927.31647
  17655940.24045                  23179190.7034                   23179191.8594
  -6547869.92248  -5083610.35246  21110984.5634                   21110981.8984
   7981443.95747   6236939.13045  22437176.5554   22437176.7074
   4162880.28947   3261252.42145  21730192.1254                   21730191.8404
  36205262.22746  28230701.65044  24401014.5944                   24401021.4224
  10395804.21546   8118385.17144  23386215.9064                   23386219.1214
 11  9 27 20 46  0.0000000  0  8G04G09G12G02G17G10G05G28
 -17375044.96148 -13504126.52546  20395921.4304                   20395920.7854
   2071260.50847   1632509.22345  22459547.8134   22459548.6024   22432976.67247
  17498576.22645                  23140761.2584                   23140761.2664
  -6695926.91848  -5198979.39346  21082810.3204                   21082807.2464
   7912803.52747   6183453.04145  22424114.8524   22424115.0394
   3990739.42247   3127116.76145  21697434.3674                   21697434.2384
  35988993.67646  28062181.18944  24359860.0004                   24359866.3404
  10373943.00446   8101350.23244  23382056.1884                   23382059.3204
 11  9 27 20 46 30.0000000  0  8G04G09G12G02G17G10G05G28
 -17439140.83248 -13554071.36846  20383724.5314                   20383723.5044
   2002525.48047   1578949.43845  22446467.6954   22446469.1994   22231183.35547
  17341334.79445                  23102361.1954                   23102361.3674
  -6843613.57448  -5314059.85346  21054706.2194                   21054703.9264
   7844256.73447   6130039.90745  22411071.3674   22411070.8554
   3819043.92247   2993328.14045  21664761.7664                   21664762.0664
  35772691.19547  27893634.20844  24318698.4844                   24318704.9774
  10352375.27746   8084544.02344  23377952.3364                   23377955.2074
 11  9 27 20 47  0.0000000  0  8G04G09G12G02G17G10G05G28
 -17502836.80948 -13603704.61746  20371603.5004                   20371602.5784
   1934303.43447   1525789.33545  22433485.7114   22433487.5824   22029551.06347
  17184218.82245                  23063991.4924                   23063991.6094
  -6990928.52748  -5428850.68346  21026672.9774                   21026670.2854
   7775805.69947   6076701.38845  22398045.1564   22398045.4224
   3647798.24647   2859890.01545  21632174.3674                   21632174.9774
  35556358.98446  27725064.06244  24277531.3754                   24277538.0314
  10331101.38746   8067966.76743  23373903.8364                   23373907.1414
 11  9 27 20 47 30.0000000  0  8G04G09G12G02G17G10G05G28
 -17566137.41448 -13653029.78146  20359557.7194                   20359557.2624
   1866589.01247   1473024.81345  22420600.0864   22420601.9774   21828079.69947
  17027228.23045                  23025652.7034                   23025652.7624
  -7137874.65648  -5543354.11146  20998710.2584                   20998707.4884
   7707447.98047   6023435.59045  22385037.0164   22385037.1914
   3477002.07847   2726802.16145  21599673.4694                   21599673.4264
  35339996.88346  27556470.64044  24236358.5864                   24236365.0124
  10310116.54346   8051614.73343  23369911.3364                   23369913.4454
 11  9 27 20 48  0.0000000  0  8G04G09G12G02G17G10G05G28
 -17629044.44148 -13702048.24646  20347586.8984                   20347586.0784
   1799380.75046   1420654.69745  22407811.0004   22407812.2854   21626772.69947
  16870365.73845                  22987345.0634                   22987345.3714
  -7284451.19548  -5657569.57646  20970817.6564                   20970814.7934
   7639185.14547   5970243.73045  22372047.2814   22372047.2774
   3306659.57447   2594067.81145  21567257.9454                   21567257.9264
  35123608.78146  27387856.92944  24195180.7344                   24195187.4964
  10289420.57846   8035487.82343  23365972.5164                   23365975.5554
 11  9 27 20 48 30.0000000  0  8G04G09G12G02G17G10G05G28
 -17691561.84048 -13750763.11346  20335690.5314                   20335689.8014
   1732673.80947   1368675.23645  22395117.0004   22395118.1564   21425630.16047
  16713631.40145                  22949068.8444                   22949069.6134
  -7430660.73848  -5771499.03546  20942994.9454                   20942991.9614
   7571015.57848   5917124.54545  22359075.2584   22359075.0824
   3136771.44147   2461687.52745  21534929.5704                   21534929.5124
  34907195.15246  27219223.32743  24153998.6334                   24154004.7584
  10269009.43446   8019582.80943  23362088.8754                   23362091.1844
 11  9 27 20 49  0.0000000  0  8G04G09G12G02G17G10G05G28
 -17753694.69948 -13799178.33946  20323866.8364                   20323866.0274
   1666463.21947   1317082.53544  22382516.9224   22382518.5634   21224652.26247
  16557025.35945                  22910823.7814                   22910824.0594
  -7576505.68748  -5885144.41146  20915241.5944                   20915238.5554
   7502937.06347   5864076.31245  22346120.4924   22346120.1724
   2967338.08647   2329661.61145  21502686.8364                   21502687.4344
  34690756.09046  27050569.85144  24112811.0004                   24112817.6914
  10248879.23846   8003896.72243  23358258.0474                   23358261.3954
 11  9 27 20 49 30.0000000  0  8G04G09G12G02G17G10G05G28
 -17815444.07848 -13847294.76046  20312116.4144                   20312115.7814
   1600747.55947   1265875.49845  22370011.6024   22370012.7894   21023842.71147
  16400550.46245                  22872611.5704                   22872611.4414
  -7721985.01248  -5998504.88946  20887557.5554                   20887554.8914
   7434951.48447   5811100.48445  22333182.7894   22333183.3594
   2798363.48047   2197993.15845  21470532.5234                   21470532.7384
  34474295.64146  26881899.71143  24071620.1724                   24071625.8324
  10229029.75046   7988429.39043  23354481.0474                   23354484.4264
 11  9 27 20 50  0.0000000  0  8G04G09G12G02G17G10G05G28
 -17876811.21548 -13895113.31546  20300438.6024                   20300437.9104
   1535525.06647   1215052.74045  22357600.6644   22357602.2584   20823204.65247
  16244209.21445                  22834431.0474                   22834431.5704
  -7867098.01248  -6111579.91446  20859943.0704                   20859940.7894
   7367060.18848   5758198.13545  22320263.7664   22320263.6914
   2629850.85547   2066684.68245  21438465.0784                   21438465.4694
  34257817.41047  26713215.73643  24030425.4534                   24030431.0664
  10209459.99246   7973180.05043  23350757.3284                   23350760.1564
 11  9 27 20 50 30.0000000  0  8G04G09G12G02G17G10G05G28
 -17937801.22348 -13942638.00146  20288832.6484                   20288831.7774
   1470790.31647   1164610.03845  22345282.0944   22345283.3554   20622737.67247
  16088001.27045                  22796283.3444                   22796283.3874
  -8011847.28948  -6224371.52646  20832398.4694                   20832395.5744
   7299260.83647   5705367.42645  22307362.2344   22307362.2074
   2461800.73448   1935736.59746  21406486.8284                   21406486.8914
  34041321.42246  26544517.88343  23989227.4304                   23989232.6134
  10190165.78146   7958145.34543  23347085.7894                   23347089.1214
 11  9 27 20 51  0.0000000  0  8G04G09G12G02G17G10G05G28
 -17998415.26248 -13989869.73646  20277298.0164                   20277297.3134
   1406541.58647   1114546.03245  22333055.9454   22333057.7704   20422445.76247
  15931929.74945                  22758169.0164                   22758168.9774
  -8156232.59448  -6336879.51246  20804923.2114                   20804920.1884
   7231555.04747   5652609.62645  22294477.8204   22294478.1524
   2294216.87548   1805151.83945  21374596.1954                   21374596.4144
  33824811.71947  26375809.33243  23948026.6884                   23948032.1484
  10171146.60546   7943324.98843  23343467.2114                   23343470.2194
 11  9 27 20 51 30.0000000  0  8G04G09G12G02G17G10G05G28
 -18058656.06248 -14036810.63346  20265834.8594                   20265833.6294
   1342776.06647   1064858.56745  22320921.9534   22320923.5634   20222331.02047
  15775996.28945                  22720088.4534                   22720088.7814
  -8300254.20348  -6449104.10146  20777516.5084                   20777513.6054
   7163943.02047   5599924.87845  22281611.8054   22281612.3364
   2127101.44947   1674932.09145  21342794.9384                   21342794.9774
  33608290.54347  26207091.87244  23906824.1564                   23906829.7344
  10152400.27046   7928717.26444  23339900.2734                   23339902.3674
 11  9 27 20 52  0.0000000  0  8G04G09G12G02G17G10G05G28
 -18118528.77048 -14083464.69646  20254441.0234                   20254440.7544
   1279487.99647   1015543.14545  22308878.6644   22308880.8754   20022393.08647
  15620200.58945                  22682041.3204                   22682041.4144
  -8443915.25848  -6561047.74746  20750178.7194                   20750176.1454
   7096422.57447   5547311.48945  22268763.3834   22268763.0984
   1960454.47347   1545077.34845  21311083.1954                   21311083.5704
  33391757.89547  26038365.42844  23865618.6484                   23865623.8484
  10133922.31346   7914318.60544  23336384.1484                   23336386.7234
 11  9 27 20 52 30.0000000  0  8G04G09G12G02G17G10G05G28
 -16602614.19148 -12902232.56646  20542910.3834                   20542909.8284
   2792096.29747   2194198.91345  22596718.0314   22596719.6334   21398060.23047
  16692149.10545                  22943821.9614                   22943821.8834
  -7011791.87548  -5445107.39646  21022702.5234                   21022699.9694
   8604415.48447   6722370.85345  22555725.0084   22555724.7544
   3369703.69147   2643193.68345  21579254.3984                   21579254.5824
  34750643.13747  27097237.35744  24124205.8594                   24124211.1884
  11691131.41846   9127728.06343  23632711.0554                   23632714.2074
 11  9 27 20 53  0.0000000  0  8G04G09G12G02G17G10G05G28
 -16661757.09448 -12948317.96146  20531655.9304                   20531655.3984
   2729755.67247   2145621.76744  22584855.7034   22584856.7974   21198483.45747
  16536634.81845                  22905843.5394                   22905843.5394
  -7154732.12548  -5556489.37346  20995502.1094                   20995499.1914
   8537079.64147   6669901.33545  22542911.6094   22542911.4654
   3204002.21148   2514075.71345  21547722.6884                   21547722.6684
  34534096.24247  26928499.86144  24082997.9694                   24083003.5354
  11673185.92246   9113744.36543  23629296.6564                   23629299.7304
 11  9 27 20 53 30.0000000  0  8G04G09G12G02G17G10G05G28
 -16720537.61348 -12994120.96946  20520470.1254                   20520469.7344
   2667885.58247   2097411.30245  22573081.8594   22573083.6844   20999091.87947
  16381264.86145                  22867900.4774                   22867900.8984
  -7297311.51648  -5667590.15646  20968370.2814                   20968367.2034
   8469837.93447   6617505.14845  22530115.7894   22530115.9804
   3038778.54348   2385330.04446  21516281.6254                   21516281.3444
  34317547.50847  26759760.95144  24041790.4924                   24041795.1844
  11655505.11346   9099966.85943  23625932.3284                   23625935.1644
 11  9 27 20 54  0.0000000  0  8G04G09G12G02G17G10G05G28
 -16778963.65248 -13039647.75746  20509352.0234                   20509351.2814
   2606477.62547   2049560.89845  22561396.1884   22561398.0984   20799882.83247
  16226037.13445                  22829992.2344                   22829992.6684
  -7439535.61748  -5778414.09346  20941305.5234                   20941302.3284
   8402685.00447   6565178.16045  22517336.6024   22517336.8484
   2874029.66048   2256954.33546  21484930.6884                   21484930.6884
  34100993.85947  26591018.20444  24000581.4454                   24000586.0044
  11638081.75046   9086389.99443  23622616.8594                   23622620.0984
 11  9 27 20 54 30.0000000  0  8G04G09G12G02G17G10G05G28
 -16837038.52348 -13084900.92446  20498300.7584                   20498300.2304
   2545528.14847   2002067.74645  22549798.2424   22549800.2424   20600857.54747
  16070952.59045                  22792119.2584                   22792119.0124
  -7581406.05948  -5888962.45546  20914308.5704                   20914305.8284
   8335620.75847   6512920.25345  22504574.8674   22504575.4774
   2709757.20348   2128949.86946  21453670.6564                   21453670.6294
  33884437.22346  26422273.15444  23959371.2274                   23959376.5314
  11620913.17647   9073011.61944  23619349.6804                   23619353.7034
 11  9 27 20 55  0.0000000  0  8G04G09G12G02G17G10G05G28
 -16894762.43448 -13129880.60846  20487316.3524                   20487315.9184
   2485036.65647   1954931.45845  22538286.7814   22538289.0124   20402020.72347
  15916014.88945                  22754281.1254                   22754281.4184
  -7722920.83248  -5999233.67146  20887379.0164                   20887376.3134
   8268648.12947   6460733.72445  22491830.4844   22491830.8554
   2545966.13348   2001320.50645  21422502.0164                   21422502.0554
  33667882.60946  26253529.63644  23918161.1484                   23918167.3284
  11603999.69146   9059832.05443  23616131.6094                   23616135.1174
 11  9 27 20 55 30.0000000  0  8G04G09G12G02G17G10G05G28
 -16952140.68448 -13174590.94146  20476397.6804                   20476396.8134
   2424996.91447   1908147.20845  22526862.1174   22526863.8834   20203371.81347
  15761223.64445                  22716480.0474                   22716480.0394
  -7864083.32048  -6109230.38146  20860516.6334                   20860514.0594
   8201764.00447   6408616.19345  22479102.7504   22479103.3594
   2382655.78548   1874065.75146  21391425.4304                   21391425.2544
  33451329.84447  26084787.61344  23876953.3284                   23876958.1294
  11587336.50846   9046847.50143  23612960.7424                   23612964.6484
 11  9 27 20 56  0.0000000  0  8G04G09G12G02G17G10G05G28
 -17009175.02748 -13219033.29946  20465544.0784                   20465543.3054
   2365406.93047   1861713.43644  22515522.6954   22515523.9534   20004914.23847
  15606581.44845                  22678714.7504                   22678714.3954
  -8004893.54748  -6218952.61446  20833721.4844                   20833718.8754
   8134969.60247   6356568.56345  22466392.3674   22466392.6254
   2219829.42648   1747188.11046  21360440.5554                   21360440.1994
  33234782.15647  25916049.53644  23835745.1414                   23835750.1524
  11570922.61346   9034057.20944  23609837.6174                   23609841.0554
 11  9 27 20 56 30.0000000  0  8G04G09G12G02G17G10G05G28
 -17065870.36748 -13263211.49546  20454755.5864                   20454755.1254
   2306261.29747   1815625.90645  22504267.5394   22504268.7304   19806647.53547
  15452088.00145                  22640985.5004                   22640985.5124
  -8145354.01648  -6328402.30046  20806992.6024                   20806989.8524
   8068263.03547   6304589.37145  22453698.6174   22453698.8134
   2057486.96948   1620687.53646  21329547.4144                   21329547.7704
  33018239.79747  25747315.57344  23794537.9694                   23794543.2384
  11554753.63746   9021457.77143  23606761.2894                   23606764.6054
 11  9 27 20 57  0.0000000  0  8G04G09G12G02G17G10G05G28
 -17122228.66048 -13307127.06046  20444030.7274                   20444030.2624
   2247557.23447   1769882.44944  22493096.1254   22493097.2734   19608574.94147
  15297745.78045                  22603293.7424                   22603293.3754
  -8285464.82848  -6437579.52646  20780330.4304                   20780328.0634
   8001645.08647   6252679.23245  22441021.8834   22441022.1024
   1895631.30948   1494566.29846  21298747.5784                   21298747.5434
  32801706.23447  25578588.44744  23753333.2194                   23753337.6914
  11538828.43446   9009048.29643  23603730.5394                   23603734.4614
 11  9 27 20 57 30.0000000  0  8G04G09G12G02G17G10G05G28
 -17178248.89148 -13350779.20046  20433370.5704                   20433370.1214
   2189295.52047   1724483.65944  22482009.8364   22482011.0744   19410702.21947
  15143559.33445                  22565639.5864                   22565639.2384
  -8425223.09848  -6546482.04746  20753735.4534                   20753732.5124
   7935119.87147   6200841.36845  22428362.5784   22428362.7664
   1734268.18848   1368828.85446  21268040.8834                   21268041.0664
  32585187.65247  25409873.02244  23712130.9694                   23712135.0944
  11523147.94946   8996829.50043  23600747.0704                   23600749.3954
 11  9 27 20 58  0.0000000  0  8G04G09G12G02G17G10G05G28
 -17233937.98848 -13394173.31246  20422773.4844                   20422772.2504
   2131468.67647   1679423.73544  22471005.9144   22471007.2624   19213027.43847
  14989527.12345                  22528023.3364                   22528023.0394
  -8564633.59047  -6655113.56546  20727206.4844                   20727203.2814
   7868683.57047   6149072.77745  22415720.0314   22415720.4144
   1573396.27048   1243474.15446  21237428.2894                   21237427.6804
  32368682.40247  25241167.92744  23670930.7974                   23670935.2624
  11507706.62146   8984797.05443  23597808.8524                   23597812.4694
 11  9 27 20 58 30.0000000  0  8G04G09G12G02G17G10G05G28
 -17289297.84048 -13437310.87346  20412238.8204                   20412238.2274
   2074074.06647   1634700.60645  22460083.8054   22460085.6724   19015553.32047
  14835651.27445                  22490444.9454                   22490445.2854
  -8703696.63348  -6763474.34146  20700743.3444                   20700740.5594
   7802336.84447   6097374.00145  22403094.8984   22403095.2304
   1413017.85548   1118504.01245  21206909.1644                   21206908.9184
  32152193.02047  25072475.20444  23629734.4694                   23629738.1994
  11492503.10246   8972949.93243  23594916.5314                   23594918.9064
 11  9 27 20 59  0.0000000  0  8G04G09G12G02G17G10G05G28
 -17344329.93048 -13480193.03946  20401766.3444                   20401766.0904
   2017109.78947   1590312.82445  22449243.7344   22449245.4304   18818283.64847
  14681934.74645                  22452905.8524                   22452906.0434
  -8842411.46148  -6871563.77546  20674346.7894                   20674344.0234
   7736081.08647   6045746.10645  22390487.0864   22390487.0594
   1253136.57048    993921.24046  21176485.0004                   21176484.8204
  31935723.68047  24903798.08044  23588541.4144                   23588545.1994
  11477535.98846   8961286.95443  23592067.7344                   23592071.1134
 11  9 27 20 59 30.0000000  0  8G04G09G12G02G17G10G05G28
 -15823616.25048 -12295221.35746  20691148.5084                   20691147.9104
   3535993.43447   2773858.47344  22738277.9534   22738278.9264   20196646.27747
  15755983.64745                  22715199.3444                   22715199.2384
  -7405355.24648  -5751779.66546  20947809.3674                   20947807.0864
   9245337.60947   7221790.11245  22677688.8204   22677689.0084
   2669178.72348   2097330.75446  21445948.2974                   21445947.9884
  33294703.10547  25962743.44244  23847146.3054                   23847149.8794
  13038222.79346  10177406.24443  23889057.1024                   23889060.7074
 11  9 27 21  0  0.0000000  0  8G04G09G12G02G17G10G05G28
 -15877997.35948 -12337596.25846  20680800.0704                   20680799.3404
   3479883.53147   2730136.39245  22727600.8984   22727601.7344   19999795.51247
  15602593.52245                  22677739.6884                   22677740.1374
  -7543372.57448  -5859325.59946  20921546.0634                   20921542.8244
   9179267.97347   7170307.24545  22665116.2194   22665116.2344
   2510301.15648   1973530.11146  21415715.3054                   21415714.7894
  33078284.91047  25794106.20444  23805962.3524                   23805966.5084
  13023725.80946  10166109.70843  23886298.6644                   23886301.4534
 11  9 27 21  0 30.0000000  0  8G04G09G12G02G17G10G05G28
 -15932059.49648 -12379722.62546  20670512.6724                   20670512.4964
   3424193.39546   2686741.44745  22717003.2114   22717004.1414   19803155.07847
  15449367.30745                  22640320.5084                   22640320.8914
  -7681044.80148  -5966602.60846  20895347.6094                   20895344.6054
   9113289.46547   7118895.38045  22652561.2814   22652561.1174
   2351926.28148   1850121.17346  21385577.4844                   21385577.6134
  32861893.89547  25625490.16244  23764784.6094                   23764789.1454
  13009458.37946  10154991.97243  23883583.3284                   23883587.5124
 11  9 27 21  1  0.0000000  0  8G04G09G12G02G17G10G05G28
 -15985806.05548 -12421603.07146  20660284.8984                   20660284.4414
   3368918.94947   2643670.38445  22706485.0864   22706486.6524   19606726.37947
  15296306.07745                  22602941.3914                   22602941.0274
  -7818373.33648  -6073611.82346  20869214.8524                   20869211.8444
   9047401.10547   7067553.77445  22640022.5314   22640023.0514
   2194055.39848   1727104.96046  21355535.5234                   21355535.3244
  32645531.78546  25456896.63144  23723611.3054                   23723616.2234
  12995417.60246  10144050.87143  23880911.9774                   23880915.8874
 11  9 27 21  1 30.0000000  0  8G04G09G12G02G17G10G05G28
 -16039239.70748 -12463239.71146  20650116.7424                   20650116.4024
   3314056.75447   2600920.55744  22696044.8984   22696046.4614   19410511.48847
  15143411.45645                  22565602.6724                   22565602.6294
  -7955359.12548  -6180353.96046  20843147.1884                   20843144.5044
   8981603.19947   7016282.65145  22627501.6954   22627502.0744
   2036690.25047   1604482.81446  21325589.6094                   21325589.5824
  32429200.80146  25288327.36144  23682445.1644                   23682448.8164
  12981601.04346  10133284.41643  23878282.5864                   23878287.2734
 11  9 27 21  2  0.0000000  0  8G04G09G12G02G17G10G05G28
 -16092359.70748 -12504631.95846  20640008.5704                   20640008.1374
   3259606.98847   2558492.10445  22685683.3754   22685685.2034   19214516.33247
  14990688.04945                  22528306.1334                   22528306.3404
  -8091999.35248  -6286826.83146  20817145.4224                   20817142.7424
   8915899.78947   6965085.15345  22614998.9454   22614998.9454
   1879836.82447   1482259.41746  21295741.3204                   21295741.4804
  32212907.07447  25119787.10644  23641285.6564                   23641289.8404
  12968010.37946  10122694.08943  23875696.6254                   23875700.9064
 11  9 27 21  2 30.0000000  0  8G04G09G12G02G17G10G05G28
 -16145170.22748 -12545783.02346  20629958.9774                   20629958.2664
   3205564.89547   2516381.33445  22675399.9924   22675401.4104   19018741.60947
  14838136.41245                  22491051.0864                   22491050.8134
  -8228296.40648  -6393032.30446  20791209.1414                   20791206.2894
   8850289.53947   6913960.24945  22602513.5474   22602513.7504
   1723495.32048   1360434.91946  21265990.8204                   21265990.3444
  31996651.84047  24951276.86744  23600133.4844                   23600137.5784
  12954641.59446  10112276.52643  23873152.6724                   23873157.4654
 11  9 27 21  3  0.0000000  0  8G04G09G12G02G17G10G05G28
 -16197672.47348 -12586693.89946  20619968.4694                   20619967.7894
   3151928.54747   2474586.70345  22665193.4144   22665195.1684   18823191.17647
  14685759.53445                  22453839.3444                   22453839.1484
  -8364249.73448  -6498969.94046  20765337.8984                   20765334.9924
   8784773.89147   6862909.04745  22590046.8914   22590046.6804
   1567669.15648   1239011.99246  21236338.2274                   21236337.7114
  31780439.06347  24782799.69344  23558989.8914                   23558993.7234
  12941493.84446  10102031.25743  23870651.1024                   23870655.5274
 11  9 27 21  3 30.0000000  0  8G04G09G12G02G17G10G05G28
 -16249871.88748 -12627368.78546  20610035.1094                   20610034.4494
   3098691.78546   2433103.45345  22655062.0634   22655064.4304   18627864.57447
  14533557.07545                  22416669.8524                   22416669.9574
  -8499863.12548  -6604642.68346  20739531.5314                   20739528.6994
   8719350.27747   6811929.58145  22577596.8594   22577597.1054
   1412357.38348   1117989.89646  21206783.0314                   21206782.6954
  31564268.75047  24614355.59744  23517853.7114                   23517857.1914
  12928562.58246  10091954.74143  23868190.3914                   23868195.0554
 11  9 27 21  4  0.0000000  0  8G04G09G12G02G17G10G05G28
 -16301769.21947 -12667808.28246  20600159.2114                   20600158.6954
   3045852.96146   2391930.26444  22645007.6414   22645009.8364   18432765.53547
  14381531.92945                  22379543.6724                   22379543.8554
  -8635135.10248  -6710049.40446  20713790.1334                   20713787.2774
   8654021.19947   6761023.75645  22565165.0004   22565165.2074
   1257564.06648    997371.78346  21177326.7584                   21177326.7114
  31348144.79747  24445947.60745  23476726.6024                   23476729.9734
  12915847.51646  10082046.62743  23865770.9774                   23865775.5864
 11  9 27 21  4 30.0000000  0  8G04G09G12G02G17G10G05G28
 -16353368.50448 -12708015.53946  20590340.4774                   20590339.6994
   2993407.48047   2351063.59444  22635027.5554   22635029.5634   18237895.02747
  14229684.85245                  22342460.6024                   22342460.6414
  -8770068.18448  -6815192.03846  20688113.1414                   20688110.5354
   8588785.53147   6710190.74745  22552751.3984   22552751.3914
   1103289.87948    877158.18146  21147969.5084                   21147969.1684
  31132068.53947  24277576.80245  23435608.3134                   23435611.9414
  12903344.74246  10072303.94843  23863391.7424                   23863396.6524
 11  9 27 21  5  0.0000000  0  8G04G09G12G02G17G10G05G28
 -16404669.16848 -12747990.11146  20580578.0704                   20580577.6564
   2941355.42647   2310503.48844  22625122.5784   22625124.0784   18043259.07047
  14078020.54445                  22305422.9694                   22305422.4654
  -8904659.57448  -6920068.43446  20662501.2194                   20662498.3714
   8523646.69947   6659433.18645  22540355.7424   22540356.0204
    949540.00848    757353.14446  21118711.7504                   21118711.1374
  30916046.27347  24109248.03645  23394500.1724                   23394503.6174
  12891055.61746  10062727.66043  23861053.6954                   23861058.2704
 11  9 27 21  5 30.0000000  0  8G04G09G12G02G17G10G05G28
 -16455670.61748 -12787731.52046  20570872.9144                   20570872.3164
   2889696.36747   2270249.60344  22615291.5004   22615294.0594   17848862.90247
  13926543.06845                  22268430.4454                   22268429.9884
  -9038907.10248  -7024676.88546  20636954.8204                   20636951.8834
   8458608.38347   6608753.92345  22527979.4924   22527979.6484
    796319.57448    637960.65046  21089555.0474                   21089554.5824
  30700083.39847  23940965.54045  23353403.5784                   23353407.2114
  12878981.07446  10053318.61243  23858756.0634                   23858761.0084
 11  9 27 21  6  0.0000000  0  8G04G09G12G02G17G10G05G28
 -16506374.71548 -12827241.22246  20561224.3594                   20561224.0044
   2838427.77747   2230299.98544  22605536.1094   22605538.4224   17654709.65647
  13775254.87945                  22231484.1484                   22231483.4964
  -9172810.75448  -7129017.36046  20611473.6414                   20611471.0704
   8393671.58247   6558153.78745  22515622.1094   22515622.7774
    643631.30548    518982.82346  21060499.0394                   21060498.9224
  30484183.64847  23772732.21945  23312319.0704                   23312322.2974
  12867119.81346  10044075.84442  23856498.8204                   23856504.2154
 11  9 27 21  6 30.0000000  0  8G04G09G12G02G17G10G05G28
 -14981361.64548 -11638919.37646  20851425.0164                   20851424.1134
   4362968.61747   3418253.83144  22895646.4064   22895648.7814   19036228.48047
  14851763.13945                  22494378.2034                   22494378.3204
  -7730946.53948  -6005486.78146  20885851.2424                   20885848.3634
   9904259.03947   7735234.88045  22803077.3914   22803077.8134
   2066902.60248   1628025.43546  21331338.5864   21331338.2424   31843777.26247
  24832156.08144  23571041.1884   23571043.7814
  14430890.40646  11262598.06643  24154075.5944                   24154080.1724
 11  9 27 21  7  0.0000000  0  8G04G09G12G02G17G10G05G28
 -15031477.50448 -11677970.70946  20841888.1564                   20841887.5474
   4312472.28547   3378905.96845  22886037.6414   22886039.2194   18842569.28547
  14700859.93645                  22457526.1804                   22457525.2774
  -7864164.06248  -6109292.61046  20860500.9694                   20860497.9574
   9839527.20347   7684794.44845  22790759.3594   22790759.8484
   1915285.52748   1509882.31646  21302487.0084   21302486.7464   31628012.79347
  24664028.16544  23529981.8054                                   23529985.3484
  14419450.19146  11253683.36243  24151898.7114                   24151903.6994
 11  9 27 21  7 30.0000000  0  8G04G09G12G02G17G10G05G28
 -15081304.21548 -11716796.74046  20832406.3134                   20832405.7814
   4262355.78147   3339854.06044  22876500.6484   22876502.6134   18649159.85247
  14550151.35545                  22420721.7424                   22420721.2074
  -7997040.72748  -6212832.84846  20835215.2664                   20835212.5004
   9774897.18447   7634433.35245  22778460.7194   22778461.5554
   1764205.62548   1392157.76346  21273737.1254   21273737.0554   31412318.87947
  24495955.24944  23488936.6644                                   23488939.9844
  14408215.91046  11244929.01843  24149760.8984                   24149765.7504
 11  9 27 21  8  0.0000000  0  8G04G09G12G02G17G10G05G28
 -15130844.52748 -11755399.60046  20822979.2424                   20822978.4844
   4212615.69147   3301095.47744  22867034.9844   22867037.7544   18456002.04347
  14399638.86145                  22383964.9774                   22383964.9924
  -8129577.31648  -6316108.09346  20809994.2114                   20809991.1484
   9710369.57847   7584152.06645  22766181.8524   22766182.2384
   1613664.98448   1274853.40746  21245090.3754   21245089.7894   31196698.55947
  24327939.65044  23447905.3284                                   23447908.2234
  14397185.67646  11236333.88843  24147662.6954                   24147667.0234
 11  9 27 21  8 30.0000000  0  8G04G09G12G02G17G10G05G28
 -15180097.35548 -11793778.44646  20813606.6954                   20813606.3324
   4163252.10547   3262630.27644  22857641.5944   22857644.2344   18263101.95347
  14249327.16345                  22347257.4534                   22347256.7304
  -8261771.29748  -6419116.36446  20784838.5474                   20784835.6684
   9645948.08647   7533953.45345  22753922.5634   22753923.2624
   1463668.79348   1157973.31246  21216546.7034   21216546.3364   30981157.43447
  24159985.76144  23406889.3914                                   23406891.6684
  14386360.94546  11227898.60443  24145602.9064                   24145607.2814
 11  9 27 21  9  0.0000000  0  8G04G09G12G02G17G10G05G28
 -15229068.30548 -11831937.65846  20804287.9774                   20804287.2504
   4114258.81647   3224453.60544  22848318.8914   22848320.9654   18070459.14847
  14099215.95145                  22310598.3834                   22310597.7624
  -8393626.21548  -6521860.43546  20759747.3984                   20759745.0474
   9581630.14847   7483835.52645  22741683.3444   22741684.1414
   1314216.26248   1041516.84346  21188106.9924   21188106.7234   30765695.96547
  23992093.96944  23365887.8984                                   23365890.7584
  14375736.43446  11219619.49943  24143581.3914                   24143585.5704
 11  9 27 21  9 30.0000000  0  8G04G09G12G02G17G10G05G28
 -15277760.59848 -11869879.74346  20795021.9224                   20795021.4344
   4065631.94147   3186562.48044  22839065.7034   22839067.2234   17878075.18847
  13949306.45145                  22273988.3754                   22273988.4304
  -8525143.98048  -6624341.78146  20734720.4924                   20734717.2664
   9517415.48847   7433798.07445  22729463.8754   22729464.5084
   1165308.21148    925484.61746  21159770.7194   21159770.4384   30550315.40647
  23824265.21744  23324902.4454                                   23324905.1054
  14365309.28546  11211494.12243  24141597.0864                   24141602.3054
 11  9 27 21 10  0.0000000  0  8G04G09G12G02G17G10G05G28
 -15326175.62948 -11907605.77346  20785808.8984                   20785808.1764
   4017368.90647   3148954.81744  22829881.1174   22829883.2894   17685953.70347
  13799601.46746                  22237428.8444                   22237429.0594
  -8656324.09048  -6726560.01146  20709757.7734                   20709754.8594
   9453305.39147   7383842.11145  22717264.3364   22717264.5984
   1016947.78948    809879.12946  21131538.5394   21131538.0314   30335019.93847
  23656502.73645  23283932.5084                                   23283935.5824
  14355078.31346  11203521.60543  24139650.4454                   24139656.1684
 11  9 27 21 10 30.0000000  0  8G04G09G12G02G17G10G05G28
 -15374315.53148 -11945117.42046  20776648.1724                   20776647.5204
   3969466.93047   3111628.53544  22820766.1024   22820768.0944   17494097.30947
  13650103.04645                  22200920.1414                   22200919.7384
  -8787166.95748  -6828515.46246  20684859.0944                   20684856.2624
   9389300.88747   7333968.40445  22705084.7974   22705085.4614
    869136.88348    694701.84346  21103410.9224   21103410.7704   30119812.85247
  23488809.13845  23242979.8754                                   23242982.5784
  14345041.80946  11195700.62043  24137740.4844                   24137746.3914
 11  9 27 21 11  0.0000000  0  8G04G09G12G02G17G10G05G28
 -15422182.53548 -11982416.41246  20767539.7114                   20767538.5824
   3921922.99247   3074581.23544  22811719.0944   22811720.8674   17302509.08247
  13500813.59845                  22164462.0084                   22164461.2894
  -8917673.29348  -6930208.69446  20660024.7114                   20660021.5434
   9325402.80947   7284177.64645  22692925.2034   22692925.6294
    721877.52348    579954.32146  21075388.4774   21075388.1054   29904697.60547
  23321187.08445  23202045.0474                                   23202047.6334
  14335198.23846  11188029.99943  24135867.5784                   24135872.9344
 11  9 27 21 11 30.0000000  0  8G04G09G12G02G17G10G05G28
 -15469776.91048 -12019502.96746  20758482.4304                   20758481.9534
   3874735.77047   3037811.89344  22802740.1024   22802741.8444   17111193.35947
  13351736.48345                  22128055.8914                   22128055.4104
  -9047841.61348  -7031638.53046  20635254.3914                   20635251.5434
   9261613.66047   7234471.76745  22680786.9454   22680787.4024
    575173.60248    465639.60946  21047471.4924   21047471.4844   29689678.54347
  23153640.00245  23161128.2034                                   23161130.7344
  14325547.19946  11180509.28143  24134030.7664                   24134037.0314
 11  9 27 21 12  0.0000000  0  8G04G09G12G02G17G10G05G28
 -15517100.97348 -12056378.89846  20749477.0314                   20749476.4804
   3827902.04747   3001318.01344  22793827.2114   22793829.6844   16920152.87947
  13202873.82845                  22091702.1024                   22091701.6094
  -9177672.52348  -7132805.44846  20610548.2274                   20610545.2274
   9197934.01247   7184851.18945  22668668.9774   22668669.4614
    429027.37148    351759.43646  21019661.0864   21019660.5904   29474758.70347
  22986170.21145  23120229.9454                                   23120232.7384
  14316086.91445  11173137.29443  24132231.3834                   24132237.5434
 11  9 27 21 12 30.0000000  0  8G04G09G12G02G17G10G05G28
 -15564158.05548 -12093046.78346  20740522.3204                   20740521.7384
   3781417.46547   2965096.15544  22784981.9614   22784983.5314   16729389.46547
  13054227.09345                  22055400.4224                   22055400.2424
  -9307167.80148  -7233710.82746  20585906.2734                   20585903.5004
   9134363.66047   7135315.79845  22656572.0314   22656572.4574
    283439.72748    238314.56046  20991956.7194   20991955.9024   29259940.19547
  22818779.40945  23079351.3204                                   23079353.6484
  14306814.67246  11165911.83343  24130467.6254                   24130473.9104
 11  9 27 21 13  0.0000000  0  8G04G09G12G02G17G10G05G28
 -15610949.34448 -12129507.56346  20731618.6884                   20731617.7854
   3735280.12947   2929144.91244  22776202.7584   22776204.0044   16538906.61747
  12905798.96245                  22019153.3754                   22019152.7464
  -9436326.88348  -7334354.25046  20561327.7664                   20561324.7384
   9070904.43847   7085866.99645  22644496.5084   22644496.7384
    138413.76248    125307.33346  20964359.1094   20964358.4064   29045227.05947
  22651470.67445  23038492.1884                                   23038494.6764
  14297729.14145  11158831.82743  24128738.4064                   24128744.7774
 11  9 27 21 13 30.0000000  0  8G04G09G12G02G17G10G05G28
 -15657477.69148 -12165763.45746  20722764.6094                   20722763.8794
   3689486.26247   2893461.29644  22767488.2584   22767490.1484   16348706.42647
  12757591.08845                  21982959.1724                   21982958.0084
  -9565150.98048  -7434736.63146  20536813.3284                   20536810.6684
   9007555.79347   7036504.35245  22632441.3984   22632442.0314
     -6049.37948     12738.67946  20936868.4454   20936868.2074   28830622.18447
  22484246.31145  22997654.5704                                   22997656.8014
  14288827.94945  11151895.43943  24127044.7274                   24127050.8954
 11  9 27 21 14  0.0000000  0  8G04G09G12G02G17G10G05G28
 -14128322.84848 -10974214.26346  21013752.7814                   21013752.4614
   5219455.14546   4085644.76444  23058631.6334   23058633.9804   17734218.86347
  13837211.22645                  22246613.4384                   22246612.5704
  -8118215.54348  -6307254.45846  20812156.1414                   20812153.1094
  10519741.67247   8214830.95045  22920200.5784   22920201.2974
   1425478.01648   1128214.61046  21209279.1094   21209278.6914   30191556.26647
  23544714.64245  23256630.8524                                   23256633.3164
  15855530.39546  12372702.18042  24425179.7034                   24425185.0554
 11  9 27 21 14 30.0000000  0  7G04G09G12G02G17G10G05
 -14174327.75847 -11010062.28646  21004998.4694                   21004998.0354
   5174342.98846   4050492.36644  23050047.0634   23050048.9064   17544596.58647
  13689453.67245                  22210529.5634                   22210528.8284
  -8246367.17648  -6407112.85246  20787769.5864                   20787767.0044
  10456621.52047   8165646.34445  22908189.4924   22908190.0434
   1282150.80547   1016531.08946  21182004.9844   21182004.2624
  29977180.62547  23377668.88745  23215836.3984                   23215838.5234
 11  9 27 21 15  0.0000000  0  7G04G09G12G02G17G10G05
 -14220074.56248 -11045709.16546  20996293.2734                   20996292.2974
   5129566.60947   4015601.60244  23041526.2034   23041528.8554   17355266.66447
  13541923.93245                  22174500.7814                   22174500.1844
  -8374184.30548  -6506710.58546  20763446.8674                   20763444.2814
  10393616.32847   8116551.32145  22896200.0234   22896200.7384
   1139393.98047    905292.03146  21154839.4384   21154838.8984
  29762923.91447  23210715.79745  23175064.9534                   23175066.8324
 11  9 27 21 15 30.0000000  0  7G04G09G12G02G17G10G05
 -14265556.11348 -11081149.35946  20987638.3674                   20987637.9964
   5085132.25047   3980977.35744  23033071.0004   23033072.9804   17166241.43047
  13394631.60245                  22138530.8204                   22138530.1374
  -8501657.72348  -6606040.51146  20739189.4384                   20739186.6844
  10330735.94947   8067553.57445  22884234.4224   22884234.8794
    997218.60948    794506.05846  21127783.7894   21127783.5704
  29548798.65647  23043865.14945  23134317.4304                   23134319.8014
 11  9 27 21 16  0.0000000  0  7G04G09G12G02G17G10G05
 -14310764.14548 -11116376.42646  20979035.6564                   20979035.0664
   5041047.23447   3946625.29544  23024681.8914   23024683.8794   16977534.41447
  13247587.23245                  22102620.5944                   22102620.5234
  -8628777.82448  -6705095.12246  20714999.6414                   20714996.4494
  10267991.61747   8018661.80845  22872294.5634   22872295.0824
    855637.14847    684182.87146  21100841.9614   21100841.6054
  29334818.32847  22877127.43445  23093598.4534                   23093600.3364
 11  9 27 21 16 30.0000000  0  7G04G09G12G02G17G10G05
 -14355703.26648 -11151393.93946  20970483.9454                   20970483.5664
   4997305.89147   3912541.04244  23016357.6724   23016359.9264   16789145.62147
  13100790.85846                  22066771.8984                   22066771.3364
  -8755547.65248  -6803876.79246  20690875.6804                   20690872.7034
  10205381.57447   7969874.70145  22860380.5004   22860380.9534
    714648.88348    574321.92246  21074012.7734   21074012.4924
  29120983.36347  22710502.96745  23052906.9454                   23052909.1334
 11  9 27 21 17  0.0000000  0  7G04G09G12G02G17G10G05
 -14400378.84848 -11186206.11746  20961982.7274                   20961982.1094
   4953901.99246   3878719.75444  23008098.3834   23008100.4694   16601074.57047
  12954242.05046                  22030982.8984                   22030982.3444
  -8881970.88748  -6902388.38546  20666818.0944                   20666815.2034
  10142903.60547   7921190.51145  22848490.8984   22848491.6174
    574252.47748    464922.15446  21047295.9614   21047295.3554
  28907293.97747  22543991.94645  23012243.4064                   23012244.9494
 11  9 27 21 17 30.0000000  0  7G04G09G12G02G17G10G05
 -14444794.35948 -11220815.64046  20953530.7034                   20953529.9804
   4910830.93446   3845157.78144  22999902.7584   22999904.9694   16413322.71947
  12807941.98146                  21995255.1174                   21995254.1954
  -9008049.55948  -7000631.49346  20642826.2974                   20642823.3484
  10080557.14547   7872608.78045  22836626.8984   22836627.7274
    434448.39848    355983.93646  21020692.1724   21020691.9734
  28693752.06347  22377595.84545  22971607.7344                   22971609.5274
 11  9 27 21 18  0.0000000  0  7G04G09G12G02G17G10G05
 -14488956.28548 -11255227.54246  20945126.6564                   20945126.3954
   4868085.21146   3811849.32944  22991768.9844   22991770.4774   16225888.27347
  12661889.24245                  21959586.8834                   21959586.2624
  -9133788.81248  -7098610.11346  20618899.0394                   20618896.0234
  10018338.34047   7824126.55645  22824786.9614   22824787.7734
    295234.02347    247505.22746  20994200.6484   20994200.2934
  28480356.39847  22211313.68645  22930999.5394                   22931001.1604
 11  9 27 21 18 30.0000000  0  7G04G09G12G02G17G10G05
 -14532866.74648 -11289443.50146  20936771.1254                   20936770.4344
   4825661.81646   3778792.06944  22983695.1724   22983698.1954   16038774.46547
  12516086.33546                  21923980.6334                   21923980.2974
  -9259188.77348  -7196324.35646  20595035.8594                   20595033.1174
   9956248.21147   7775744.57345  22812971.7504   22812972.5434
    156611.21148    139487.49146  20967821.8054   20967821.3094
  28267110.08647  22045147.92545  22890420.0704                   22890421.6094
 11  9 27 21 19  0.0000000  0  7G04G09G12G02G17G10G05
 -14576530.81248 -11323467.46846  20928462.1174                   20928461.6414
   4783554.61747   3745981.16244  22975683.1954   22975685.5084   15851980.69547
  12370532.82646                  21888435.1724                   21888434.3634
  -9384253.56648  -7293777.43146  20571237.2894                   20571234.0824
   9894284.70347   7727461.25645  22801181.1644   22801181.4614
     18578.42248     31929.49746  20941554.6254   20941554.2774
  28054013.14547  21879098.53445  22849868.9534                   22849870.8284
 11  9 27 21 19 30.0000000  0  7G04G09G12G02G17G10G05
 -14619952.19548 -11357302.33646  20920199.0164                   20920198.4654
   4741758.66446   3713412.81544  22967729.0234   22967731.8524   15665508.50047
  12225229.87846                  21852950.5164                   21852949.5634
  -9508984.96548  -7390970.71246  20547501.7424                   20547498.1954
   9832446.79347   7679275.79345  22789413.3594   22789414.2034
   -118863.81248    -75168.31646  20915400.3754   20915399.7774
  27841067.62547  21713167.13745  22809346.1484                   22809348.6884
 11  9 27 21 20  0.0000000  0  7G04G09G12G02G17G10G05
 -14663133.89148 -11390950.43046  20911982.2274                   20911981.8134
   4700269.94146   3681083.84344  22959834.7114   22959837.0664   15479359.85247
  12080179.05445                  21817527.2194                   21817526.2274
  -9633384.50448  -7487905.40246  20523829.0704                   20523826.3244
   9770734.39547   7631188.15845  22777669.8524   22777670.3594
   -255714.64848   -181805.30946  20889358.5704   20889358.1604
  27628275.57847  21547355.31145  22768853.1414                   22768855.0124
 11  9 27 21 20 30.0000000  0  7G04G09G12G02G17G10G05
 -14706080.83247 -11424415.59646  20903809.4534                   20903809.0944
   4659082.38746   3648989.54844  22951996.9384   22951999.5824   15293534.11747
  11935379.85845                  21782166.1024                   21782165.3134
  -9757456.23848  -7584584.66346  20500218.8984                   20500215.9694
   9709145.35247   7583196.61344  22765950.6724   22765950.3444
   -391975.61348   -287982.65046  20863429.0004   20863428.4494
  27415637.03147  21381663.10145  22728389.5234                   22728391.3484
 11  9 27 21 21  0.0000000  0  7G04G09G12G02G17G10G05
 -13173373.55948 -10230098.28246  21195473.8984                   21195473.2974
   6193614.69947   4844728.90845  23244009.2504   23244011.3164   16683460.59447
  13018439.50346                  22046660.0314                   22046659.1094
  -8305776.39848  -6453405.56247  20776464.5634                   20776461.4304
  11223102.60547   8762903.49945  23054045.9454   23054046.8594
   1047779.77048    833904.68546  21137405.0944   21137404.4414
  28778582.71947  22443698.84845  22987749.5164                   22987750.8164
 11  9 27 21 21 30.0000000  0  7G04G09G12G02G17G10G05
 -13215854.05148 -10263199.98146  21187390.4694                   21187390.2544
   6153024.05947   4813099.75244  23236285.1884   23236287.2774   16498293.09047
  12874153.19646                  22011423.6254                   22011423.3914
  -8429190.63748  -6549572.48747  20752979.3364                   20752976.3324
  11161765.84847   8715108.55745  23042374.5784   23042375.1994
    912707.29348    728653.43846  21111701.4694   21111701.1094
  28566264.54347  22278256.26145  22947346.4844                   22947347.9064
 11  9 27 21 22  0.0000000  0  7G04G09G12G02G17G10G05
 -13258102.50048 -10296120.87846  21179350.5554                   21179350.0664
   6112728.48447   4781700.49944  23228617.0234   23228619.4804   16313460.37547
  12730127.77346                  21976251.3834                   21976250.6454
  -8552275.37148  -6645482.65547  20729557.2344                   20729554.0004
  11100558.35247   8667414.34845  23030727.4064   23030728.2704
    778233.05948    623868.35846  21086112.0004   21086111.6254
  28354112.75847  22112943.32945  22906975.3914                   22906976.5984
 11  9 27 21 22 30.0000000  0  7G04G09G12G02G17G10G05
 -13300124.54748 -10328865.34146  21171353.8134                   21171353.6214
   6072721.68047   4750526.25444  23221003.7034   23221006.2194   16128961.90647
  12586362.79446                  21941142.3524                   21941141.5314
  -8675034.52348  -6741139.12246  20706196.7814                   20706193.8794
  11039477.38347   8619818.69645  23019104.1094   23019104.2894
    644355.09048    519547.89846  21060635.9924   21060635.7034
  28142127.60947  21947760.24245  22866635.3364                   22866637.0314
 11  9 27 21 23  0.0000000  0  8G04G09G12G02G17G10G05G25
 -13341923.41448 -10361435.92846  21163399.6334                   21163399.5234
   6032999.41847   4719573.72044  23213444.6094   23213447.8094   15944799.58247
  12442859.74546                  21906097.1884                   21906096.0394
  -8797469.71548  -6836543.15746  20682898.3914                   20682895.3794
  10978522.75046   8572321.55345  23007504.7974   23007505.4384
    511073.89548    415692.45846  21035273.6644   21035272.3954
  27930311.16047  21782708.60745  22826328.1334                   22826329.4654
  48610677.54356  37900690.01054  24697214.6954                   24697219.4494
 11  9 27 21 23 30.0000000  0  8G04G09G12G02G17G10G05G25
 -13383505.07847 -10393837.24546  21155487.2664                   21155486.9574
   5993554.30947   4688837.15844  23205939.4924   23205941.7774   15760971.73447
  12299617.33346                  21871116.0234                   21871115.8484
  -8919586.06648  -6931698.73446  20659660.3524                   20659657.1724
  10917690.87547   8524919.98245  22995928.9534   22995929.7734
    378387.07847    312300.15546  21010023.9304   21010023.5634
  27718662.23047  21617787.49145  22786052.2664                   22786054.2774
  48396349.67646  37733681.40043  24656429.0554                   24656434.5314
 11  9 27 21 24  0.0000000  0  8G04G09G12G02G17G10G05G25
 -13424881.84848 -10426078.90846  21147613.5864                   21147613.0944
   5954373.14146   4658306.26444  23198483.0394   23198485.8484   15577471.12547
  12156629.90346                  21836197.1094                   21836196.1054
  -9041394.37948  -7026614.28647  20636480.9304                   20636477.7274
  10856972.81647   8477607.14345  22984374.4224   22984375.3324
    246285.89848    209364.20846  20984885.8364   20984885.3284
  27507174.30147  21452991.85845  22745807.5784                   22745808.9964
  48182101.13746  37566734.55743  24615658.7194                   24615664.1644
 11  9 27 21 24 30.0000000  0  8G04G09G12G02G17G10G05G25
 -13466057.80548 -10458164.09846  21139778.2034                   21139777.7894
   5915450.78147   4627977.04844  23191076.3134   23191079.5944   15394298.54347
  12013898.07246                  21801340.0234                   21801339.5234
  -9162897.25448  -7121291.82947  20613359.8444                   20613356.6524
  10796367.21547   8430381.92045  22972841.9534   22972842.9574
    114769.87148    106884.22646  20959859.1414   20959858.3324
  27295848.00047  21288322.17945  22705593.1024                   22705594.3954
  47967932.59046  37399850.00643  24574903.8594                   24574908.1414
 11  9 27 21 25  0.0000000  0  8G04G09G12G02G17G10G05G25
 -13507030.84048 -10490091.16046  21131981.0944                   21131980.5554
   5876787.86747   4597849.99044  23183719.3284   23183722.0204   15211460.93447
  11871427.26046                  21766547.4144                   21766546.5864
  -9284091.26648  -7215728.71246  20590297.2734                   20590294.0514
  10735878.70747   8383247.94645  22961331.4304   22961331.9884
    -16155.73048      4864.30646  20934944.8674   20934944.3554
  27084690.88347  21123784.29245  22665411.2274                   22665412.9534
  47753850.71546  37233033.17642  24534165.7424                   24534168.7194
 11  9 27 21 25 30.0000000  0  8G04G09G12G02G17G10G05G25
 -13547799.13348 -10521858.69946  21124223.3284                   21124223.3244
   5838385.29747   4567925.79944  23176411.1644   23176414.2034   15028964.69947
  11729222.46446                  21731819.5084                   21731818.4144
  -9404973.55948  -7309922.69947  20567293.8674                   20567290.8984
  10675512.31347   8336209.11545  22949844.0554   22949845.2274
   -146485.54348    -96691.35246  20910143.8984   20910142.9144
  26873709.89147  20959383.66345  22625263.0004                   22625264.3714
  47539862.28146  37066289.10443  24493443.5314                   24493448.5664
 11  9 27 21 26  0.0000000  0  8G04G09G12G02G17G10G05G25
 -13588363.44948 -10553467.27546  21116504.5554                   21116503.8364
   5800241.21547   4538203.04044  23169153.1954   23169155.2274   14846814.06647
  11587286.95746                  21697157.1884                   21697156.2384
  -9525543.26248  -7403873.10546  20544350.4144                   20544347.2274
  10615269.94547   8289266.93345  22938380.3984   22938381.6884
   -276216.57447   -197780.44946  20885457.0004   20885456.2074
  26662909.71547  20795123.91645  22585148.8524                   22585150.1134
  47325971.19146  36899620.80943  24452742.0314                   24452746.5434
 11  9 27 21 26 30.0000000  0  8G04G09G12G02G17G10G05G25
 -13628726.51247 -10584919.04646  21108823.4064                   21108823.0394
   5762351.50847   4508678.47544  23161943.3284   23161945.8204   14665011.17247
  11445622.41246                  21662561.3914                   21662560.4384
  -9645801.91848  -7497581.13647  20521466.1644                   20521463.0124
  10555151.22347   8242421.09645  22926940.4454   22926941.2704
   -405348.91847   -298403.01146  20860883.9774   20860883.3324
  26452292.69147  20631006.90945  22545069.9534                   22545071.0354
  47112179.17646  36733029.84043  24412058.6564                   24412064.2424
 11  9 27 21 27  0.0000000  0  8G04G09G12G02G17G10G05G25
 -13668888.16848 -10616213.85846  21101180.9614                   21101180.3524
   5724715.24647   4479351.42344  23154781.0634   23154783.2274   14483560.32447
  11304232.19146                  21628032.6484                   21628031.5594
  -9765748.25848  -7591045.79346  20498640.7664                   20498637.8524
  10495159.60246   8195674.30845  22915524.2504   22915525.1764
   -533878.58247   -398555.96946  20836425.5944   20836424.7234
  26241864.03147  20467036.65745  22505026.4064                   22505027.7544
  46898491.15646  36566519.83243  24371395.5084                   24371400.1764
 11  9 27 21 27 30.0000000  0  8G04G09G12G02G17G10G05G25
 -13708849.85248 -10647352.86346  21093576.6804                   21093576.1604
   5687329.78947   4450219.81744  23147667.3054   23147669.7274   14302465.34047
  11163119.27146                  21593571.0944                   21593570.5984
  -9885382.05548  -7684266.93446  20475875.0634                   20475872.2194
  10435296.42247   8149027.59244  22904133.0704   22904133.8094
   -661803.80948   -498237.93146  20812081.8134   20812081.7464
  26031627.69147  20303216.26345  22465019.8204                   22465020.9964
  46684910.59447  36400093.57844  24330752.5554                   24330757.7274
 11  9 27 21 28  0.0000000  0  8G04G09G12G02G17G10G05G25
 -12173193.24248  -9450737.34646  21385801.8444                   21385801.7894
   7225612.53947   5648881.60444  23440392.5084   23440395.0594   15697154.13347
  12249889.78946                  21858971.7664                   21858970.4614
  -8429281.06648  -6549642.77347  20752961.9694                   20752959.0354
  11950983.73446   9330082.55945  23192558.4384   23192559.7424
    786299.88748    630154.58346  21087646.9224   21087646.3324
  27397013.08247  21367153.07045  22724843.8834                   22724845.0044
  48046866.38747  37461357.98844  24589923.9844                   24589929.0394
 11  9 27 21 28 30.0000000  0  8G04G09G12G02G17G10G05G25
 -12212761.30548  -9481569.62346  21378272.6724                   21378272.4104
   7188718.89847   5620133.23844  23433372.2584   23433374.3524   15516778.33247
  12109337.26946                  21824647.2194                   21824646.5084
  -8548292.84048  -6642379.20447  20730315.1414                   20730311.9454
  11891379.14146   9283637.34745  23181216.2274   23181217.3284
    659586.72348    531417.08146  21063534.2814   21063533.8244   27187170.46947
  21203639.48545  22684911.7114   22684913.2424
  47833508.12547  37295104.94544  24549322.8054                   24549327.6884
 11  9 27 21 29  0.0000000  0  8G04G09G12G02G17G10G05G25
 -12252138.42248  -9512253.12246  21370779.5634                   21370779.0004
   7152063.40647   5591570.39044  23426397.0164   23426399.9614   15336763.72747
  11969066.20046                  21790391.5004                   21790390.5274
  -8666997.69548  -6734876.47847  20707726.4224                   20707722.7894
  11831902.46547   9237291.79744  23169898.1094   23169898.9304
    533478.73048    433151.15346  21039536.3754   21039535.7584   26977526.85247
  21040280.93445                  22645018.0234                   22645019.3204
  47620262.41447  37128939.66144  24508743.4064                   24508748.5984
 11  9 27 21 29 30.0000000  0  8G04G09G12G02G17G10G05G25
 -12291324.71948  -9542787.92646  21363322.7504                   21363322.3014
   7115644.66446   5563192.03544  23419466.6724   23419469.4734   15157114.69947
  11829079.98646                  21756205.5704                   21756204.5234
  -8785394.14548  -6827133.43147  20685196.1954                   20685192.8714
  11772556.19147   9191047.87844  23158604.7194   23158606.0704
    407978.89148    335359.10846  21015654.8524   21015654.2384   26768087.14547
  20877081.27545                  22605162.7194                   22605164.1334
  47407133.71946  36962865.48544  24468186.2274                   24468191.5164
